[[{"header":{"parameterUnit":"m.s-1","parameterCategory":1,"la1":31.0,"la2":29.5877,"lo1":-88.7671,"lo2":-86.6584,"dy":0.0162,"dx":0.0185,"nx":115,"ny":88,"refTime":"2026-03-07T00:00:00:Z","depth":0,"parameterNumber":2,"parameterNumberName":"U-component_of_WINDS"},"data":[0.0,0.0,0.0,0.0,0.0,0.0,0.0,0.0,0.0,0.0,0.0,0.0,0.0,0.0,0.0,0.0,0.0,0.0,0.0,0.0,0.0,0.0,0.0,0.0,0.0,0.0,0.0,0.0,0.0,0.0,0.0,0.0,0.0,0.0,0.0,0.0,0.0,0.0,0.0,0.0,0.0,0.0,0.0,0.0,0.0,0.0,0.0,0.0,0.0,0.0,0.0,0.0,0.0,0.0,0.0,0.0,0.0,0.0,0.0,0.0,0.0,0.0,0.0,0.0,0.0,0.0,0.0,0.0,0.0,0.0,0.0,0.0,0.0,0.0,0.0,0.0,0.0,0.0,0.0,0.0,0.0,0.0,0.0,0.0,0.0,0.0,0.0,0.0,0.0,0.0,0.0,0.0,0.0,0.0,0.0,0.0,0.0,0.0,0.0,0.0,0.0,0.0,0.0,0.0,0.0,0.0,0.0,0.0,0.0,0.0,0.0,0.0,0.0,0.0,0.0,0.0,0.0,0.0,0.0,0.0,0.0,0.0,0.0,0.0,0.0,0.0,0.0,0.0,0.0,0.0,0.0,0.0,0.0,0.0,0.0,0.0,0.0,0.0,0.0,0.0,0.0,0.0,0.0,0.0,0.0,0.0,0.0,0.0,0.0,0.0,0.0,0.0,0.0,0.0,0.0,0.0,0.0,0.0,0.0,0.0,0.0,0.0,0.0,0.0,0.0,0.0,0.0,0.0,0.0,0.0,0.0,0.0,0.0,0.0,0.0,0.0,0.0,0.0,0.0,0.0,0.0,0.0,0.0,0.0,0.0,0.0,0.0,0.0,0.0,0.0,0.0,0.0,0.0,0.0,0.0,0.0,0.0,0.0,0.0,0.0,0.0,0.0,0.0,0.0,0.0,0.0,0.0,0.0,0.0,0.0,0.0,0.0,0.0,0.0,0.0,0.0,0.0,0.0,0.0,0.0,0.0,0.0,0.0,0.0,0.0,0.0,0.0,0.0,0.0,0.0,0.0,0.0,0.0,0.0,0.0,0.0,0.0,0.0,0.0,0.0,0.0,0.0,0.0,0.0,0.0,0.0,0.0,0.0,0.0,0.0,0.0,0.0,0.0,0.0,0.0,0.0,0.0,0.0,0.0,0.0,0.0,0.0,0.0,0.0,0.0,0.0,0.0,0.0,0.0,0.0,0.0,0.0,0.0,0.0,0.0,0.0,0.0,0.0,0.0,0.0,0.0,0.0,0.0,0.0,0.0,0.0,0.0,0.0,0.0,0.0,0.0,0.0,0.0,0.0,0.0,0.0,0.0,0.0,0.0,0.0,0.0,0.0,0.0,0.0,0.0,0.0,0.0,0.0,0.0,0.0,0.0,0.0,0.0,0.0,0.0,0.0,0.0,0.0,0.0,0.0,0.0,0.0,0.0,0.0,0.0,0.0,0.0,0.0,0.0,0.0,0.0,0.0,0.0,0.0,0.0,0.0,0.0,0.0,0.0,0.0,0.0,0.0,0.0,0.0,0.0,0.0,0.0,0.0,0.0,0.0,0.0,0.0,0.0,0.0,0.0,0.0,0.0,0.0,0.0,0.0,0.0,0.0,0.0,0.0,0.0,0.0,0.0,0.0,0.0,0.0,0.0,0.0,0.0,0.0,0.0,0.0,0.0,0.0,0.0,0.0,0.0,0.0,0.0,0.0,0.0,0.0,0.0,0.0,0.0,0.0,0.0,0.0,0.0,0.0,0.0,0.0,0.0,0.0,0.0,0.0,0.0,0.0,0.0,0.0,0.0,0.0,0.0,0.0,0.0,0.0,0.0,0.0,0.0,0.0,0.0,0.0,0.0,0.0,0.0,0.0,0.0,0.0,0.0,0.0,0.0,0.0,0.0,0.0,0.0,0.0,0.0,0.0,0.0,0.0,0.0,0.0,0.0,0.0,0.0,0.0,0.0,0.0,0.0,0.0,0.0,0.0,0.0,0.0,0.0,0.0,0.0,0.0,0.0,0.0,0.0,0.0,0.0,0.0,0.0,0.0,0.0,0.0,0.0,0.0,0.0,0.0,0.0,0.0,0.0,0.0,0.0,0.0,0.0,0.0,0.0,0.0,0.0,0.0,0.0,0.0,0.0,0.0,0.0,0.0,0.0,0.0,0.0,0.0,0.0,0.0,0.0,0.0,0.0,0.0,0.0,0.0,0.0,0.0,0.0,0.0,0.0,0.0,0.0,0.0,0.0,0.0,0.0,0.0,0.0,0.0,0.0,0.0,0.0,0.0,0.0,0.0,0.0,0.0,0.0,0.0,0.0,0.0,0.0,0.0,0.0,0.0,0.0,0.0,0.0,0.0,0.0,0.0,0.0,0.0,0.0,0.0,0.0,0.0,0.0,0.0,0.0,0.0,0.0,0.0,0.0,0.0,0.0,0.0,0.0,0.0,0.0,0.0,0.0,0.0,0.0,0.0,0.0,0.0,0.0,0.0,0.0,0.0,0.0,0.0,0.0,0.0,0.0,0.0,0.0,0.0,0.0,0.0,0.0,0.0,0.0,0.0,0.0,0.0,0.0,0.0,0.0,0.0,0.0,0.0,0.0,0.0,0.0,0.0,0.0,0.0,0.0,0.0,0.0,0.0,0.0,0.0,0.0,0.0,0.0,0.0,0.0,0.0,0.0,0.0,0.0,0.0,0.0,0.0,0.0,0.0,0.0,0.0,0.0,0.0,0.0,0.0,0.0,0.0,0.0,0.0,0.0,0.0,0.0,0.0,0.0,0.0,0.0,0.0,0.0,0.0,0.0,0.0,0.0,0.0,0.0,0.0,0.0,0.0,0.0,0.0,0.0,0.0,0.0,0.0,0.0,0.0,0.0,0.0,0.0,0.0,0.0,0.0,0.0,0.0,0.0,0.0,0.0,0.0,0.0,0.0,0.0,0.0,0.0,0.0,0.0,0.0,0.0,0.0,0.0,0.0,0.0,0.0,0.0,0.0,0.0,0.0,0.0,0.0,0.0,0.0,0.0,0.0,0.0,0.0,0.0,0.0,0.0,0.0,0.0,0.0,0.0,0.0,0.0,0.0,0.0,0.0,0.0,0.0,0.0,0.0,0.0,0.0,0.0,0.0,0.0,0.0,0.0,0.0,0.0,0.0,0.0,0.0,0.0,0.0,0.0,0.0,0.0,0.0,0.0,0.0,0.0,0.0,0.0,0.0,0.0,0.0,0.0,0.0,0.0,0.0,0.0,0.0,0.0,0.0,0.0,0.0,0.0,0.0,0.0,0.0,0.0,0.0,0.0,0.0,0.0,0.0,0.0,0.0,0.0,0.0,0.0,0.0,0.0,0.0,0.0,0.0,0.0,0.0,0.0,0.0,0.0,0.0,0.0,0.0,0.0,0.0,0.0,0.0,0.0,0.0,0.0,0.0,0.0,0.0,0.0,0.0,0.0,0.0,0.0,0.0,0.0,0.0,0.0,0.0,0.0,0.0,0.0,0.0,0.0,0.0,0.0,0.0,0.0,0.0,0.0,0.0,0.0,0.0,0.0,0.0,0.0,0.0,0.0,0.0,0.0,0.0,0.0,0.0,0.0,0.0,0.0,0.0,0.0,0.0,0.0,0.0,0.0,0.0,0.0,0.0,0.0,0.0,0.0,0.0,0.0,0.0,0.0,0.0,0.0,0.0,0.0,0.0,0.0,0.0,0.0,0.0,0.0,0.0,0.0,0.0,0.0,0.0,0.0,0.0,0.0,0.0,0.0,0.0,0.0,0.0,0.0,0.0,0.0,0.0,0.0,0.0,0.0,0.0,0.0,0.0,0.0,0.0,0.0,0.0,0.0,0.0,0.0,0.0,0.0,0.0,0.0,0.0,0.0,0.0,0.0,0.0,0.0,0.0,0.0,0.0,0.0,0.0,0.0,0.0,0.0,0.0,0.0,0.0,0.0,0.0,0.0,0.0,0.0,0.0,0.0,0.0,0.0,0.0,0.0,0.0,0.0,0.0,0.0,0.0,0.0,0.0,0.0,0.0,0.0,0.0,0.0,0.0,0.0,0.0,0.0,0.0,0.0,0.0,0.0,0.0,0.0,0.0,0.0,0.0,0.0,0.0,0.0,0.0,0.0,0.0,0.0,0.0,0.0,0.0,0.0,0.0,0.0,0.0,0.0,0.0,0.0,0.0,0.0,0.0,0.0,0.0,0.0,0.0,0.0,0.0,0.0,0.0,0.0,0.0,0.0,0.0,0.0,0.0,0.0,0.0,0.0,0.0,0.0,0.0,0.0,0.0,-2.5473,0.0,0.0,0.0,0.0,0.0,0.0,0.0,0.0,0.0,0.0,0.0,0.0,0.0,0.0,0.0,0.0,0.0,0.0,0.0,0.0,0.0,0.0,0.0,0.0,0.0,0.0,0.0,0.0,0.0,0.0,0.0,0.0,0.0,0.0,0.0,0.0,0.0,0.0,0.0,0.0,0.0,0.0,0.0,0.0,0.0,0.0,0.0,0.0,0.0,0.0,0.0,0.0,0.0,0.0,0.0,0.0,0.0,0.0,0.0,0.0,0.0,0.0,0.0,0.0,0.0,0.0,0.0,0.0,0.0,0.0,0.0,0.0,0.0,0.0,0.0,0.0,0.0,0.0,0.0,0.0,0.0,0.0,0.0,0.0,0.0,0.0,0.0,0.0,0.0,0.0,0.0,0.0,0.0,0.0,0.0,0.0,0.0,0.0,0.0,0.0,0.0,0.0,0.0,0.0,0.0,0.0,0.0,0.0,0.0,0.0,-2.6708,-2.6708,-2.6708,-2.6539,-2.6201,0.0,0.0,0.0,0.0,0.0,0.0,0.0,0.0,0.0,0.0,0.0,0.0,0.0,0.0,0.0,0.0,0.0,0.0,0.0,0.0,0.0,0.0,0.0,0.0,0.0,0.0,0.0,0.0,0.0,0.0,0.0,0.0,0.0,0.0,0.0,0.0,0.0,0.0,0.0,0.0,0.0,0.0,0.0,0.0,0.0,0.0,0.0,0.0,0.0,0.0,0.0,0.0,0.0,0.0,0.0,0.0,0.0,0.0,0.0,0.0,0.0,0.0,0.0,0.0,0.0,0.0,0.0,0.0,0.0,0.0,0.0,0.0,0.0,0.0,0.0,0.0,0.0,0.0,0.0,0.0,0.0,0.0,0.0,0.0,0.0,0.0,0.0,0.0,0.0,0.0,0.0,0.0,0.0,0.0,0.0,0.0,0.0,0.0,0.0,0.0,0.0,0.0,0.0,0.0,0.0,0.0,0.0,0.0,0.0,0.0,0.0,0.0,-2.7131,-2.7063,-2.6674,0.0,0.0,0.0,0.0,0.0,0.0,0.0,0.0,0.0,0.0,0.0,0.0,0.0,0.0,0.0,0.0,0.0,0.0,0.0,0.0,0.0,0.0,0.0,0.0,0.0,0.0,0.0,0.0,0.0,0.0,0.0,0.0,0.0,0.0,0.0,0.0,0.0,0.0,0.0,0.0,0.0,0.0,0.0,0.0,0.0,0.0,0.0,0.0,0.0,0.0,0.0,0.0,0.0,0.0,0.0,0.0,0.0,0.0,0.0,0.0,0.0,0.0,0.0,0.0,0.0,0.0,0.0,0.0,0.0,0.0,0.0,0.0,0.0,0.0,0.0,0.0,0.0,0.0,0.0,0.0,0.0,0.0,0.0,0.0,0.0,0.0,0.0,0.0,0.0,0.0,0.0,0.0,0.0,0.0,0.0,0.0,0.0,0.0,0.0,0.0,0.0,0.0,0.0,0.0,0.0,0.0,0.0,0.0,0.0,0.0,-2.7705,-2.7722,-2.8399,0.0,-2.6759,0.0,0.0,0.0,0.0,0.0,0.0,0.0,0.0,0.0,0.0,0.0,0.0,0.0,0.0,0.0,0.0,0.0,0.0,0.0,0.0,0.0,0.0,0.0,0.0,0.0,0.0,0.0,0.0,0.0,0.0,0.0,0.0,0.0,0.0,0.0,0.0,0.0,0.0,0.0,0.0,0.0,0.0,0.0,0.0,0.0,0.0,0.0,0.0,0.0,0.0,0.0,0.0,0.0,0.0,0.0,0.0,0.0,0.0,0.0,0.0,0.0,0.0,0.0,0.0,0.0,0.0,0.0,0.0,0.0,0.0,0.0,0.0,0.0,0.0,0.0,0.0,0.0,0.0,0.0,0.0,0.0,0.0,0.0,0.0,0.0,0.0,0.0,0.0,0.0,0.0,0.0,0.0,0.0,0.0,0.0,0.0,0.0,0.0,0.0,0.0,0.0,0.0,0.0,0.0,0.0,0.0,0.0,0.0,0.0,0.0,0.0,-2.8484,-2.8824,-2.8485,0.0,0.0,0.0,0.0,0.0,0.0,0.0,0.0,0.0,0.0,0.0,0.0,0.0,0.0,0.0,0.0,0.0,0.0,0.0,0.0,0.0,0.0,0.0,0.0,0.0,0.0,0.0,0.0,0.0,0.0,0.0,0.0,0.0,0.0,0.0,0.0,0.0,0.0,0.0,0.0,0.0,0.0,0.0,0.0,0.0,0.0,0.0,0.0,0.0,0.0,0.0,0.0,0.0,0.0,0.0,0.0,0.0,0.0,0.0,0.0,0.0,0.0,0.0,0.0,0.0,0.0,0.0,0.0,0.0,0.0,0.0,0.0,0.0,0.0,0.0,0.0,0.0,0.0,0.0,0.0,0.0,0.0,0.0,0.0,0.0,0.0,0.0,0.0,0.0,0.0,0.0,0.0,0.0,0.0,0.0,0.0,0.0,0.0,0.0,0.0,0.0,0.0,0.0,0.0,0.0,0.0,0.0,0.0,0.0,0.0,-2.801,0.0,-2.9534,-2.9416,-2.8839,-2.7805,0.0,0.0,0.0,0.0,0.0,0.0,0.0,0.0,0.0,0.0,0.0,0.0,0.0,0.0,0.0,0.0,0.0,0.0,0.0,0.0,0.0,0.0,0.0,0.0,0.0,0.0,0.0,0.0,0.0,0.0,0.0,0.0,0.0,0.0,0.0,0.0,0.0,0.0,0.0,0.0,0.0,0.0,0.0,0.0,0.0,0.0,0.0,0.0,0.0,0.0,0.0,0.0,0.0,0.0,0.0,0.0,0.0,0.0,0.0,0.0,0.0,0.0,0.0,0.0,0.0,0.0,0.0,0.0,0.0,0.0,0.0,0.0,0.0,0.0,0.0,0.0,0.0,0.0,0.0,0.0,0.0,0.0,0.0,0.0,0.0,0.0,0.0,0.0,0.0,0.0,0.0,0.0,0.0,0.0,0.0,0.0,0.0,0.0,0.0,0.0,0.0,0.0,0.0,0.0,0.0,0.0,0.0,0.0,0.0,-2.8535,-2.9636,-3.0937,-3.0412,-2.9291,0.0,0.0,0.0,0.0,0.0,0.0,0.0,0.0,0.0,0.0,0.0,0.0,0.0,0.0,0.0,0.0,0.0,0.0,0.0,0.0,0.0,0.0,0.0,0.0,0.0,0.0,0.0,0.0,0.0,0.0,0.0,0.0,0.0,0.0,0.0,0.0,0.0,0.0,0.0,0.0,0.0,0.0,0.0,0.0,0.0,0.0,0.0,0.0,0.0,0.0,0.0,0.0,0.0,0.0,0.0,0.0,0.0,0.0,0.0,0.0,0.0,0.0,0.0,0.0,0.0,0.0,0.0,0.0,0.0,0.0,0.0,0.0,0.0,0.0,0.0,0.0,0.0,0.0,0.0,0.0,0.0,0.0,0.0,0.0,0.0,0.0,0.0,0.0,0.0,0.0,0.0,0.0,0.0,0.0,0.0,0.0,0.0,0.0,0.0,0.0,0.0,0.0,0.0,0.0,0.0,0.0,0.0,0.0,0.0,-2.7807,-2.8586,-2.921,-2.9642,-2.9406,-2.8543,0.0,0.0,0.0,0.0,0.0,0.0,0.0,0.0,0.0,0.0,0.0,0.0,0.0,0.0,0.0,0.0,0.0,0.0,0.0,0.0,0.0,0.0,0.0,0.0,0.0,0.0,0.0,0.0,0.0,0.0,0.0,0.0,0.0,0.0,0.0,0.0,0.0,0.0,0.0,0.0,0.0,0.0,0.0,0.0,0.0,0.0,0.0,0.0,0.0,0.0,0.0,0.0,0.0,0.0,0.0,0.0,0.0,0.0,0.0,0.0,0.0,0.0,0.0,0.0,0.0,0.0,0.0,0.0,0.0,0.0,0.0,0.0,0.0,0.0,0.0,0.0,0.0,0.0,0.0,0.0,0.0,0.0,0.0,0.0,0.0,0.0,0.0,0.0,0.0,0.0,0.0,0.0,0.0,0.0,0.0,0.0,0.0,0.0,0.0,0.0,0.0,0.0,0.0,0.0,0.0,0.0,0.0,0.0,0.0,-2.7665,0.0,-2.8774,0.0,-2.8427,-2.7587,0.0,0.0,0.0,0.0,0.0,0.0,0.0,0.0,0.0,0.0,0.0,0.0,0.0,0.0,0.0,0.0,0.0,0.0,0.0,0.0,0.0,0.0,0.0,0.0,0.0,0.0,0.0,0.0,0.0,0.0,0.0,0.0,0.0,0.0,0.0,0.0,0.0,0.0,0.0,0.0,0.0,0.0,0.0,0.0,0.0,0.0,0.0,0.0,0.0,0.0,0.0,0.0,0.0,0.0,0.0,0.0,0.0,0.0,0.0,0.0,0.0,0.0,0.0,0.0,0.0,0.0,0.0,0.0,0.0,0.0,0.0,0.0,0.0,0.0,0.0,0.0,0.0,0.0,0.0,0.0,0.0,0.0,0.0,0.0,0.0,0.0,0.0,0.0,0.0,0.0,0.0,0.0,0.0,0.0,0.0,0.0,0.0,0.0,0.0,0.0,0.0,0.0,0.0,0.0,0.0,0.0,0.0,0.0,-2.6837,-2.7394,-2.8054,-2.8381,-2.8365,-2.7663,-2.6563,0.0,0.0,0.0,0.0,0.0,0.0,0.0,0.0,0.0,0.0,0.0,0.0,0.0,0.0,0.0,0.0,0.0,0.0,0.0,0.0,0.0,0.0,0.0,0.0,0.0,0.0,0.0,0.0,0.0,0.0,0.0,0.0,0.0,0.0,0.0,0.0,0.0,0.0,0.0,0.0,0.0,0.0,0.0,0.0,0.0,0.0,0.0,0.0,0.0,0.0,0.0,0.0,0.0,0.0,0.0,0.0,0.0,0.0,0.0,0.0,0.0,0.0,0.0,0.0,0.0,0.0,0.0,0.0,0.0,0.0,0.0,0.0,0.0,0.0,0.0,0.0,0.0,0.0,0.0,0.0,0.0,0.0,0.0,0.0,0.0,0.0,0.0,0.0,0.0,0.0,0.0,0.0,0.0,0.0,0.0,0.0,0.0,0.0,0.0,0.0,0.0,0.0,0.0,0.0,0.0,0.0,0.0,0.0,0.0,-2.6997,-2.7673,-2.7804,-2.7322,-2.698,-2.6089,0.0,0.0,0.0,0.0,0.0,0.0,0.0,0.0,0.0,0.0,0.0,0.0,0.0,0.0,0.0,0.0,0.0,0.0,0.0,0.0,0.0,0.0,0.0,0.0,0.0,0.0,0.0,0.0,0.0,0.0,0.0,0.0,0.0,0.0,0.0,0.0,0.0,0.0,0.0,0.0,0.0,0.0,0.0,0.0,0.0,0.0,0.0,0.0,0.0,0.0,0.0,0.0,0.0,0.0,0.0,0.0,0.0,0.0,0.0,0.0,0.0,0.0,0.0,0.0,0.0,0.0,0.0,0.0,0.0,0.0,0.0,0.0,0.0,0.0,0.0,0.0,0.0,0.0,0.0,0.0,0.0,0.0,0.0,0.0,0.0,0.0,0.0,0.0,0.0,0.0,0.0,0.0,0.0,0.0,0.0,0.0,0.0,0.0,0.0,0.0,0.0,0.0,0.0,0.0,0.0,0.0,0.0,0.0,0.0,-2.7077,-2.7295,-2.7325,-2.7098,-2.655,-2.5624,-2.4382,0.0,0.0,0.0,0.0,0.0,0.0,0.0,0.0,0.0,0.0,0.0,0.0,0.0,0.0,0.0,0.0,0.0,0.0,0.0,0.0,0.0,0.0,0.0,0.0,0.0,0.0,0.0,0.0,0.0,0.0,0.0,0.0,0.0,0.0,0.0,0.0,0.0,0.0,0.0,0.0,0.0,0.0,0.0,0.0,0.0,0.0,0.0,0.0,0.0,0.0,0.0,0.0,0.0,0.0,0.0,0.0,0.0,0.0,0.0,0.0,0.0,0.0,0.0,0.0,0.0,0.0,0.0,0.0,0.0,0.0,0.0,0.0,0.0,0.0,0.0,0.0,0.0,0.0,0.0,0.0,0.0,0.0,0.0,0.0,0.0,0.0,0.0,0.0,0.0,0.0,0.0,0.0,0.0,0.0,0.0,0.0,0.0,0.0,0.0,0.0,0.0,0.0,0.0,0.0,0.0,0.0,0.0,0.0,-2.7645,-2.7048,-2.7047,-2.7604,-2.6439,-2.5325,0.0,0.0,0.0,0.0,0.0,0.0,0.0,0.0,0.0,0.0,0.0,0.0,0.0,0.0,0.0,0.0,0.0,0.0,0.0,0.0,0.0,0.0,0.0,0.0,0.0,0.0,0.0,0.0,0.0,0.0,0.0,0.0,0.0,0.0,0.0,0.0,0.0,0.0,0.0,0.0,0.0,0.0,0.0,0.0,0.0,0.0,0.0,0.0,0.0,0.0,0.0,0.0,0.0,0.0,0.0,0.0,0.0,0.0,0.0,0.0,0.0,0.0,0.0,0.0,0.0,0.0,0.0,0.0,0.0,0.0,0.0,0.0,0.0,0.0,0.0,0.0,0.0,0.0,0.0,0.0,0.0,0.0,0.0,0.0,0.0,0.0,0.0,0.0,0.0,0.0,0.0,0.0,0.0,0.0,0.0,0.0,0.0,0.0,0.0,0.0,0.0,0.0,0.0,0.0,0.0,0.0,0.0,0.0,0.0,-2.8343,-2.8479,-2.8456,-2.8334,-2.7659,-2.674,0.0,0.0,0.0,0.0,0.0,0.0,0.0,0.0,0.0,0.0,0.0,0.0,0.0,0.0,0.0,0.0,0.0,0.0,0.0,0.0,0.0,0.0,0.0,0.0,0.0,0.0,0.0,0.0,0.0,0.0,0.0,0.0,0.0,0.0,0.0,0.0,0.0,0.0,0.0,0.0,0.0,0.0,0.0,0.0,0.0,0.0,0.0,0.0,0.0,0.0,0.0,0.0,0.0,0.0,0.0,0.0,0.0,0.0,0.0,0.0,0.0,0.0,0.0,0.0,0.0,0.0,0.0,0.0,0.0,0.0,0.0,0.0,0.0,0.0,0.0,0.0,0.0,0.0,0.0,0.0,0.0,0.0,0.0,0.0,0.0,0.0,0.0,0.0,0.0,0.0,0.0,0.0,0.0,0.0,0.0,0.0,0.0,0.0,0.0,0.0,0.0,0.0,0.0,0.0,0.0,0.0,0.0,0.0,-2.7808,-2.8778,-2.9596,-2.9742,-2.9286,-2.8272,-2.7199,0.0,0.0,0.0,0.0,0.0,0.0,0.0,0.0,0.0,0.0,0.0,0.0,0.0,0.0,0.0,0.0,0.0,0.0,0.0,0.0,0.0,0.0,0.0,0.0,0.0,0.0,0.0,0.0,0.0,0.0,0.0,0.0,0.0,0.0,0.0,0.0,0.0,0.0,0.0,0.0,0.0,0.0,0.0,0.0,0.0,0.0,0.0,0.0,0.0,0.0,0.0,0.0,0.0,0.0,0.0,0.0,0.0,0.0,0.0,0.0,0.0,0.0,0.0,0.0,0.0,0.0,0.0,0.0,0.0,0.0,0.0,0.0,0.0,0.0,0.0,0.0,0.0,0.0,0.0,0.0,0.0,0.0,0.0,0.0,0.0,0.0,0.0,0.0,0.0,0.0,0.0,0.0,0.0,0.0,0.0,0.0,0.0,0.0,0.0,0.0,0.0,0.0,0.0,0.0,0.0,0.0,0.0,0.0,-2.8634,-2.8981,-3.0356,-3.0808,-3.02,-2.8605,-2.7252,0.0,0.0,0.0,0.0,0.0,0.0,0.0,0.0,0.0,0.0,0.0,0.0,0.0,0.0,0.0,0.0,0.0,0.0,0.0,0.0,0.0,0.0,0.0,0.0,0.0,0.0,0.0,0.0,0.0,0.0,0.0,0.0,0.0,0.0,0.0,0.0,0.0,0.0,0.0,0.0,0.0,0.0,0.0,0.0,0.0,0.0,0.0,0.0,0.0,0.0,0.0,0.0,0.0,0.0,0.0,0.0,0.0,0.0,0.0,0.0,0.0,0.0,0.0,0.0,0.0,0.0,0.0,0.0,0.0,0.0,0.0,0.0,0.0,0.0,0.0,0.0,0.0,0.0,0.0,0.0,0.0,0.0,0.0,0.0,0.0,0.0,0.0,0.0,0.0,0.0,0.0,0.0,0.0,0.0,0.0,0.0,0.0,0.0,0.0,0.0,0.0,0.0,0.0,0.0,0.0,0.0,0.0,0.0,-2.8533,-2.9436,-3.0432,-3.0739,-3.0272,-2.9587,-2.848,0.0,0.0,0.0,0.0,0.0,0.0,0.0,0.0,0.0,0.0,0.0,0.0,0.0,0.0,0.0,0.0,0.0,0.0,0.0,0.0,0.0,0.0,0.0,0.0,0.0,0.0,0.0,0.0,0.0,0.0,0.0,0.0,0.0,0.0,0.0,0.0,0.0,0.0,0.0,0.0,0.0,0.0,0.0,0.0,0.0,0.0,0.0,0.0,-1.8486,0.0,0.0,0.0,0.0,0.0,0.0,0.0,0.0,0.0,0.0,0.0,0.0,0.0,0.0,0.0,0.0,0.0,0.0,0.0,0.0,0.0,0.0,0.0,0.0,0.0,0.0,0.0,0.0,0.0,0.0,0.0,0.0,0.0,0.0,0.0,0.0,0.0,0.0,0.0,0.0,0.0,0.0,0.0,0.0,0.0,0.0,0.0,0.0,0.0,0.0,0.0,0.0,0.0,0.0,0.0,0.0,0.0,0.0,0.0,-2.9457,-2.9659,-3.0597,-3.0797,-3.0216,-2.9853,-2.8906,0.0,0.0,0.0,0.0,0.0,0.0,0.0,0.0,0.0,0.0,0.0,0.0,0.0,0.0,0.0,0.0,0.0,0.0,0.0,0.0,0.0,0.0,0.0,0.0,0.0,0.0,0.0,0.0,0.0,0.0,0.0,0.0,0.0,0.0,0.0,0.0,0.0,0.0,0.0,0.0,0.0,0.0,0.0,0.0,0.0,0.0,0.0,0.0,0.0,0.0,0.0,0.0,0.0,0.0,0.0,0.0,0.0,0.0,0.0,0.0,0.0,0.0,0.0,0.0,0.0,0.0,0.0,0.0,0.0,0.0,0.0,0.0,0.0,0.0,0.0,0.0,0.0,0.0,0.0,0.0,0.0,0.0,0.0,0.0,0.0,0.0,0.0,0.0,0.0,0.0,0.0,0.0,0.0,0.0,0.0,0.0,0.0,0.0,0.0,0.0,0.0,0.0,0.0,0.0,0.0,0.0,0.0,-3.0013,-3.0461,-2.9987,-3.0814,-3.0859,-2.9999,-2.9634,-2.8772,-2.732,0.0,0.0,0.0,0.0,0.0,0.0,0.0,0.0,0.0,0.0,0.0,0.0,0.0,0.0,0.0,0.0,0.0,0.0,0.0,0.0,0.0,0.0,0.0,0.0,0.0,0.0,0.0,0.0,0.0,0.0,0.0,0.0,0.0,0.0,0.0,0.0,0.0,0.0,-1.6933,-1.9173,0.0,0.0,0.0,0.0,0.0,0.0,0.0,0.0,-1.9408,0.0,0.0,0.0,0.0,0.0,0.0,0.0,0.0,0.0,0.0,0.0,0.0,0.0,0.0,0.0,0.0,0.0,0.0,0.0,0.0,0.0,0.0,0.0,0.0,0.0,0.0,0.0,0.0,0.0,0.0,0.0,0.0,0.0,0.0,0.0,0.0,0.0,0.0,0.0,0.0,0.0,0.0,0.0,0.0,0.0,0.0,0.0,0.0,0.0,0.0,0.0,0.0,0.0,0.0,0.0,0.0,-2.8763,-2.9524,-3.0253,-3.0915,-3.1026,-3.0514,-2.9377,-2.8834,-2.7941,-2.6718,0.0,0.0,0.0,0.0,0.0,0.0,0.0,0.0,0.0,0.0,0.0,0.0,0.0,0.0,0.0,0.0,0.0,0.0,0.0,0.0,0.0,0.0,0.0,0.0,0.0,0.0,0.0,0.0,0.0,0.0,0.0,0.0,0.0,0.0,0.0,0.0,0.0,0.0,0.0,-2.0334,-2.1356,0.0,0.0,0.0,0.0,0.0,0.0,0.0,0.0,-1.9696,0.0,0.0,0.0,0.0,0.0,0.0,0.0,0.0,0.0,0.0,0.0,0.0,0.0,0.0,0.0,0.0,0.0,0.0,0.0,0.0,0.0,0.0,0.0,0.0,0.0,0.0,0.0,0.0,0.0,0.0,0.0,0.0,0.0,0.0,0.0,0.0,0.0,0.0,0.0,0.0,0.0,0.0,0.0,0.0,0.0,0.0,0.0,0.0,0.0,0.0,0.0,0.0,0.0,0.0,0.0,-2.8761,-2.9875,-3.0732,-3.1332,-3.1322,-3.0686,-2.9386,-2.8718,-2.7742,0.0,0.0,0.0,0.0,0.0,0.0,0.0,0.0,0.0,0.0,0.0,0.0,0.0,0.0,0.0,0.0,0.0,0.0,0.0,0.0,0.0,0.0,0.0,0.0,0.0,0.0,0.0,0.0,0.0,0.0,0.0,0.0,0.0,0.0,0.0,0.0,0.0,0.0,0.0,0.0,-2.1094,-2.2026,-2.2338,0.0,0.0,0.0,0.0,0.0,0.0,-2.0724,-2.0313,0.0,0.0,0.0,0.0,0.0,0.0,0.0,0.0,0.0,0.0,0.0,0.0,0.0,0.0,0.0,0.0,0.0,0.0,0.0,0.0,0.0,0.0,0.0,0.0,0.0,0.0,0.0,0.0,0.0,0.0,0.0,0.0,0.0,0.0,0.0,0.0,0.0,0.0,0.0,0.0,0.0,0.0,0.0,0.0,0.0,0.0,0.0,0.0,0.0,0.0,0.0,0.0,0.0,0.0,0.0,-2.9037,-3.0416,-3.1344,-3.1777,-3.1667,-3.0916,-2.9441,-2.8633,-2.7486,0.0,0.0,0.0,0.0,0.0,0.0,0.0,0.0,0.0,0.0,0.0,0.0,0.0,0.0,0.0,0.0,0.0,0.0,0.0,0.0,0.0,0.0,0.0,0.0,0.0,0.0,0.0,0.0,0.0,0.0,0.0,0.0,0.0,0.0,0.0,0.0,0.0,0.0,0.0,0.0,0.0,-2.2724,-2.3451,-2.2972,0.0,0.0,0.0,0.0,-2.1739,-2.1629,0.0,0.0,0.0,0.0,0.0,0.0,0.0,0.0,0.0,0.0,0.0,0.0,0.0,0.0,0.0,0.0,0.0,0.0,0.0,0.0,0.0,0.0,0.0,0.0,0.0,0.0,0.0,0.0,0.0,0.0,0.0,0.0,0.0,0.0,0.0,0.0,0.0,0.0,0.0,0.0,0.0,0.0,0.0,0.0,0.0,0.0,0.0,0.0,0.0,0.0,0.0,0.0,0.0,0.0,0.0,0.0,-2.9794,-3.0693,-3.1654,-3.2708,-3.2015,-3.0804,-2.9116,-2.8139,-2.6647,0.0,0.0,0.0,0.0,0.0,0.0,0.0,0.0,0.0,0.0,0.0,0.0,0.0,0.0,0.0,0.0,0.0,0.0,0.0,0.0,0.0,0.0,0.0,0.0,0.0,0.0,0.0,0.0,0.0,0.0,0.0,0.0,0.0,0.0,0.0,0.0,0.0,0.0,0.0,0.0,0.0,-2.3292,-2.4322,-2.4281,-2.3902,0.0,0.0,-2.3735,-2.3165,-2.2683,0.0,0.0,0.0,0.0,0.0,0.0,0.0,0.0,0.0,0.0,0.0,0.0,0.0,0.0,0.0,0.0,0.0,0.0,0.0,0.0,0.0,0.0,0.0,0.0,0.0,0.0,0.0,0.0,0.0,0.0,0.0,0.0,0.0,0.0,0.0,0.0,0.0,0.0,0.0,0.0,0.0,0.0,0.0,0.0,0.0,0.0,0.0,0.0,0.0,0.0,0.0,0.0,0.0,0.0,0.0,-2.758,-2.9753,-3.06,-3.157,-3.2763,-3.2141,-3.1023,-2.9492,-2.8412,-2.6837,0.0,0.0,0.0,0.0,0.0,0.0,0.0,0.0,0.0,0.0,0.0,0.0,0.0,0.0,0.0,0.0,0.0,0.0,0.0,0.0,0.0,0.0,0.0,0.0,0.0,0.0,0.0,0.0,0.0,0.0,0.0,0.0,0.0,0.0,0.0,0.0,0.0,0.0,0.0,0.0,0.0,0.0,-2.4223,-2.4126,0.0,0.0,0.0,-2.371,-2.3356,0.0,0.0,0.0,0.0,0.0,0.0,0.0,0.0,0.0,0.0,0.0,0.0,0.0,0.0,0.0,0.0,0.0,0.0,0.0,0.0,0.0,0.0,0.0,0.0,0.0,0.0,0.0,0.0,0.0,0.0,0.0,0.0,0.0,0.0,0.0,0.0,0.0,0.0,0.0,0.0,0.0,0.0,0.0,0.0,0.0,0.0,0.0,0.0,0.0,0.0,0.0,0.0,0.0,0.0,0.0,0.0,0.0,-2.9769,-3.0628,-3.1508,-3.2492,-3.2009,-3.1106,-2.9755,-2.8634,0.0,0.0,0.0,0.0,0.0,0.0,0.0,0.0,0.0,0.0,0.0,0.0,0.0,0.0,0.0,0.0,0.0,0.0,0.0,0.0,0.0,0.0,0.0,0.0,0.0,0.0,0.0,-1.4785,0.0,0.0,0.0,0.0,0.0,0.0,0.0,0.0,0.0,0.0,0.0,0.0,0.0,0.0,-2.3847,-2.4405,-2.4266,-2.4108,0.0,0.0,-2.3825,-2.3717,-2.3001,-2.2256,0.0,0.0,0.0,0.0,0.0,0.0,0.0,0.0,0.0,0.0,0.0,0.0,0.0,0.0,0.0,0.0,0.0,0.0,0.0,0.0,0.0,0.0,0.0,0.0,0.0,0.0,0.0,0.0,0.0,0.0,0.0,0.0,0.0,0.0,0.0,0.0,0.0,0.0,0.0,0.0,0.0,0.0,0.0,0.0,0.0,0.0,0.0,0.0,0.0,0.0,0.0,0.0,0.0,0.0,0.0,-3.0092,-3.0966,-3.1604,-3.211,-3.1643,-3.0747,-2.9558,-2.8395,-2.6835,0.0,0.0,0.0,0.0,0.0,0.0,0.0,0.0,0.0,0.0,0.0,0.0,0.0,0.0,0.0,0.0,0.0,0.0,0.0,0.0,0.0,0.0,0.0,0.0,0.0,0.0,0.0,0.0,0.0,0.0,0.0,0.0,0.0,0.0,0.0,0.0,0.0,0.0,0.0,0.0,0.0,-2.421,-2.5336,-2.5373,-2.5339,0.0,0.0,-2.4799,-2.4799,-2.3439,-2.222,-2.1668,0.0,0.0,0.0,0.0,0.0,0.0,0.0,0.0,0.0,0.0,0.0,0.0,0.0,0.0,0.0,0.0,0.0,0.0,0.0,0.0,0.0,0.0,0.0,0.0,0.0,0.0,0.0,0.0,0.0,0.0,0.0,0.0,0.0,0.0,0.0,0.0,0.0,0.0,0.0,0.0,0.0,0.0,0.0,0.0,0.0,0.0,0.0,0.0,0.0,0.0,0.0,0.0,0.0,-2.7805,-2.987,-3.0451,-3.1004,-3.1563,-3.1161,-3.0568,-2.9897,-2.8738,-2.7274,0.0,0.0,0.0,0.0,0.0,0.0,0.0,0.0,0.0,0.0,0.0,0.0,0.0,0.0,0.0,0.0,0.0,0.0,0.0,0.0,0.0,0.0,0.0,0.0,0.0,0.0,0.0,0.0,-1.7838,-1.7657,-1.6563,0.0,0.0,0.0,0.0,0.0,0.0,0.0,0.0,0.0,0.0,-2.4134,-2.5038,-2.5328,0.0,0.0,-2.5259,-2.497,-2.4543,-2.3658,-2.2683,-2.1799,-2.1016,0.0,0.0,0.0,0.0,0.0,0.0,0.0,0.0,0.0,0.0,0.0,0.0,0.0,0.0,0.0,0.0,0.0,0.0,0.0,0.0,0.0,0.0,0.0,0.0,0.0,0.0,0.0,0.0,0.0,0.0,0.0,0.0,0.0,0.0,0.0,0.0,0.0,0.0,0.0,0.0,0.0,0.0,0.0,0.0,0.0,0.0,0.0,0.0,0.0,0.0,0.0,0.0,-2.7512,-2.9449,-2.9888,-3.0392,-3.1009,-3.0685,-3.0356,-2.9985,-2.891,-2.7531,0.0,0.0,0.0,0.0,0.0,0.0,0.0,0.0,0.0,0.0,0.0,0.0,0.0,0.0,0.0,0.0,0.0,0.0,0.0,0.0,0.0,0.0,0.0,0.0,0.0,0.0,0.0,0.0,-1.839,-1.7959,-1.6855,0.0,0.0,0.0,0.0,0.0,0.0,0.0,0.0,0.0,0.0,-2.4076,-2.4814,-2.5305,-2.5647,-2.5651,-2.5492,-2.5154,-2.4476,-2.3781,-2.2972,-2.2024,0.0,0.0,0.0,0.0,0.0,0.0,0.0,0.0,0.0,0.0,0.0,0.0,0.0,0.0,0.0,0.0,0.0,0.0,0.0,0.0,0.0,0.0,0.0,0.0,0.0,0.0,0.0,0.0,0.0,0.0,-2.3702,0.0,0.0,0.0,0.0,0.0,0.0,0.0,0.0,0.0,0.0,0.0,0.0,0.0,0.0,0.0,0.0,0.0,0.0,0.0,0.0,0.0,0.0,-2.723,-2.8889,-2.947,-2.9964,-3.0393,-3.0216,-3.0011,-2.9805,-2.8712,-2.7354,-2.5815,0.0,0.0,0.0,0.0,0.0,0.0,0.0,0.0,0.0,0.0,0.0,0.0,0.0,0.0,0.0,0.0,0.0,0.0,0.0,0.0,0.0,0.0,0.0,0.0,0.0,0.0,-2.0406,-1.9244,-1.8156,0.0,0.0,0.0,0.0,0.0,0.0,0.0,0.0,0.0,0.0,-2.2793,-2.4103,-2.4887,-2.5521,-2.6021,-2.6395,-2.5971,-2.541,-2.4883,-2.386,-2.2907,0.0,0.0,0.0,0.0,0.0,0.0,0.0,0.0,0.0,0.0,0.0,0.0,0.0,0.0,0.0,0.0,0.0,0.0,0.0,0.0,0.0,0.0,0.0,0.0,0.0,0.0,0.0,-2.7355,-2.6513,0.0,0.0,0.0,0.0,0.0,0.0,0.0,0.0,0.0,0.0,0.0,-2.7841,-2.7499,0.0,0.0,0.0,0.0,0.0,0.0,0.0,0.0,0.0,0.0,0.0,0.0,-2.7518,-2.8565,-2.9363,-2.9883,-3.0203,-2.9998,-2.9869,-2.9792,-2.9051,-2.7568,-2.5355,0.0,0.0,0.0,0.0,0.0,0.0,0.0,0.0,0.0,0.0,0.0,0.0,0.0,0.0,0.0,0.0,0.0,0.0,0.0,0.0,0.0,0.0,0.0,0.0,0.0,-2.0641,0.0,0.0,0.0,0.0,0.0,0.0,0.0,0.0,0.0,0.0,0.0,-2.1147,-2.2578,-2.3501,-2.4404,-2.5282,-2.5912,-2.6341,0.0,0.0,0.0,0.0,0.0,0.0,0.0,0.0,0.0,0.0,0.0,0.0,0.0,0.0,-2.0498,-1.9963,-1.9339,-1.8914,-1.8891,0.0,0.0,0.0,0.0,0.0,0.0,0.0,0.0,0.0,0.0,0.0,0.0,0.0,0.0,-2.8947,0.0,-2.711,0.0,0.0,0.0,0.0,0.0,0.0,0.0,0.0,-2.8623,-2.9203,-2.9533,-2.9282,-2.9096,0.0,-2.7734,-2.655,0.0,0.0,0.0,0.0,0.0,0.0,0.0,0.0,-2.7646,-2.8431,-2.9349,-2.9866,-2.9973,-2.9856,-2.9779,-2.9779,-2.9051,-2.7555,-2.529,-2.346,-2.1939,0.0,0.0,0.0,0.0,0.0,0.0,0.0,0.0,0.0,0.0,0.0,0.0,0.0,0.0,0.0,0.0,0.0,0.0,0.0,0.0,0.0,0.0,0.0,-2.0758,0.0,0.0,0.0,0.0,0.0,0.0,0.0,0.0,0.0,-2.0347,-2.099,-2.1905,-2.3141,-2.4122,-2.4936,-2.5531,0.0,0.0,0.0,0.0,0.0,0.0,0.0,-2.5297,-2.4431,-2.4343,-2.428,-2.3958,-2.3639,-2.3463,-2.3535,0.0,0.0,-2.1144,-2.0605,-2.0335,-2.0309,-2.0335,-2.0348,-2.0322,-2.0617,-2.0835,0.0,0.0,0.0,0.0,0.0,0.0,0.0,0.0,-3.0781,-3.0517,0.0,-2.8647,0.0,0.0,0.0,0.0,0.0,-2.7687,0.0,0.0,-3.0829,-3.156,-3.1696,-3.1229,-3.0869,-3.0583,-2.9151,-2.8391,-2.8212,-2.5916,0.0,0.0,0.0,0.0,0.0,0.0,-2.7593,-2.851,-2.9369,-2.9817,-2.9805,-2.9779,-2.9779,-2.9767,-2.8725,-2.7381,-2.5749,-2.4619,-2.3288,-2.1681,-2.0646,0.0,0.0,0.0,0.0,0.0,0.0,0.0,0.0,0.0,0.0,0.0,0.0,0.0,0.0,0.0,0.0,0.0,0.0,0.0,0.0,-2.0316,0.0,0.0,0.0,0.0,0.0,0.0,0.0,0.0,0.0,0.0,-2.0371,-2.2084,-2.3381,-2.3263,0.0,0.0,0.0,0.0,-2.7306,-2.7341,-2.7306,-2.7153,-2.6637,-2.6097,-2.5536,-2.5001,0.0,0.0,-2.487,-2.4813,-2.4808,-2.48,-2.4745,-2.4161,-2.2195,-2.1718,-2.1597,-2.1597,-2.1625,-2.1597,-2.1597,-2.1687,-2.171,-3.2878,0.0,0.0,0.0,0.0,-3.228,-3.2908,-3.3432,-3.3275,-3.2934,-3.2476,-3.1132,0.0,0.0,0.0,0.0,0.0,0.0,-2.9769,-3.1105,-3.1696,-3.242,-3.3242,-3.2701,-3.2449,-3.2328,-3.11,-3.0335,-2.9907,-2.8535,-2.693,-2.5127,0.0,0.0,0.0,0.0,-2.8187,-2.8731,-2.9561,-2.9961,-2.9779,-2.9779,-2.9779,-2.9779,-2.9076,-2.8273,-2.7406,-2.5937,-2.4757,-2.3891,-2.2451,0.0,0.0,0.0,0.0,0.0,0.0,0.0,0.0,0.0,0.0,0.0,0.0,0.0,0.0,0.0,0.0,0.0,0.0,0.0,-2.0096,-2.0377,-2.0239,0.0,0.0,0.0,0.0,0.0,0.0,0.0,0.0,0.0,-2.3331,-2.3651,-2.4255,0.0,0.0,-2.6537,-2.7281,-2.767,-2.7871,-2.7871,0.0,0.0,0.0,-2.7494,-2.7344,-2.718,-2.6841,-2.6452,-2.6097,-2.5649,-2.5385,-2.5385,-2.5071,-2.4594,-2.406,-2.357,-2.3301,-2.3288,-2.3276,-2.3276,-2.3301,-2.3547,-2.3853,-3.5663,-3.3783,-3.2924,-3.2816,-3.3305,-3.3709,-3.4396,-3.5146,-3.4871,-3.4589,-3.4161,-3.3046,-3.2252,-3.1675,-3.0701,0.0,0.0,0.0,-3.1612,-3.2596,-3.2998,-3.3583,-3.4173,-3.3897,-3.3621,-3.3413,-3.2533,-3.1775,-3.1248,-3.0261,-2.8909,-2.7284,0.0,0.0,-2.6792,-2.7962,-2.866,-2.8986,-2.9732,-3.0011,-2.9792,-2.9779,-2.9779,-2.9779,-2.9453,-2.9013,-2.8436,-2.7042,-2.6013,-2.5473,-2.3653,-2.2133,0.0,0.0,0.0,0.0,0.0,0.0,0.0,0.0,0.0,0.0,0.0,-1.6944,0.0,0.0,0.0,0.0,-1.8887,-1.9756,-2.0744,-2.082,0.0,0.0,0.0,0.0,0.0,0.0,0.0,-2.2488,-2.3482,-2.4412,-2.5347,-2.5573,-2.5925,-2.6725,-2.7014,-2.7356,-2.8021,0.0,-2.8436,-2.8423,-2.8423,-2.8399,-2.8436,-2.826,-2.8109,-2.8109,-2.7846,-2.7519,-2.7216,-2.664,-2.6323,-2.6201,-2.5837,-2.5473,-2.5473,-2.5184,-2.4808,-2.4418,-2.433,-2.433,-2.433,-2.4594,-2.48,-3.8316,-3.7098,-3.4595,-3.4035,-3.4901,-3.4964,-3.5567,-3.648,-3.5956,-3.5683,-3.5608,-3.4575,-3.3771,-3.3169,-3.2654,0.0,-3.2466,-3.3495,-3.3972,-3.4048,-3.4562,-3.4768,-3.4864,-3.4768,-3.4525,-3.401,-3.342,-3.2867,-3.2315,-3.126,-3.0482,-2.993,-2.8352,-2.7695,-2.7956,-2.8582,-2.9048,-2.9302,-2.9834,-3.0011,-2.9792,-2.9779,-2.9779,-2.9779,-2.9779,-2.9528,-2.8963,-2.7934,-2.7153,-2.6587,-2.4506,-2.2807,-2.1732,0.0,0.0,0.0,0.0,0.0,0.0,0.0,0.0,0.0,0.0,0.0,0.0,0.0,0.0,0.0,-1.9521,0.0,-2.1483,-2.1556,0.0,0.0,0.0,-2.1845,-2.2355,-2.2498,-2.2949,-2.4067,0.0,0.0,-2.6612,0.0,-2.8009,-2.758,-2.7883,-2.8197,-2.8235,-2.865,-2.8963,-2.8963,-2.8963,-2.8976,-2.895,-2.8624,-2.8323,-2.8247,-2.8172,-2.8147,-2.8034,-2.767,-2.7369,-2.7306,-2.6927,-2.6549,-2.6562,-2.6461,-2.6172,-2.5146,-2.4951,-2.4971,-2.4983,-2.5034,-2.5071,-3.8718,-3.8429,-3.7287,-3.6734,-3.6634,-3.7048,-3.7374,-3.76,-3.7475,-3.7412,-3.7349,-3.6257,-3.524,-3.4324,-3.4141,-3.4123,-3.4104,-3.4399,-3.4705,-3.5107,-3.5245,-3.5567,-3.5943,-3.5542,-3.5245,-3.5044,-3.4173,-3.3646,-3.3445,-3.2378,-3.1763,-3.1599,-3.0802,-3.0035,-2.9366,-2.9025,-2.9366,-3.0272,-3.0007,-2.9869,-2.9792,-2.9779,-2.9779,-2.9779,-2.9779,-2.9729,-2.9578,-2.8499,-2.7846,-2.767,-2.5988,-2.4519,-2.3452,-2.1961,0.0,0.0,0.0,0.0,0.0,0.0,0.0,0.0,0.0,-1.7796,-1.8071,0.0,-1.8755,0.0,-2.0479,-2.1408,-2.2046,-2.2092,0.0,0.0,-2.2706,-2.2962,-2.354,-2.3979,-2.4657,-2.5783,-2.6499,-2.7256,-2.8186,-2.8574,-2.8813,-2.9139,-2.8913,-2.8888,-2.9315,-2.949,-2.9591,-2.9578,-2.9566,-2.9591,-2.9553,-2.949,-2.9214,-2.8762,-2.8737,-2.8549,-2.8185,-2.8009,-2.7908,-2.7883,-2.7457,-2.713,-2.7115,-2.6788,-2.6449,-2.616,-2.6097,-2.6109,-2.6109,-2.6084,-2.6097,-3.9459,-3.9207,-3.8894,-3.858,-3.8316,-3.8366,-3.853,-3.873,-3.8504,-3.8391,-3.8341,-3.7524,-3.6747,-3.6194,-3.6194,-3.6044,-3.5818,-3.5818,-3.5855,-3.5906,-3.5906,-3.6069,-3.6392,-3.6056,-3.578,-3.5483,-3.4881,-3.4374,-3.3884,-3.3269,-3.2704,-3.2215,-3.1913,-3.1461,-3.0871,-3.0306,-3.0331,-3.0947,-3.0432,-3.0043,-2.9792,-2.9779,-2.9779,-2.9779,-2.9779,-2.9666,-2.9377,-2.8574,-2.7996,-2.7733,-2.6377,-2.5222,-2.4393,-2.3012,-2.1719,0.0,0.0,0.0,0.0,0.0,0.0,0.0,0.0,0.0,0.0,0.0,-2.0188,-2.1177,-2.2083,-2.2824,-2.3346,-2.3439,-2.3622,-2.4136,-2.4199,-2.4544,-2.5372,-2.5737,-2.6239,-2.7092,-2.7682,-2.8247,-2.8813,-2.9151,-2.9415,-2.9754,-2.9515,-2.9428,-2.9716,-2.9779,-2.9779,-2.9779,-2.9779,-2.9779,-2.9779,-2.9779,-2.9679,-2.939,-2.9315,-2.9202,-2.89,-2.8637,-2.8473,-2.8436,-2.8021,-2.7657,-2.762,-2.7241,-2.6876,-2.6826,-2.6663,-2.6512,-2.6487,-2.6487,-2.6487,-4.0312,-3.9798,-3.9798,-3.976,-3.9659,-3.9182,-3.9245,-3.9659,-3.9182,-3.8994,-3.8843,-3.8341,-3.8078,-3.8002,-3.8002,-3.7739,-3.7299,-3.7287,-3.6998,-3.6518,-3.6505,-3.648,-3.6417,-3.6417,-3.6107,-3.5608,-3.552,-3.5019,-3.4123,-3.3972,-3.3395,-3.2453,-3.2353,-3.2315,-3.2303,-3.1851,-3.1537,-3.1386,-3.0947,-3.0482,-3.0005,-2.993,-2.9892,-2.9905,-2.9829,-2.9528,-2.895,-2.8398,-2.7846,-2.7281,-2.6276,-2.5473,-2.4933,-2.3885,-2.2887,0.0,-2.132,0.0,0.0,0.0,0.0,0.0,0.0,0.0,0.0,-2.1031,-2.1773,-2.3283,-2.3904,-2.4456,-2.5071,-2.5134,-2.5347,-2.585,-2.5925,-2.6314,-2.7256,-2.7444,-2.767,-2.816,-2.8699,-2.9001,-2.9038,-2.949,-2.9779,-2.9779,-2.9767,-2.9741,-2.9779,-2.9779,-2.9779,-2.9779,-2.9779,-2.9779,-2.9779,-2.9779,-2.9779,-2.9767,-2.9741,-2.9779,-2.9729,-2.9352,-2.9013,-2.8963,-2.8549,-2.8222,-2.8222,-2.7708,-2.7329,-2.7278,-2.6864,-2.6512,-2.6487,-2.6487,-2.6487,-4.0799,-4.0362,-4.0362,-4.0111,-3.9685,-3.9584,-3.9597,-3.9685,-3.9584,-3.9283,-3.8868,-3.8755,-3.8442,-3.8015,-3.8002,-3.7939,-3.7852,-3.7852,-3.7563,-3.7023,-3.7071,-3.6797,-3.643,-3.6417,-3.6342,-3.6182,-3.5768,-3.5395,-3.5169,-3.4336,-3.3784,-3.3571,-3.3131,-3.2918,-3.2905,0.0,0.0,0.0,-3.1298,-3.1198,-3.1085,-3.0683,-3.0457,-3.0457,-3.003,0.0,-2.895,-2.8398,-2.7858,-2.7293,-2.6688,0.0,0.0,0.0,0.0,0.0,0.0,0.0,0.0,0.0,0.0,0.0,-2.359,-2.3238,-2.2146,-2.2836,-2.3853,-2.5008,-2.5234,-2.5711,-2.6716,-2.6816,-2.7042,-2.7557,-2.7632,-2.772,-2.7946,-2.8348,-2.8624,-2.8725,-2.9277,-2.9616,-2.9616,-2.9741,-2.9779,-2.9779,-2.9779,-2.9779,-2.9779,-2.9779,-2.9779,-2.9779,-2.9779,-2.9779,-2.9779,-2.9779,-2.9779,-2.9779,-2.9779,-2.9779,-2.9767,-2.9729,-2.9616,-2.9591,-2.9164,-2.8737,-2.8762,-2.7984,-2.7392,-2.7341,-2.6901,-2.6487,-2.6487,-2.6487,-2.6487,-4.1417,0.0,-4.0874,-4.0764,0.0,-4.0212,-4.0099,-4.0074,-3.981,-3.9534,-3.9283,-3.927,-3.912,-3.8831,-3.8831,-3.8693,-3.8429,-3.8429,-3.814,-3.76,-3.76,-3.7299,-3.682,-3.682,-3.6621,-3.6392,-3.6081,-3.5805,-3.5483,-3.4944,-3.4437,-3.3909,-3.3608,-3.3345,-3.3136,-3.3124,-3.2654,-3.18,-3.1788,-3.1662,-3.1399,-3.1135,-3.0871,-3.058,0.0,0.0,0.0,0.0,0.0,0.0,0.0,0.0,0.0,0.0,0.0,-2.5267,-2.4933,-2.4782,-2.4782,-2.477,-2.4908,-2.5229,-2.5724,-2.5561,-2.4443,-2.5134,-2.585,-2.6364,-2.6666,-2.7067,-2.7607,-2.7695,-2.7908,-2.8436,-2.8511,-2.8612,-2.89,-2.9189,-2.9352,-2.9377,-2.9616,-2.9779,-2.9779,-2.9779,-2.9779,-2.9779,-2.9779,-2.9779,-2.9779,-2.9779,-2.9779,-2.9779,-2.9779,-2.9779,-2.9779,-2.9779,-2.9779,-2.9779,-2.9779,-2.9779,-2.9779,-2.9779,-2.9779,-2.9767,-2.9541,-2.9365,-2.9302,-2.8662,-2.806,-2.8009,-2.7431,-2.6927,-2.6889,-2.6688,-2.6487,-4.1982,-4.1438,-4.1426,-4.1376,-4.125,-4.0799,-4.0614,-4.0475,0.0,0.0,0.0,-3.9697,-3.9697,-3.9697,-3.9697,-3.9446,-3.9019,-3.9007,-3.8705,-3.8165,-3.8153,-3.7864,-3.7337,-3.7236,-3.6948,-3.6556,-3.6455,-3.6132,-3.5646,-3.5545,-3.5044,-3.4261,-3.411,-3.3784,-3.3257,-3.3162,-3.2842,-3.239,-3.2365,-3.2152,-3.17,-3.1587,-3.1286,-3.0771,-3.0631,-3.0054,-2.8976,-2.8888,-2.8637,-2.8134,-2.7682,-2.7431,-2.7419,-2.704,-2.6788,-2.6788,-2.6788,-2.6788,-2.6788,-2.6788,-2.6839,-2.6914,-2.7354,-2.7379,-2.6839,-2.719,-2.7469,-2.757,-2.7984,-2.8273,-2.8386,-2.8411,-2.8586,-2.9038,-2.9076,-2.9264,-2.9704,-2.9779,-2.9754,-2.9779,-2.9779,-2.9779,-2.9779,-2.9779,-2.9779,-2.9779,-2.9779,-2.9779,-2.9779,-2.9779,-2.9779,-2.9779,-2.9779,-2.9779,-2.9779,-2.9779,-2.9779,-2.9779,-2.9779,-2.9779,-2.9779,-2.9779,-2.9779,-2.9779,-2.9779,-2.9767,-2.9741,-2.9264,-2.8913,-2.8875,-2.8134,-2.7431,-2.7381,-2.7014,-2.665,-4.2547,-4.2087,-4.2099,-4.1781,-4.1275,-4.1213,-4.0887,-4.0488,-3.9936,-3.9697,-3.9697,-3.9697,-3.9697,-3.9697,-3.9697,-3.9659,-3.9584,-3.9584,-3.9283,0.0,-3.8793,-3.8454,-3.7877,-3.7412,-3.7136,-3.7036,-3.6644,-3.638,-3.6241,-3.5768,-3.5395,-3.5219,-3.4793,-3.4324,-3.3796,-3.335,-3.3086,-3.2998,-3.2955,-3.2918,-3.2842,-3.2353,-3.1838,-3.1298,-3.0859,-3.0093,-2.8938,-2.8938,-2.8637,-2.8134,-2.8034,-2.7996,-2.7984,-2.7908,-2.7871,-2.7871,-2.7871,-2.7883,-2.7871,-2.7871,-2.8084,-2.8524,-2.8624,-2.8461,-2.7934,-2.7934,-2.8185,-2.8637,-2.8775,-2.8988,-2.9465,-2.9503,-2.9515,-2.9628,-2.9654,-2.9716,-2.9779,-2.9779,-2.9779,-2.9779,-2.9779,-2.9779,-2.9779,-2.9779,-2.9779,-2.9779,-2.9779,-2.9779,-2.9779,-2.9779,-2.9779,-2.9779,-2.9779,-2.9779,-2.9792,-2.9792,-2.9818,-2.9779,-2.983,-2.983,-2.9818,-2.9856,-2.9818,-2.9792,-2.983,-2.9792,-2.9792,-2.9327,-2.9013,-2.8925,-2.8423,-2.8009,-2.7984,-2.7544,-2.7065,-4.2891,-4.2665,-4.2652,-4.2459,-4.2208,-4.1907,-4.1467,-4.0912,-4.0701,-4.0237,-3.971,-3.9697,-3.9697,-3.9697,-3.9697,-3.9697,-3.9697,-3.9697,-3.9572,-3.9333,-3.932,-3.9019,-3.8492,-3.8265,-3.7789,-3.7199,-3.6983,-3.6707,-3.6405,-3.6107,-3.5843,-3.5483,-3.4956,-3.46,-3.4324,-3.3796,-3.352,-3.352,-3.3232,-3.3124,-3.3068,-3.2817,-3.2416,-3.1838,-3.1599,-3.111,-3.0294,-2.9993,-2.9729,-2.9439,-2.8838,-2.8549,-2.8549,-2.8549,-2.8512,-2.8574,-2.885,-2.9013,-2.9026,-2.9302,-2.9566,-2.979,-3.0105,-3.0168,-2.9917,-2.9352,-2.9126,-2.9377,-2.939,-2.949,-2.9767,-2.9779,-2.9779,-2.9779,-2.9779,-2.9779,-2.9779,-2.9779,-2.9779,-2.9779,-2.9779,-2.9779,-2.9779,-2.9779,-2.9779,-2.9779,-2.9779,-2.9779,-2.9779,-2.9779,-2.9779,-2.9779,-2.9779,-2.9779,-2.983,-2.9908,-2.9934,-2.9972,-3.0037,-3.0113,-3.0126,-3.0113,-3.0075,-2.9972,-2.9972,-2.9908,-2.9818,-2.9591,-2.9428,-2.934,-2.89,-2.8574,-2.8461,-2.8109,-2.7469,-4.2986,-4.2986,-4.2986,-4.2986,-4.2936,-4.2577,-4.2032,-4.1543,-4.1517,-4.0978,-4.0136,-4.0061,-3.9998,-3.9873,-3.9873,-3.981,-3.971,-3.9697,-3.9697,-3.9697,-3.9697,-3.9471,-3.9069,-3.8944,-3.8454,-3.76,-3.7312,-3.696,-3.6619,-3.648,-3.6144,-3.5717,-3.5132,-3.4868,-3.4856,-3.4361,-3.4085,-3.406,-3.3671,-3.3332,-3.3124,-3.3124,-3.2792,-3.2265,-3.2202,-3.1951,-3.1411,-3.0997,-3.0796,-3.0746,-2.9955,-2.9439,-2.949,-2.9439,-2.949,-2.9528,-2.9905,-3.0156,-3.0181,-3.0545,-3.0783,-3.0809,-3.116,-3.1386,-3.1323,-3.0645,-3.0143,-3.0156,-3.0168,-3.0181,-3.0193,-3.0181,-3.0105,-3.0005,-2.998,-2.993,-2.9817,-2.9779,-2.9779,-2.9779,-2.9779,-2.9779,-2.9779,-2.9779,-2.9779,-2.9779,-2.9779,-2.9779,-2.9779,-2.9779,-2.9792,-2.9869,-2.9869,-2.9869,-2.9895,-3.0088,-3.0241,-3.0228,-3.0406,-3.0482,-3.052,-3.052,-3.0444,-3.0305,-3.0241,-3.0164,-3.0011,-2.9908,-2.9934,-2.9884,-2.9568,-2.9227,-2.895,-2.8574,-2.7934,-4.2986,-4.2986,-4.2986,-4.2986,-4.2974,-4.2911,-4.2627,-4.2162,-4.2137,-4.1756,-4.1163,-4.1137,-4.0902,-4.0488,-4.0438,-4.0187,-3.9747,-3.9697,-3.971,-3.9697,-3.9697,-3.9659,-3.9546,-3.9158,-3.8881,-3.8555,-3.775,-3.7236,-3.7086,-3.6656,-3.6392,-3.6279,-3.5742,-3.542,-3.5357,-3.4881,-3.4605,-3.4605,-3.4555,-3.4085,-3.3187,-3.3124,-3.2792,-3.2227,-3.2215,-3.1951,-3.1486,-3.1336,-3.1323,-3.1311,-3.1198,-3.1135,-3.1122,-3.1135,-3.1148,-3.111,-3.1185,-3.1248,-3.1223,-3.1286,-3.1323,-3.1323,-3.1399,-3.1449,-3.1436,-3.1336,-3.1248,-3.1235,-3.1235,-3.1148,-3.1235,-3.1185,-3.0959,-3.0583,-3.0532,-3.0357,-2.9967,-2.9779,-2.9779,-2.9779,-2.9817,-2.9779,-2.9779,-2.9779,-2.9779,-2.9779,-2.9779,-2.9779,-2.9792,-2.983,-2.9869,-3.0011,-3.0088,-3.0088,-3.0126,-3.0432,-3.0622,-3.0685,-3.0823,-3.0973,-3.1011,-3.0973,-3.0874,-3.0861,-3.0698,-3.0609,-3.0419,-3.033,-3.033,-3.0305,-3.0177,-2.9998,-2.9377,-2.9,-2.8473,-4.2986,-4.2986,-4.2986,-4.2986,-4.2986,-4.2986,-4.2904,-4.2715,-4.2635,-4.2509,-4.2333,-4.2308,-4.1831,-4.1028,-4.0949,-4.0648,-4.0199,-4.0187,-3.9998,-3.9722,-3.9697,-3.9697,-3.9672,-3.9471,-3.9195,-3.8919,-3.8441,-3.799,-3.7626,-3.7123,-3.6732,-3.643,-3.6119,-3.6031,-3.5994,-3.5479,-3.5157,-3.5157,-3.4889,-3.4455,-3.4073,-3.3721,-3.3458,-3.3206,-3.2893,-3.2641,-3.2378,-3.2077,-3.1876,-3.1851,-3.1562,-3.1386,-3.1386,-3.1386,-3.1386,-3.1386,-3.1386,-3.1386,-3.1399,-3.17,-3.1876,-3.1888,-3.2202,-3.2432,-3.239,-3.2432,-3.239,-3.2315,-3.18,-3.1386,-3.1399,-3.1386,-3.1298,-3.111,-3.1072,-3.0972,-3.0771,-3.0444,-3.0269,-3.0269,-2.9993,-2.9792,-2.9779,-2.9779,-2.9779,-2.9779,-2.9779,-2.9779,-2.9792,-2.9895,-3.0011,-3.0126,-3.0381,-3.0533,-3.0533,-3.0911,-3.1161,-3.1272,-3.1482,-3.1666,-3.1813,-3.1703,-3.1593,-3.1519,-3.1384,-3.1123,-3.0798,-3.0647,-3.0571,-3.0571,-3.0584,-3.0405,-2.9834,-2.9694,-2.9214,-4.2986,-4.2986,-4.2986,-4.2986,-4.2986,-4.2986,-4.2986,-4.2986,-4.2986,-4.2986,-4.2986,-4.2986,-4.2547,-4.1844,-4.163,-4.1254,-4.0789,-4.0739,-4.0438,-3.9961,-3.9923,-3.9848,-3.971,-3.9697,-3.9484,-3.9183,-3.8982,-3.8555,-3.8027,-3.7626,-3.7136,-3.6707,-3.6631,-3.6556,-3.638,-3.5943,-3.5768,-3.573,-3.5353,-3.5165,-3.5102,-3.4625,-3.4286,-3.411,-3.3746,-3.347,-3.3294,-3.2905,-3.2591,-3.2453,-3.2064,-3.1851,-3.1851,-3.1851,-3.1851,-3.1851,-3.1851,-3.1863,-3.1851,-3.2227,-3.2453,-3.2478,-3.2855,-3.3124,-3.3124,-3.3124,-3.3124,-3.3036,-3.237,-3.1888,-3.1851,-3.1851,-3.18,-3.165,-3.1612,-3.1574,-3.1373,-3.1022,-3.0821,-3.0783,-3.0382,-2.9942,-2.9829,-2.9779,-2.9779,-2.9779,-2.9779,-2.9779,-2.983,-2.9972,-3.0126,-3.0279,-3.0761,-3.1061,-3.1011,-3.1458,-3.1776,-3.2019,-3.2273,-3.2511,-3.2668,-3.2561,-3.2417,-3.2345,-3.2092,-3.1813,-3.1445,-3.1198,-3.0999,-3.0924,-3.0849,-3.0736,-3.0317,-3.0216,-2.9872,-4.2986,-4.2986,-4.2986,-4.2986,-4.2986,-4.2986,-4.2986,-4.2986,-4.2986,-4.2986,-4.2986,-4.2986,-4.2949,-4.2798,-4.2321,-4.1806,-4.13,-4.125,-4.1003,-4.0513,-4.0488,-4.0199,-3.971,-3.9697,-3.9672,-3.9559,-3.9157,-3.863,-3.8065,-3.799,-3.7688,-3.7186,-3.7149,-3.6945,-3.6518,-3.6417,-3.6367,-3.6304,-3.6254,-3.6279,-3.6229,-3.5705,-3.5144,-3.4776,-3.4638,-3.4336,-3.3935,-3.3834,-3.3596,-3.3111,-3.3031,-3.3006,-3.2993,-3.3006,-3.3006,-3.298,-3.3023,-3.2968,-3.2986,-3.2955,-3.3036,-3.3061,-3.3074,-3.3124,-3.3124,-3.3124,-3.3124,-3.3124,-3.2998,-3.2923,-3.2923,-3.2835,-3.2654,-3.224,-3.219,-3.1951,-3.1512,-3.1461,-3.1361,-3.1286,-3.0896,-3.0444,-2.993,-2.9779,-2.9842,-2.9842,-2.9817,-2.9779,-2.9818,-2.9972,-3.0228,-3.0647,-3.1086,-3.1542,-3.1516,-3.2042,-3.2525,-3.2775,-3.3023,-3.329,-3.3374,-3.3409,-3.3304,-3.3164,-3.2881,-3.2561,-3.2178,-3.19,-3.1693,-3.1522,-3.1248,-3.1024,-3.0685,-3.0343,-3.0024,-4.2986,-4.2986,-4.2986,-4.2986,-4.2986,-4.2986,-4.2986,-4.2986,-4.2986,-4.2986,-4.2986,-4.2986,-4.2986,-4.3017,-4.2828,-4.2439,-4.1894,-4.1856,-4.1568,-4.1091,-4.0987,-4.0752,-4.0262,-4.0224,-4.0011,-3.9697,-3.9496,-3.9107,-3.8617,-3.8555,-3.8266,-3.7801,-3.7726,-3.7437,-3.6985,-3.6885,-3.6769,-3.6455,-3.6417,-3.6417,-3.6405,-3.6169,-3.5968,-3.5755,-3.5077,-3.4593,-3.4437,-3.4437,-3.4336,-3.4148,-3.4123,-3.4135,-3.4135,-3.4123,-3.396,-3.3646,-3.3608,-3.3445,-3.3144,-3.3124,-3.3124,-3.3124,-3.3124,-3.3162,-3.3124,-3.3124,-3.3124,-3.3136,-3.3124,-3.3124,-3.3124,-3.3124,-3.2993,-3.283,-3.2754,-3.2667,-3.2453,-3.2164,-3.1926,-3.1838,-3.1449,-3.1022,-3.0771,-3.0532,-3.0331,-3.0281,-3.003,-2.9854,-2.9869,-3.0088,-3.0407,-3.0736,-3.1323,-3.1973,-3.2475,-3.2832,-3.3269,-3.3479,-3.3736,-3.4011,-3.4147,-3.4094,-3.3957,-3.3977,-3.3687,-3.3213,-3.2824,-3.2359,-3.2191,-3.1767,-3.1545,-3.1384,-3.1024,-3.0761,-3.0419,-4.2986,-4.2986,-4.2986,-4.2986,-4.2986,-4.2986,-4.2986,-4.2986,-4.2986,-4.2986,-4.2986,-4.2986,-4.2986,-4.2986,-4.2986,-4.2785,-4.2489,-4.2476,-4.2133,-4.163,-4.1605,-4.1317,-4.0827,-4.0588,-4.0325,-3.9973,-3.976,-3.9496,-3.9233,-3.9132,-3.8831,-3.8316,-3.8278,-3.8002,-3.7538,-3.745,-3.7174,-3.6734,-3.6681,-3.6619,-3.6455,-3.6417,-3.6417,-3.6317,-3.5629,-3.5165,-3.4969,-3.4944,-3.4843,-3.4751,-3.468,-3.468,-3.468,-3.468,-3.4517,-3.4223,-3.4173,-3.401,-3.3671,-3.3608,-3.3621,-3.3608,-3.3621,-3.3608,-3.3608,-3.3596,-3.3533,-3.3407,-3.3345,-3.335,-3.3162,-3.3124,-3.3124,-3.3124,-3.3124,-3.3124,-3.3111,-3.2729,-3.2428,-3.219,-3.1888,-3.1599,-3.1386,-3.106,-3.0896,-3.0871,-3.0507,-3.0319,-3.0346,-3.0443,-3.0689,-3.1007,-3.1503,-3.2169,-3.2846,-3.3423,-3.3805,-3.4094,-3.4249,-3.4568,-3.4716,-3.465,-3.4616,-3.4683,-3.4399,-3.3888,-3.3388,-3.2917,-3.2503,-3.2046,-3.1936,-3.1886,-3.1519,-3.1198,-3.0861,-4.2986,-4.2986,-4.2986,-4.2986,-4.2986,-4.2986,-4.2986,-4.2986,-4.2986,-4.2986,-4.2986,-4.2986,-4.2986,-4.2986,-4.2986,-4.2961,-4.2911,-4.2886,-4.269,-4.225,-4.2225,-4.1869,-4.1329,-4.0902,-4.0588,-4.0425,-3.9973,-3.971,-3.9634,-3.9597,-3.9346,-3.9007,-3.8919,-3.858,-3.8015,-3.8002,-3.7739,-3.7299,-3.7186,-3.6948,-3.6518,-3.6556,-3.6543,-3.648,-3.638,-3.6056,-3.552,-3.5508,-3.5295,-3.4901,-3.4839,-3.4763,-3.4864,-3.4876,-3.4776,-3.4751,-3.4726,-3.4713,-3.4618,-3.4555,-3.4492,-3.4537,-3.4605,-3.4505,-3.45,-3.4492,-3.4374,-3.3997,-3.3884,-3.3734,-3.335,-3.3224,-3.3187,-3.3124,-3.3124,-3.3124,-3.3081,-3.3068,-3.2867,-3.2416,-3.2227,-3.2001,-3.1599,-3.1436,-3.1411,-3.1386,-3.1273,-3.1173,-3.1138,-3.1021,-3.1187,-3.159,-3.1925,-3.2372,-3.3149,-3.3888,-3.4278,-3.4631,-3.4783,-3.4983,-3.5049,-3.503,-3.4983,-3.5016,-3.4683,-3.4162,-3.3681,-3.3248,-3.3002,-3.2682,-3.2561,-3.2381,-3.2019,-3.1666,-3.1235,-4.2986,-4.2986,-4.2986,-4.2986,-4.2986,-4.2986,-4.2986,-4.2986,-4.2986,-4.2986,-4.2986,-4.2986,-4.2986,-4.2986,-4.2986,-4.2986,-4.2986,-4.2974,-4.2873,-4.2791,-4.2698,-4.2421,-4.1957,-4.1773,-4.1241,-4.0601,-4.035,-4.0061,-3.9772,-3.971,-3.9584,-3.9471,-3.9446,-3.9145,-3.8617,-3.8592,-3.8316,-3.7826,-3.7751,-3.7651,-3.75,-3.7475,-3.7312,-3.6973,-3.6923,-3.6719,-3.6157,-3.6107,-3.6019,-3.583,-3.5855,-3.5855,-3.5843,-3.5855,-3.568,-3.5295,-3.5232,-3.5044,-3.4731,-3.4705,-3.4718,-3.4705,-3.4705,-3.468,-3.468,-3.4718,-3.4643,-3.4487,-3.4462,-3.4317,-3.4198,-3.3847,-3.3533,-3.3131,-3.3124,-3.3124,-3.3124,-3.3124,-3.3061,-3.2867,-3.2805,-3.2704,-3.2503,-3.2265,-3.1964,-3.1926,-3.1687,-3.1461,-3.1439,-3.1486,-3.1656,-3.2109,-3.2337,-3.2624,-3.3426,-3.407,-3.4462,-3.4808,-3.5016,-3.518,-3.5294,-3.5326,-3.5326,-3.518,-3.485,-3.4481,-3.3991,-3.3681,-3.3507,-3.3333,-3.3192,-3.2895,-3.2525,-3.2164,-3.1813,-4.2986,-4.2986,-4.2986,-4.2986,-4.2986,-4.2986,-4.2986,-4.2986,-4.2986,-4.2986,-4.2986,-4.2986,-4.2986,-4.2986,-4.2986,-4.2986,-4.2986,-4.2986,-4.2986,-4.2986,-4.2986,-4.2773,-4.2502,-4.2288,-4.1706,-4.0978,-4.0814,-4.0651,-4.03,-4.0099,-3.9998,-3.9986,-3.9798,-3.9534,-3.9207,-3.9208,-3.8906,-3.8417,-3.8329,-3.8228,-3.804,-3.8002,-3.7852,-3.7538,-3.75,-3.7312,-3.6998,-3.7021,-3.682,-3.6505,-3.6417,-3.6417,-3.6417,-3.638,-3.6241,-3.5943,-3.5784,-3.5692,-3.5366,-3.5391,-3.5328,-3.5341,-3.5341,-3.5341,-3.5341,-3.5328,-3.5278,-3.5019,-3.4981,-3.4893,-3.47,-3.4437,-3.4035,-3.3746,-3.3307,-3.3162,-3.3124,-3.3124,-3.3124,-3.3086,-3.3099,-3.3124,-3.3023,-3.283,-3.2541,-3.2478,-3.224,-3.2026,-3.2018,-3.1933,-3.2215,-3.2494,-3.2686,-3.3147,-3.3725,-3.4221,-3.4656,-3.4949,-3.5195,-3.5326,-3.5424,-3.5439,-3.5439,-3.5279,-3.5016,-3.4783,-3.4366,-3.4278,-3.4108,-3.3971,-3.3799,-3.3577,-3.3234,-3.2917,-3.2525,-4.2986,-4.2986,-4.2986,-4.2986,-4.2986,-4.2986,-4.2986,-4.2986,-4.2986,-4.2986,-4.2986,-4.2986,-4.2986,-4.2986,-4.2986,-4.2986,-4.2986,-4.2986,-4.2986,-4.2986,-4.2986,-4.2924,-4.2836,-4.2539,-4.1982,-4.1467,-4.1379,-4.1275,-4.1075,-4.0752,-4.0563,-4.0526,-4.0074,-3.976,-3.9722,-3.9722,-3.9396,-3.8969,-3.8906,-3.8668,-3.8228,-3.8178,-3.8115,-3.8065,-3.8052,-3.799,-3.7852,-3.7814,-3.7412,-3.6631,-3.6531,-3.6505,-3.643,-3.6417,-3.6392,-3.6329,-3.638,-3.6355,-3.6367,-3.6229,-3.6254,-3.6229,-3.6229,-3.6405,-3.6254,-3.6179,-3.5994,-3.5642,-3.5545,-3.5357,-3.5027,-3.4801,-3.4693,-3.4575,-3.3771,-3.3312,-3.3144,-3.3174,-3.3124,-3.3124,-3.3124,-3.3124,-3.3124,-3.3074,-3.3061,-3.3048,-3.2943,-3.291,-3.2835,-3.263,-3.265,-3.2836,-3.3104,-3.3614,-3.4179,-3.4831,-3.5224,-3.5512,-3.5637,-3.5601,-3.5549,-3.5504,-3.5472,-3.5326,-3.518,-3.4983,-3.485,-3.4683,-3.4563,-3.4414,-3.4264,-3.4196,-3.3942,-3.3583,-3.3129,-4.2986,-4.2986,-4.2986,-4.2986,-4.2986,-4.2986,-4.2986,-4.2986,-4.3011,-4.3062,-4.3011,-4.2986,-4.3049,-4.2986,-4.3011,-4.2986,-4.3049,-4.3024,-4.2986,-4.2986,-4.2986,-4.2986,-4.2974,-4.2836,-4.2472,-4.2007,-4.1919,-4.1731,-4.13,-4.1163,-4.1062,-4.105,-4.0588,-4.03,-4.0262,-3.9923,-3.9647,-3.9496,-3.9471,-3.9396,-3.9245,-3.9195,-3.9044,-3.8668,-3.8642,-3.8442,-3.8078,-3.8002,-3.7701,-3.7061,-3.6973,-3.6759,-3.6518,-3.648,-3.6518,-3.6505,-3.6443,-3.643,-3.643,-3.6417,-3.6417,-3.6417,-3.6417,-3.6417,-3.6417,-3.6417,-3.6329,-3.6144,-3.6144,-3.6081,-3.5868,-3.5554,-3.5157,-3.4713,-3.4161,-3.3721,-3.3633,-3.3332,-3.3124,-3.3124,-3.3149,-3.3162,-3.3124,-3.3124,-3.3124,-3.3124,-3.3124,-3.3124,-3.3048,-3.3011,-3.2916,-3.3303,-3.3677,-3.4126,-3.4635,-3.5337,-3.5826,-3.6175,-3.6172,-3.5995,-3.5774,-3.5504,-3.5504,-3.5439,-3.5279,-3.5115,-3.5034,-3.4935,-3.4835,-3.4783,-3.475,-3.4635,-3.4467,-3.4147,-3.3667,-4.2986,-4.2986,-4.2986,-4.3112,-4.3313,-4.3325,-4.3451,-4.3652,-4.3664,-4.3664,-4.3664,-4.3664,-4.3677,-4.3664,-4.3677,-4.3677,-4.3677,-4.3677,-4.3689,-4.3627,-4.3451,-4.3225,-4.3049,-4.2974,-4.2798,-4.2602,-4.2552,-4.2346,-4.2045,-4.1806,-4.1693,-4.158,-4.1128,-4.0865,-4.0774,-4.0325,-4.0036,-3.9986,-3.9848,-3.9697,-3.9697,-3.9697,-3.9546,-3.9258,-3.922,-3.9019,-3.8755,-3.8718,-3.8366,-3.7726,-3.7513,-3.7374,-3.7098,-3.7048,-3.7096,-3.7084,-3.6847,-3.6757,-3.6694,-3.6556,-3.6417,-3.6417,-3.6417,-3.6417,-3.6417,-3.6417,-3.6417,-3.6392,-3.6417,-3.6417,-3.6355,-3.6056,-3.5768,-3.5466,-3.4914,-3.4467,-3.4286,-3.3997,-3.3684,-3.352,-3.342,-3.3307,-3.3144,-3.3136,-3.3124,-3.3124,-3.3124,-3.3124,-3.3111,-3.3124,-3.3227,-3.3542,-3.397,-3.4392,-3.4997,-3.5709,-3.6245,-3.6593,-3.6842,-3.6608,-3.6043,-3.5669,-3.5564,-3.5547,-3.5422,-3.5311,-3.5246,-3.5213,-3.5228,-3.5162,-3.5148,-3.5082,-3.485,-3.4601,-3.4147,-4.2986,-4.2986,-4.3037,-4.335,-4.3809,-4.3922,-4.4186,-4.4588,-4.4576,-4.4531,-4.4518,-4.4581,-4.4455,-4.4618,-4.4405,-4.4556,-4.4556,-4.4443,-4.4505,-4.4355,-4.4091,-4.3689,-4.335,-4.3062,-4.2961,-4.2898,-4.2961,-4.2924,-4.271,-4.2451,-4.2313,-4.2108,-4.1693,-4.1401,-4.1263,-4.0877,-4.0639,-4.0526,-4.0249,-4.0074,-4.0023,-3.9961,-3.9848,-3.9798,-3.9622,-3.9609,-3.9559,-3.9546,-3.9182,-3.8228,-3.8128,-3.8027,-3.799,-3.7965,-3.7952,-3.7839,-3.7487,-3.7274,-3.7211,-3.6933,-3.6669,-3.6719,-3.6694,-3.6581,-3.6694,-3.6681,-3.6593,-3.6593,-3.6468,-3.6417,-3.6405,-3.638,-3.6317,-3.6153,-3.5793,-3.5357,-3.5014,-3.4788,-3.4525,-3.4085,-3.3985,-3.3721,-3.337,-3.3156,-3.3187,-3.3124,-3.3124,-3.3124,-3.3124,-3.3124,-3.3313,-3.3602,-3.4087,-3.4574,-3.526,-3.6011,-3.653,-3.698,-3.7371,-3.7255,-3.6432,-3.6013,-3.5789,-3.5651,-3.5589,-3.5514,-3.5424,-3.5424,-3.5439,-3.5439,-3.5326,-3.5294,-3.5228,-3.4949,-3.4568,-4.2986,-4.3011,-4.3451,-4.386,-4.4206,-4.4611,-4.4877,-4.5016,-4.5003,-4.4964,-4.4644,-4.4644,-4.4669,-4.4656,-4.4661,-4.4618,-4.4719,-4.4661,-4.4618,-4.4606,-4.4543,-4.4405,-4.4053,-4.3489,-4.3037,-4.3024,-4.2999,-4.2986,-4.2911,-4.2904,-4.2854,-4.2698,-4.2258,-4.2049,-4.1907,-4.1455,-4.1112,-4.1087,-4.0949,-4.0849,-4.0789,-4.0513,-4.0337,-4.0312,-3.9948,-3.9722,-3.9697,-3.9697,-3.9572,-3.9295,-3.8919,-3.8517,-3.8216,-3.8103,-3.8115,-3.809,-3.7977,-3.7839,-3.7789,-3.7676,-3.7638,-3.7538,-3.75,-3.7651,-3.7613,-3.7211,-3.7048,-3.6923,-3.6681,-3.6543,-3.6468,-3.643,-3.6417,-3.6355,-3.6267,-3.6094,-3.5893,-3.5253,-3.4801,-3.46,-3.4525,-3.4349,-3.3822,-3.3734,-3.3558,-3.3262,-3.3174,-3.3149,-3.3162,-3.3199,-3.3406,-3.3734,-3.4178,-3.4721,-3.5599,-3.6438,-3.7195,-3.7579,-3.7961,-3.8123,-3.7285,-3.6596,-3.6447,-3.6133,-3.5804,-3.5699,-3.5579,-3.5489,-3.5472,-3.5489,-3.5489,-3.5424,-3.5359,-3.5162,-3.4916,-4.3141,-4.3092,-4.3746,-4.4295,-4.4726,-4.5431,-4.5859,-4.6004,-4.5951,-4.5775,-4.5645,-4.5468,-4.5409,-4.5409,-4.5422,-4.5434,-4.5422,-4.5422,-4.5422,-4.5372,-4.5196,-4.5033,-4.4882,-4.4204,-4.3652,-4.3401,-4.3087,-4.2999,-4.2986,-4.2986,-4.2949,-4.2974,-4.2715,-4.2615,-4.2514,-4.1995,-4.1743,-4.1643,-4.1455,-4.1275,-4.1213,-4.1025,-4.0849,-4.0802,-4.0388,-4.0086,-4.0099,-3.981,-3.9722,-3.9622,-3.9408,-3.9183,-3.8868,-3.8781,-3.8793,-3.8781,-3.8517,-3.8442,-3.8391,-3.8165,-3.7965,-3.8027,-3.8002,-3.8002,-3.7977,-3.7713,-3.76,-3.7513,-3.7312,-3.7121,-3.682,-3.6505,-3.6455,-3.6417,-3.6417,-3.6417,-3.6304,-3.583,-3.5366,-3.5215,-3.5069,-3.4813,-3.4525,-3.4336,-3.4223,-3.3972,-3.396,-3.3909,-3.3633,-3.3663,-3.3614,-3.3879,-3.4269,-3.4909,-3.5843,-3.6852,-3.7947,-3.8377,-3.8686,-3.879,-3.8467,-3.7793,-3.721,-3.6761,-3.6282,-3.5833,-3.5684,-3.5594,-3.5534,-3.5489,-3.5489,-3.5489,-3.5392,-3.5162,-3.4949,-4.3346,-4.3262,-4.4098,-4.477,-4.5489,-4.6296,-4.6933,-4.726,-4.7066,-4.6773,-4.6733,-4.6434,-4.6137,-4.6263,-4.6225,-4.6288,-4.6263,-4.6238,-4.6112,-4.6075,-4.5761,-4.5623,-4.5447,-4.4982,-4.4493,-4.4016,-4.3463,-4.32,-4.3137,-4.3011,-4.2986,-4.303,-4.2974,-4.2886,-4.2811,-4.2615,-4.2338,-4.2221,-4.1944,-4.1689,-4.1668,-4.1568,-4.143,-4.1125,-4.0862,-4.0651,-4.0576,-4.0312,-4.0011,-3.9936,-3.9873,-3.9823,-3.9798,-3.971,-3.9697,-3.9634,-3.9195,-3.9019,-3.8931,-3.8642,-3.8379,-3.8253,-3.8291,-3.8304,-3.8329,-3.8241,-3.8153,-3.809,-3.7939,-3.7713,-3.7337,-3.7084,-3.6744,-3.6606,-3.6556,-3.6493,-3.6417,-3.6417,-3.6044,-3.5793,-3.5642,-3.5416,-3.509,-3.4806,-3.4801,-3.4751,-3.4738,-3.467,-3.4369,-3.4135,-3.4186,-3.422,-3.4609,-3.5386,-3.6336,-3.7197,-3.8316,-3.8723,-3.9109,-3.9203,-3.9194,-3.8766,-3.8033,-3.7285,-3.6761,-3.6342,-3.6013,-3.5923,-3.5818,-3.5624,-3.5489,-3.5457,-3.5326,-3.5148,-3.4931,-4.3921,-4.4124,-4.4726,-4.563,-4.663,-4.7503,-4.7893,-4.7984,-4.7645,-4.7244,-4.6793,-4.6434,-4.6313,-4.6313,-4.6313,-4.6313,-4.6313,-4.6313,-4.6313,-4.6313,-4.6137,-4.61,-4.5974,-4.5598,-4.5259,-4.4945,-4.4254,-4.3752,-4.3551,-4.3237,-4.32,-4.3049,-4.3074,-4.3087,-4.3049,-4.2873,-4.2811,-4.2735,-4.2597,-4.2534,-4.2459,-4.2195,-4.1856,-4.1489,-4.1263,-4.1163,-4.1137,-4.1116,-4.1065,-4.1028,-4.0626,-4.0425,-4.0287,-3.9986,-3.976,-3.9659,-3.9572,-3.9446,-3.9421,-3.9421,-3.9383,-3.9421,-3.9308,-3.932,-3.9245,-3.8994,-3.8768,-3.8605,-3.8329,-3.7977,-3.7889,-3.7651,-3.7462,-3.7211,-3.7071,-3.692,-3.6593,-3.6468,-3.6417,-3.6157,-3.6107,-3.6031,-3.5667,-3.5424,-3.5349,-3.5398,-3.5459,-3.5377,-3.513,-3.4944,-3.4891,-3.4953,-3.5059,-3.5926,-3.69,-3.7696,-3.856,-3.8819,-3.9111,-3.9307,-3.9313,-3.9349,-3.8841,-3.8108,-3.7464,-3.7015,-3.6701,-3.6402,-3.6144,-3.5992,-3.5738,-3.5499,-3.5329,-3.5233,-3.4842,-4.4636,-4.4827,-4.5322,-4.616,-4.7189,-4.8053,-4.8489,-4.836,-4.7938,-4.7468,-4.7006,-4.6541,-4.6313,-4.6313,-4.6313,-4.6313,-4.6313,-4.6313,-4.6313,-4.6313,-4.6313,-4.6313,-4.6313,-4.5999,-4.5949,-4.5698,-4.5083,-4.4468,-4.4229,-4.4003,-4.3777,-4.3853,-4.3827,-4.3702,-4.3463,-4.3413,-4.3237,-4.3099,-4.2999,-4.2986,-4.2986,-4.2728,-4.2409,-4.2221,-4.1894,-4.1769,-4.1718,-4.1376,-4.1275,-4.1213,-4.1025,-4.0912,-4.0789,-4.045,-4.0011,-3.9798,-3.971,-3.9697,-3.9697,-3.9697,-3.9659,-3.9672,-3.9697,-3.9697,-3.9647,-3.9446,-3.927,-3.9157,-3.8818,-3.8454,-3.8454,-3.8228,-3.7889,-3.7701,-3.76,-3.7349,-3.7021,-3.6857,-3.6707,-3.6543,-3.638,-3.6279,-3.6166,-3.5999,-3.5957,-3.6016,-3.6118,-3.6076,-3.5962,-3.6002,-3.6004,-3.6122,-3.6318,-3.6844,-3.7646,-3.8234,-3.8693,-3.8922,-3.9141,-3.9316,-3.9388,-3.9409,-3.9334,-3.8945,-3.8347,-3.7719,-3.7285,-3.6956,-3.6664,-3.6384,-3.6301,-3.613,-3.5632,-3.5238,-3.4879,-4.5441,-4.564,-4.6039,-4.6795,-4.7806,-4.8452,-4.8779,-4.8619,-4.7997,-4.7514,-4.7146,-4.6588,-4.6313,-4.6313,-4.6313,-4.6313,-4.6313,-4.6313,-4.6313,-4.6313,-4.6313,-4.6313,-4.6313,-4.6313,-4.6263,-4.6137,-4.5849,-4.5347,-4.4857,-4.4568,-4.4581,-4.448,-4.4568,-4.4443,-4.4053,-4.3966,-4.3614,-4.3313,-4.3137,-4.3112,-4.3011,-4.2986,-4.2986,-4.2974,-4.2602,-4.2363,-4.2338,-4.202,-4.1819,-4.1743,-4.1618,-4.1505,-4.1417,-4.0978,-4.0488,-4.0099,-3.9848,-3.971,-3.9697,-3.9697,-3.9697,-3.9697,-3.9697,-3.9697,-3.9697,-3.9659,-3.9647,-3.9609,-3.9346,-3.9032,-3.8981,-3.8655,-3.8366,-3.8191,-3.8153,-3.799,-3.7563,-3.7287,-3.7061,-3.686,-3.6656,-3.6468,-3.6367,-3.6454,-3.6349,-3.6721,-3.6823,-3.7273,-3.7245,-3.7502,-3.7537,-3.7588,-3.7771,-3.8046,-3.8515,-3.8806,-3.9055,-3.901,-3.9192,-3.9388,-3.9388,-3.9388,-3.9313,-3.9275,-3.9035,-3.8437,-3.7938,-3.7485,-3.7173,-3.6995,-3.6976,-3.6604,-3.5936,-3.5363,-3.4918,-4.6572,-4.7025,-4.6869,-4.7585,-4.8771,-4.9014,-4.9068,-4.8939,-4.8114,-4.7501,-4.7146,-4.6588,-4.6313,-4.6313,-4.6313,-4.6313,-4.6313,-4.6313,-4.6313,-4.6313,-4.6313,-4.6313,-4.6313,-4.6313,-4.6313,-4.6301,-4.6213,-4.5899,-4.5434,-4.4957,-4.4731,-4.4756,-4.4807,-4.4593,-4.4568,-4.4531,-4.4229,-4.3802,-4.3702,-4.3489,-4.3099,-4.3037,-4.3037,-4.2961,-4.2886,-4.2798,-4.2785,-4.2622,-4.2622,-4.261,-4.2258,-4.2082,-4.1982,-4.1555,-4.1291,-4.0877,-4.035,-3.9697,-3.976,-3.9798,-3.9722,-3.9722,-3.9697,-3.9697,-3.9697,-3.9697,-3.9697,-3.9697,-3.9584,-3.9521,-3.9496,-3.9471,-3.922,-3.8956,-3.8743,-3.8454,-3.8065,-3.7902,-3.7663,-3.7249,-3.6998,-3.6757,-3.6603,-3.6691,-3.679,-3.7188,-3.7638,-3.8121,-3.8586,-3.8836,-3.8986,-3.9046,-3.9093,-3.9373,-3.9397,-3.9658,-3.9691,-3.9483,-3.9444,-3.9553,-3.9553,-3.9568,-3.9388,-3.9298,-3.9185,-3.902,-3.8542,-3.8077,-3.7743,-3.7473,-3.7269,-3.6734,-3.6064,-3.5532,-3.4992,-4.8236,-4.8233,-4.7974,-4.8509,-4.9546,-4.9613,-4.9398,-4.901,-4.8463,-4.7808,-4.7218,-4.6768,-4.6494,-4.6373,-4.6313,-4.6313,-4.6313,-4.6313,-4.6313,-4.6313,-4.6313,-4.6313,-4.6313,-4.6313,-4.6313,-4.6313,-4.6301,-4.6225,-4.5874,-4.5736,-4.5585,-4.5535,-4.5522,-4.5434,-4.5158,-4.5108,-4.4769,-4.4418,-4.4229,-4.3978,-4.3601,-4.3426,-4.33,-4.3011,-4.2999,-4.2999,-4.2986,-4.2986,-4.2986,-4.2949,-4.2685,-4.2678,-4.2497,-4.2145,-4.1794,-4.1718,-4.1091,-4.0538,-4.0237,-4.0174,-4.0023,-3.9772,-3.9722,-3.9697,-3.9697,-3.9697,-3.9697,-3.9697,-3.9697,-3.9697,-3.9697,-3.9697,-3.9572,-3.9396,-3.9245,-3.8969,-3.8655,-3.8542,-3.8304,-3.7839,-3.7448,-3.7245,-3.7051,-3.7057,-3.7245,-3.7638,-3.8277,-3.897,-3.9681,-4.0306,-4.0391,-4.0478,-4.0532,-4.0621,-4.0499,-4.0588,-4.0619,-4.0442,-4.0047,-4.0098,-3.9933,-3.9828,-3.9687,-3.9493,-3.9364,-3.9185,-3.896,-3.8677,-3.832,-3.7922,-3.7485,-3.6835,-3.6199,-3.5606,-3.4927,-4.9882,-4.9718,-4.9202,-4.9542,-5.0251,-5.0165,-4.984,-4.9341,-4.8811,-4.8159,-4.7527,-4.7019,-4.6614,-4.6434,-4.6373,-4.6313,-4.6313,-4.6313,-4.6313,-4.6313,-4.6313,-4.6313,-4.6313,-4.6313,-4.6313,-4.6313,-4.6313,-4.6276,-4.6288,-4.6238,-4.6188,-4.6313,-4.6137,-4.6037,-4.5799,-4.5648,-4.5409,-4.4895,-4.4656,-4.4367,-4.4079,-4.4003,-4.3677,-4.3376,-4.3175,-4.318,-4.2999,-4.2986,-4.2986,-4.2974,-4.2949,-4.2898,-4.2836,-4.2585,-4.2426,-4.2283,-4.1894,-4.1517,-4.1116,-4.0827,-4.0526,-4.0224,-3.9923,-3.9986,-3.9936,-3.9835,-3.9697,-3.9697,-3.9697,-3.9697,-3.9697,-3.9697,-3.9659,-3.9634,-3.9622,-3.9396,-3.9195,-3.9044,-3.8831,-3.8417,-3.8052,-3.786,-3.7701,-3.7552,-3.7679,-3.807,-3.8819,-3.9749,-4.056,-4.1366,-4.1621,-4.1613,-4.1664,-4.1632,-4.1468,-4.1433,-4.1479,-4.1323,-4.0913,-4.0696,-4.0576,-4.0367,-4.0202,-3.9963,-3.9679,-3.9454,-3.929,-3.9096,-3.8892,-3.8289,-3.7655,-3.695,-3.6301,-3.5687,-3.4802,-5.1145,-5.1722,-5.0634,-5.0581,-5.1183,-5.0586,-5.0264,-4.9897,-4.9028,-4.8521,-4.8055,-4.7257,-4.6913,-4.6746,-4.6494,-4.6373,-4.6313,-4.6313,-4.6313,-4.6313,-4.6313,-4.6313,-4.6313,-4.6313,-4.6313,-4.6313,-4.6313,-4.6313,-4.6313,-4.6313,-4.6313,-4.6313,-4.6313,-4.6288,-4.62,-4.6087,-4.5899,-4.5422,-4.5083,-4.4782,-4.4618,-4.4518,-4.4292,-4.3865,-4.3702,-4.3526,-4.3037,-4.3062,-4.3011,-4.3011,-4.2986,-4.2986,-4.2949,-4.2861,-4.2773,-4.2723,-4.2685,-4.2333,-4.1969,-4.1517,-4.1225,-4.1025,-4.0789,-4.0463,-4.045,-3.9998,-3.9798,-3.981,-3.986,-3.976,-3.9735,-3.9697,-3.9697,-3.9697,-3.9697,-3.9622,-3.9496,-3.9521,-3.9283,-3.8931,-3.8642,-3.839,-3.8405,-3.8271,-3.8342,-3.8707,-3.9692,-4.0645,-4.1423,-4.2129,-4.2496,-4.2628,-4.2697,-4.2634,-4.233,-4.2228,-4.213,-4.1852,-4.1503,-4.1376,-4.1309,-4.1055,-4.0666,-4.0457,-4.0202,-3.9903,-3.9568,-3.926,-3.8878,-3.8404,-3.7791,-3.7028,-3.6129,-3.5331,-3.4431,-5.1595,-5.2437,-5.1973,-5.1935,-5.2099,-5.1853,-5.132,-5.0558,-5.0165,-4.9472,-4.874,-4.7997,-4.7527,-4.7244,-4.6853,-4.6614,-4.6554,-4.6386,-4.6313,-4.6313,-4.6313,-4.6313,-4.6313,-4.6313,-4.6313,-4.6313,-4.6313,-4.6313,-4.6313,-4.6313,-4.6313,-4.6313,-4.6313,-4.6313,-4.6313,-4.6313,-4.6163,-4.6037,-4.5736,-4.5535,-4.5183,-4.5133,-4.4882,-4.4367,-4.4305,-4.4016,-4.3589,-4.3501,-4.3288,-4.3087,-4.3011,-4.2986,-4.2986,-4.2986,-4.2986,-4.2986,-4.2986,-4.2848,-4.2678,-4.2133,-4.1731,-4.1288,-4.1075,-4.1028,-4.1015,-4.0777,-4.0501,-4.0375,-4.0199,-4.0149,-3.976,-3.971,-3.9697,-3.9697,-3.9722,-3.9747,-3.9697,-3.9697,-3.9647,-3.9258,-3.902,-3.8831,-3.8899,-3.9007,-3.9165,-3.9438,-4.0491,-4.1479,-4.2216,-4.2648,-4.2915,-4.3076,-4.3115,-4.3155,-4.2856,-4.2742,-4.2688,-4.2389,-4.21,-4.2049,-4.1899,-4.1444,-4.11,-4.0905,-4.0726,-4.0427,-4.0009,-3.9408,-3.8922,-3.8545,-3.7839,-3.7028,-3.607,-3.5032,-3.4201,-5.2076,-5.293,-5.3119,-5.3099,-5.2992,-5.289,-5.2301,-5.1499,-5.132,-5.0656,-4.9586,-4.8886,-4.8321,-4.7867,-4.7244,-4.6853,-4.6733,-4.6494,-4.6313,-4.6313,-4.6313,-4.6313,-4.6313,-4.6313,-4.6313,-4.6313,-4.6313,-4.6313,-4.6313,-4.6313,-4.6313,-4.6313,-4.6313,-4.6313,-4.6313,-4.6313,-4.6313,-4.6313,-4.6276,-4.6175,-4.5748,-4.5711,-4.546,-4.4982,-4.4882,-4.4593,-4.4129,-4.3853,-4.3576,-4.3313,-4.3124,-4.2999,-4.2986,-4.2986,-4.2986,-4.2986,-4.2986,-4.2986,-4.2861,-4.2635,-4.2233,-4.2007,-4.1681,-4.1618,-4.1555,-4.1455,-4.1015,-4.0827,-4.0752,-4.0588,-4.0149,-4.0312,-4.0174,-4.0199,-4.0086,-4.0061,-3.9785,-3.9697,-3.9697,-3.9572,-3.9384,-3.9285,-3.9647,-3.9904,-4.0468,-4.0709,-4.1462,-4.2304,-4.2814,-4.3131,-4.313,-4.325,-4.325,-4.329,-4.3275,-4.3046,-4.2832,-4.2897,-4.2682,-4.2623,-4.2438,-4.2028,-4.1767,-4.1662,-4.1422,-4.098,-4.0659,-4.0293,-3.9528,-3.8708,-3.7839,-3.6886,-3.5897,-3.4895,-3.4272,-5.2561,-5.3249,-5.3877,-5.4018,-5.3823,-5.3629,-5.3155,-5.2516,-5.2247,-5.169,-5.0767,-4.9899,-4.9173,-4.8553,-4.7736,-4.7172,-4.678,-4.6481,-4.6313,-4.6313,-4.6313,-4.6313,-4.6313,-4.6313,-4.6313,-4.6313,-4.6313,-4.6313,-4.6313,-4.6313,-4.6313,-4.6313,-4.6313,-4.6313,-4.6313,-4.6313,-4.6313,-4.6313,-4.6313,-4.6263,-4.6213,-4.6163,-4.5861,-4.5598,-4.546,-4.5183,-4.4694,-4.4305,-4.4053,-4.3802,-4.3325,-4.315,-4.3112,-4.3011,-4.2986,-4.2986,-4.2986,-4.2986,-4.2961,-4.2936,-4.2811,-4.2672,-4.2296,-4.2145,-4.2087,-4.1769,-4.1467,-4.1367,-4.1317,-4.1238,-4.1175,-4.1125,-4.084,-4.0651,-4.0538,-4.0337,-4.0086,-3.9885,-3.9923,-3.9747,-3.9749,-3.9815,-4.0272,-4.0808,-4.1579,-4.2161,-4.2667,-4.3135,-4.3534,-4.3593,-4.3578,-4.3389,-4.3389,-4.317,-4.313,-4.3036,-4.2991,-4.314,-4.3175,-4.2986,-4.3011,-4.2826,-4.2611,-4.244,-4.2066,-4.1662,-4.1459,-4.1309,-4.0307,-3.9186,-3.7691,-3.6624,-3.5656,-3.4867,-3.4327,-5.2576,-5.3234,-5.3922,-5.443,-5.4677,-5.4466,-5.4023,-5.3486,-5.317,-5.2691,-5.1976,-5.1238,-5.0363,-4.9472,-4.8321,-4.756,-4.704,-4.6481,-4.6313,-4.6313,-4.6313,-4.6313,-4.6313,-4.6313,-4.6313,-4.6313,-4.6313,-4.6313,-4.6313,-4.6313,-4.6313,-4.6313,-4.6313,-4.6313,-4.6313,-4.6313,-4.6313,-4.6313,-4.6313,-4.6313,-4.6313,-4.6301,-4.6213,-4.5999,-4.5987,-4.5723,-4.5234,-4.4895,-4.4656,-4.433,-4.3815,-4.3539,-4.3426,-4.3313,-4.3024,-4.2999,-4.3042,-4.2986,-4.2986,-4.2974,-4.2974,-4.2954,-4.2866,-4.269,-4.2635,-4.2559,-4.2271,-4.1969,-4.1894,-4.1743,-4.1417,-4.1288,-4.1087,-4.1075,-4.0949,-4.0699,-4.0513,-4.035,-4.0237,-3.9873,-3.9749,-4.0096,-4.0515,-4.1125,-4.1922,-4.2879,-4.3391,-4.379,-4.4211,-4.4113,-4.4012,-4.3681,-4.3467,-4.3159,-4.293,-4.2839,-4.285,-4.2955,-4.3076,-4.3096,-4.3165,-4.321,-4.3145,-4.2772,-4.2527,-4.2321,-4.2034,-4.1605,-4.0746,-3.9618,-3.8351,-3.708,-3.6123,-3.5345,-3.4714,-5.2785,-5.3279,-5.4162,-5.479,-5.5164,-5.4991,-5.4619,-5.4178,-5.3919,-5.3448,-5.2851,-5.2233,-5.1362,-5.0208,-4.9072,-4.8029,-4.7383,-4.678,-4.6313,-4.6313,-4.6313,-4.6313,-4.6313,-4.6313,-4.6313,-4.6313,-4.6313,-4.6313,-4.6313,-4.6313,-4.6313,-4.6313,-4.6313,-4.6313,-4.6313,-4.6313,-4.6313,-4.6313,-4.6313,-4.6313,-4.6313,-4.6313,-4.6313,-4.6276,-4.6238,-4.61,-4.5824,-4.5573,-4.5334,-4.4857,-4.4455,-4.4104,-4.3928,-4.3627,-4.33,-4.3263,-4.3049,-4.3024,-4.2986,-4.2986,-4.2986,-4.2961,-4.2986,-4.2986,-4.2986,-4.2873,-4.2791,-4.259,-4.2489,-4.2246,-4.1957,-4.1844,-4.1769,-4.1769,-4.1543,-4.1304,-4.094,-4.0777,-4.0463,-4.0086,-3.9774,-4.0211,-4.0643,-4.1408,-4.2088,-4.3078,-4.4032,-4.4426,-4.4773,-4.4596,-4.4415,-4.403,-4.357,-4.3166,-4.282,-4.2547,-4.264,-4.2784,-4.2795,-4.2835,-4.2955,-4.297,-4.305,-4.3076,-4.2738,-4.2471,-4.2346,-4.1867,-4.1148,-4.0353,-3.9392,-3.8104,-3.6751,-3.5899,-3.5204,-5.3159,-5.3369,-5.461,-5.5134,-5.5194,-5.5194,-5.5042,-5.4788,-5.4487,-5.3993,-5.3515,-5.2957,-5.203,-5.0823,-4.9643,-4.8611,-4.769,-4.7019,-4.6614,-4.6373,-4.6313,-4.6313,-4.6313,-4.6313,-4.6313,-4.6313,-4.6313,-4.6313,-4.6313,-4.6313,-4.6313,-4.6313,-4.6313,-4.6313,-4.6313,-4.6313,-4.6313,-4.6313,-4.6313,-4.6313,-4.6313,-4.6313,-4.6313,-4.6313,-4.6288,-4.6276,-4.6062,-4.5849,-4.5648,-4.5321,-4.497,-4.4756,-4.448,-4.4129,-4.3928,-4.3689,-4.3338,-4.3162,-4.3099,-4.3112,-4.2986,-4.2986,-4.2986,-4.2986,-4.2986,-4.2986,-4.2898,-4.2861,-4.2798,-4.2861,-4.2823,-4.2698,-4.2572,-4.2421,-4.2263,-4.1844,-4.1404,-4.1078,-4.0739,-4.035,-3.991,-4.0056,-4.0466,-4.1134,-4.1918,-4.2999,-4.3957,-4.4836,-4.5099,-4.5004,-4.472,-4.4319,-4.3812,-4.3191,-4.2774,-4.226,-4.2082,-4.2133,-4.2254,-4.2322,-4.2526,-4.2729,-4.2809,-4.2809,-4.2729,-4.2581,-4.2415,-4.2084,-4.1601,-4.0814,-3.9939,-3.8999,-3.7608,-3.6524,-3.569,-5.2755,-5.3264,-5.4132,-5.476,-5.5164,-5.5194,-5.5158,-5.5078,-5.4976,-5.4722,-5.4363,-5.3815,-5.273,-5.1416,-5.0251,-4.8988,-4.7925,-4.7138,-4.6673,-4.6434,-4.6373,-4.6313,-4.6313,-4.6313,-4.6313,-4.6313,-4.6313,-4.6313,-4.6313,-4.6313,-4.6313,-4.6313,-4.6313,-4.6313,-4.6313,-4.6313,-4.6313,-4.6313,-4.6313,-4.6263,-4.6263,-4.6238,-4.6225,-4.6175,-4.615,-4.6163,-4.6125,-4.6075,-4.5962,-4.5937,-4.551,-4.5259,-4.5196,-4.4731,-4.438,-4.433,-4.3928,-4.3576,-4.3501,-4.32,-4.3024,-4.3037,-4.2999,-4.2986,-4.2986,-4.2986,-4.2986,-4.2986,-4.2986,-4.2986,-4.2986,-4.2924,-4.2873,-4.2803,-4.2627,-4.2346,-4.1944,-4.1643,-4.1266,-4.0614,-4.0174,-4.0041,-4.0428,-4.0795,-4.162,-4.2709,-4.3754,-4.4695,-4.534,-4.5245,-4.4967,-4.4574,-4.3819,-4.3083,-4.2249,-4.1649,-4.1525,-4.1496,-4.1636,-4.1886,-4.2131,-4.2377,-4.2541,-4.2541,-4.2377,-4.2418,-4.247,-4.2044,-4.1456,-4.1044,-4.0273,-3.9437,-3.8525,-3.7359,-3.6282,-5.2591,-5.3234,-5.3922,-5.4596,-5.5119,-5.5194,-5.5194,-5.5194,-5.5194,-5.5042,-5.4737,-5.4141,-5.3208,-5.2016,-5.0865,-4.9629,-4.8334,-4.7716,-4.7138,-4.6614,-4.6494,-4.6434,-4.6373,-4.6313,-4.6313,-4.6313,-4.6313,-4.6313,-4.6313,-4.6313,-4.6313,-4.6313,-4.6313,-4.6313,-4.6313,-4.6313,-4.6313,-4.6313,-4.6288,-4.6175,-4.6087,-4.5999,-4.5874,-4.5723,-4.5686,-4.5786,-4.5974,-4.5987,-4.6075,-4.6263,-4.5899,-4.5824,-4.5723,-4.5296,-4.4769,-4.4644,-4.4355,-4.4141,-4.4053,-4.3614,-4.3401,-4.3237,-4.3112,-4.2986,-4.2986,-4.2986,-4.2986,-4.2986,-4.2986,-4.2986,-4.2986,-4.2986,-4.2974,-4.2961,-4.2886,-4.2823,-4.2547,-4.2326,-4.1668,-4.0965,-4.0566,-4.0331,-4.0478,-4.0708,-4.1272,-4.2333,-4.33,-4.4186,-4.4949,-4.5369,-4.5077,-4.4707,-4.374,-4.284,-4.2015,-4.1207,-4.1041,-4.1,-4.1078,-4.1326,-4.1707,-4.1841,-4.1868,-4.1951,-4.2007,-4.2007,-4.1924,-4.1646,-4.1167,-4.0715,-4.0294,-3.955,-3.8753,-3.792,-3.6922,-5.2531,-5.3249,-5.3982,-5.4655,-5.5149,-5.5194,-5.5194,-5.5194,-5.5194,-5.5027,-5.4737,-5.4178,-5.3471,-5.2555,-5.1485,-5.032,-4.9186,-4.8392,-4.754,-4.6853,-4.6733,-4.6614,-4.6373,-4.6313,-4.6313,-4.6313,-4.6313,-4.6313,-4.6313,-4.6313,-4.6313,-4.6313,-4.6313,-4.6313,-4.6313,-4.6313,-4.6313,-4.6313,-4.6238,-4.6112,-4.5698,-4.546,-4.5234,-4.4807,-4.4794,-4.4907,-4.5284,-4.551,-4.5648,-4.5987,-4.62,-4.6125,-4.6062,-4.5836,-4.5309,-4.5008,-4.4819,-4.4719,-4.4556,-4.4179,-4.394,-4.3689,-4.3376,-4.3225,-4.32,-4.3024,-4.2986,-4.2986,-4.2986,-4.2986,-4.2986,-4.2986,-4.2986,-4.2986,-4.2949,-4.2911,-4.2798,-4.2514,-4.1944,-4.1329,-4.0965,-4.0719,-4.051,-4.0811,-4.1051,-4.201,-4.2784,-4.3648,-4.4308,-4.4992,-4.4858,-4.4478,-4.3571,-4.254,-4.1571,-4.0911,-4.0613,-4.0558,-4.0644,-4.0761,-4.1094,-4.1156,-4.11,-4.1311,-4.1577,-4.1311,-4.1184,-4.093,-4.0702,-4.0304,-3.9861,-3.9492,-3.8857,-3.8071,-3.7527,-5.2127,-5.3294,-5.4461,-5.5059,-5.5179,-5.5194,-5.5194,-5.5194,-5.5194,-5.5143,-5.4976,-5.4487,-5.389,-5.3155,-5.2099,-5.0989,-4.9913,-4.9072,-4.8029,-4.729,-4.7019,-4.6733,-4.6373,-4.6313,-4.6313,-4.6313,-4.6313,-4.6313,-4.6313,-4.6313,-4.6313,-4.6313,-4.6313,-4.6313,-4.6313,-4.6313,-4.6313,-4.6313,-4.6276,-4.6024,-4.5573,-4.5409,-4.5221,-4.4782,-4.4618,-4.4581,-4.4819,-4.4857,-4.4895,-4.5045,-4.5485,-4.5836,-4.625,-4.6137,-4.605,-4.5861,-4.5472,-4.5321,-4.5121,-4.4794,-4.4493,-4.4267,-4.3991,-4.374,-4.3489,-4.3175,-4.3055,-4.2999,-4.2986,-4.2986,-4.2986,-4.2986,-4.2986,-4.2986,-4.2986,-4.2986,-4.2986,-4.2585,-4.2145,-4.1819,-4.1442,-4.1119,-4.0847,-4.0847,-4.1093,-4.1581,-4.219,-4.2902,-4.3457,-4.4045,-4.3998,-4.3626,-4.3163,-4.2212,-4.1227,-4.0658,-4.0407,-4.0232,-4.0275,-4.0394,-4.0532,-4.0759,-4.0984,-4.1015,-4.1085,-4.093,-4.0716,-4.043,-4.0126,-3.9706,-3.9264,-3.8787,-3.8427,-3.7778,-3.7559,-5.1813,-5.2875,-5.4192,-5.4925,-5.5164,-5.5194,-5.5194,-5.5194,-5.5194,-5.5194,-5.5143,-5.4707,-5.4267,-5.3785,-5.2798,-5.1813,-5.074,-4.9843,-4.8886,-4.8042,-4.7349,-4.6959,-4.6661,-4.6373,-4.6313,-4.6313,-4.6313,-4.6313,-4.6313,-4.6313,-4.6313,-4.6313,-4.6313,-4.6313,-4.6313,-4.6313,-4.6313,-4.6313,-4.6313,-4.6012,-4.5522,-4.5259,-4.4844,-4.4418,-4.4091,-4.4091,-4.4242,-4.4292,-4.443,-4.4694,-4.5234,-4.5547,-4.5937,-4.6125,-4.6263,-4.62,-4.6012,-4.5849,-4.5686,-4.5397,-4.502,-4.4844,-4.4493,-4.4204,-4.374,-4.3426,-4.32,-4.3162,-4.3011,-4.2986,-4.2986,-4.2986,-4.2986,-4.2986,-4.2986,-4.2986,-4.2974,-4.2798,-4.2585,-4.2484,-4.2095,-4.176,-4.1414,-4.0967,-4.1221,-4.1528,-4.2073,-4.2373,-4.2846,-4.3184,-4.3088,-4.2846,-4.236,-4.1805,-4.0911,-4.0441,-4.0221,-4.007,-4.0,-4.0127,-4.0267,-4.0594,-4.0819,-4.0869,-4.0844,-4.0631,-4.0386,-4.014,-3.9469,-3.8966,-3.853,-3.8044,-3.7723,-3.7479,-3.723,-5.1663,-5.2471,-5.3683,-5.4596,-5.5149,-5.5194,-5.5194,-5.5194,-5.5158,-5.5143,-5.5093,-5.4905,-5.4605,-5.4178,-5.3538,-5.2716,-5.1785,-5.0892,-4.9843,-4.8842,-4.8088,-4.7468,-4.6887,-4.6541,-4.6434,-4.6313,-4.6313,-4.6313,-4.6313,-4.6313,-4.6313,-4.6313,-4.6313,-4.6313,-4.6313,-4.6313,-4.6313,-4.6313,-4.625,-4.605,-4.556,-4.5008,-4.4505,-4.3928,-4.3413,-4.335,-4.3601,-4.3777,-4.4003,-4.433,-4.4782,-4.5234,-4.5585,-4.5912,-4.6175,-4.62,-4.6263,-4.62,-4.6137,-4.5836,-4.566,-4.5447,-4.5008,-4.4581,-4.4141,-4.3752,-4.3526,-4.33,-4.3137,-4.2986,-4.2986,-4.2986,-4.2986,-4.2986,-4.2986,-4.2986,-4.2961,-4.3004,-4.2936,-4.2924,-4.269,-4.2301,-4.1839,-4.1382,-4.1397,-4.1712,-4.1897,-4.2084,-4.2315,-4.2435,-4.2422,-4.2128,-4.1683,-4.1071,-4.0491,-4.0223,-4.0019,-4.0067,-4.0005,-3.9979,-4.0127,-4.0618,-4.0866,-4.0763,-4.0667,-4.084,-4.0413,-3.9996,-3.9234,-3.8589,-3.8044,-3.7723,-3.7387,-3.7155,-3.6875,-5.1917,-5.3054,-5.3877,-5.4581,-5.5134,-5.5194,-5.5194,-5.5194,-5.4991,-5.489,-5.489,-5.4854,-5.4751,-5.4686,-5.4023,-5.3366,-5.2769,-5.1839,-5.0795,-4.9786,-4.8828,-4.7971,-4.7231,-4.6721,-4.6554,-4.6373,-4.6313,-4.6313,-4.6313,-4.6313,-4.6313,-4.6313,-4.6313,-4.6313,-4.6313,-4.6313,-4.6313,-4.6313,-4.6313,-4.6188,-4.6062,-4.5485,-4.4719,-4.4179,-4.3727,-4.3438,-4.3275,-4.315,-4.3187,-4.3413,-4.3903,-4.4618,-4.5146,-4.556,-4.5874,-4.615,-4.6225,-4.6313,-4.62,-4.6125,-4.5999,-4.5974,-4.5573,-4.5259,-4.4756,-4.4141,-4.3878,-4.3576,-4.3363,-4.3037,-4.2986,-4.2986,-4.2986,-4.2986,-4.2986,-4.2986,-4.2974,-4.2974,-4.2961,-4.2961,-4.2873,-4.2577,-4.2225,-4.1897,-4.1704,-4.1836,-4.1737,-4.1935,-4.1954,-4.1888,-4.1872,-4.1448,-4.106,-4.0643,-4.0224,-4.0019,-3.9841,-3.9956,-4.0171,-4.0373,-4.0603,-4.0897,-4.1019,-4.1202,-4.1332,-4.1494,-4.0949,-4.0219,-3.9496,-3.8841,-3.8011,-3.7446,-3.7108,-3.6875,-3.6687]},{"header":{"parameterUnit":"m.s-1","parameterCategory":1,"la1":31.0,"la2":29.5877,"lo1":-88.7671,"lo2":-86.6584,"dy":0.0162,"dx":0.0185,"nx":115,"ny":88,"refTime":"2026-03-07T00:00:00:Z","depth":0,"parameterNumber":3,"parameterNumberName":"V-component_of_WINDS"},"data":[0.0,0.0,0.0,0.0,0.0,0.0,0.0,0.0,0.0,0.0,0.0,0.0,0.0,0.0,0.0,0.0,0.0,0.0,0.0,0.0,0.0,0.0,0.0,0.0,0.0,0.0,0.0,0.0,0.0,0.0,0.0,0.0,0.0,0.0,0.0,0.0,0.0,0.0,0.0,0.0,0.0,0.0,0.0,0.0,0.0,0.0,0.0,0.0,0.0,0.0,0.0,0.0,0.0,0.0,0.0,0.0,0.0,0.0,0.0,0.0,0.0,0.0,0.0,0.0,0.0,0.0,0.0,0.0,0.0,0.0,0.0,0.0,0.0,0.0,0.0,0.0,0.0,0.0,0.0,0.0,0.0,0.0,0.0,0.0,0.0,0.0,0.0,0.0,0.0,0.0,0.0,0.0,0.0,0.0,0.0,0.0,0.0,0.0,0.0,0.0,0.0,0.0,0.0,0.0,0.0,0.0,0.0,0.0,0.0,0.0,0.0,0.0,0.0,0.0,0.0,0.0,0.0,0.0,0.0,0.0,0.0,0.0,0.0,0.0,0.0,0.0,0.0,0.0,0.0,0.0,0.0,0.0,0.0,0.0,0.0,0.0,0.0,0.0,0.0,0.0,0.0,0.0,0.0,0.0,0.0,0.0,0.0,0.0,0.0,0.0,0.0,0.0,0.0,0.0,0.0,0.0,0.0,0.0,0.0,0.0,0.0,0.0,0.0,0.0,0.0,0.0,0.0,0.0,0.0,0.0,0.0,0.0,0.0,0.0,0.0,0.0,0.0,0.0,0.0,0.0,0.0,0.0,0.0,0.0,0.0,0.0,0.0,0.0,0.0,0.0,0.0,0.0,0.0,0.0,0.0,0.0,0.0,0.0,0.0,0.0,0.0,0.0,0.0,0.0,0.0,0.0,0.0,0.0,0.0,0.0,0.0,0.0,0.0,0.0,0.0,0.0,0.0,0.0,0.0,0.0,0.0,0.0,0.0,0.0,0.0,0.0,0.0,0.0,0.0,0.0,0.0,0.0,0.0,0.0,0.0,0.0,0.0,0.0,0.0,0.0,0.0,0.0,0.0,0.0,0.0,0.0,0.0,0.0,0.0,0.0,0.0,0.0,0.0,0.0,0.0,0.0,0.0,0.0,0.0,0.0,0.0,0.0,0.0,0.0,0.0,0.0,0.0,0.0,0.0,0.0,0.0,0.0,0.0,0.0,0.0,0.0,0.0,0.0,0.0,0.0,0.0,0.0,0.0,0.0,0.0,0.0,0.0,0.0,0.0,0.0,0.0,0.0,0.0,0.0,0.0,0.0,0.0,0.0,0.0,0.0,0.0,0.0,0.0,0.0,0.0,0.0,0.0,0.0,0.0,0.0,0.0,0.0,0.0,0.0,0.0,0.0,0.0,0.0,0.0,0.0,0.0,0.0,0.0,0.0,0.0,0.0,0.0,0.0,0.0,0.0,0.0,0.0,0.0,0.0,0.0,0.0,0.0,0.0,0.0,0.0,0.0,0.0,0.0,0.0,0.0,0.0,0.0,0.0,0.0,0.0,0.0,0.0,0.0,0.0,0.0,0.0,0.0,0.0,0.0,0.0,0.0,0.0,0.0,0.0,0.0,0.0,0.0,0.0,0.0,0.0,0.0,0.0,0.0,0.0,0.0,0.0,0.0,0.0,0.0,0.0,0.0,0.0,0.0,0.0,0.0,0.0,0.0,0.0,0.0,0.0,0.0,0.0,0.0,0.0,0.0,0.0,0.0,0.0,0.0,0.0,0.0,0.0,0.0,0.0,0.0,0.0,0.0,0.0,0.0,0.0,0.0,0.0,0.0,0.0,0.0,0.0,0.0,0.0,0.0,0.0,0.0,0.0,0.0,0.0,0.0,0.0,0.0,0.0,0.0,0.0,0.0,0.0,0.0,0.0,0.0,0.0,0.0,0.0,0.0,0.0,0.0,0.0,0.0,0.0,0.0,0.0,0.0,0.0,0.0,0.0,0.0,0.0,0.0,0.0,0.0,0.0,0.0,0.0,0.0,0.0,0.0,0.0,0.0,0.0,0.0,0.0,0.0,0.0,0.0,0.0,0.0,0.0,0.0,0.0,0.0,0.0,0.0,0.0,0.0,0.0,0.0,0.0,0.0,0.0,0.0,0.0,0.0,0.0,0.0,0.0,0.0,0.0,0.0,0.0,0.0,0.0,0.0,0.0,0.0,0.0,0.0,0.0,0.0,0.0,0.0,0.0,0.0,0.0,0.0,0.0,0.0,0.0,0.0,0.0,0.0,0.0,0.0,0.0,0.0,0.0,0.0,0.0,0.0,0.0,0.0,0.0,0.0,0.0,0.0,0.0,0.0,0.0,0.0,0.0,0.0,0.0,0.0,0.0,0.0,0.0,0.0,0.0,0.0,0.0,0.0,0.0,0.0,0.0,0.0,0.0,0.0,0.0,0.0,0.0,0.0,0.0,0.0,0.0,0.0,0.0,0.0,0.0,0.0,0.0,0.0,0.0,0.0,0.0,0.0,0.0,0.0,0.0,0.0,0.0,0.0,0.0,0.0,0.0,0.0,0.0,0.0,0.0,0.0,0.0,0.0,0.0,0.0,0.0,0.0,0.0,0.0,0.0,0.0,0.0,0.0,0.0,0.0,0.0,0.0,0.0,0.0,0.0,0.0,0.0,0.0,0.0,0.0,0.0,0.0,0.0,0.0,0.0,0.0,0.0,0.0,0.0,0.0,0.0,0.0,0.0,0.0,0.0,0.0,0.0,0.0,0.0,0.0,0.0,0.0,0.0,0.0,0.0,0.0,0.0,0.0,0.0,0.0,0.0,0.0,0.0,0.0,0.0,0.0,0.0,0.0,0.0,0.0,0.0,0.0,0.0,0.0,0.0,0.0,0.0,0.0,0.0,0.0,0.0,0.0,0.0,0.0,0.0,0.0,0.0,0.0,0.0,0.0,0.0,0.0,0.0,0.0,0.0,0.0,0.0,0.0,0.0,0.0,0.0,0.0,0.0,0.0,0.0,0.0,0.0,0.0,0.0,0.0,0.0,0.0,0.0,0.0,0.0,0.0,0.0,0.0,0.0,0.0,0.0,0.0,0.0,0.0,0.0,0.0,0.0,0.0,0.0,0.0,0.0,0.0,0.0,0.0,0.0,0.0,0.0,0.0,0.0,0.0,0.0,0.0,0.0,0.0,0.0,0.0,0.0,0.0,0.0,0.0,0.0,0.0,0.0,0.0,0.0,0.0,0.0,0.0,0.0,0.0,0.0,0.0,0.0,0.0,0.0,0.0,0.0,0.0,0.0,0.0,0.0,0.0,0.0,0.0,0.0,0.0,0.0,0.0,0.0,0.0,0.0,0.0,0.0,0.0,0.0,0.0,0.0,0.0,0.0,0.0,0.0,0.0,0.0,0.0,0.0,0.0,0.0,0.0,0.0,0.0,0.0,0.0,0.0,0.0,0.0,0.0,0.0,0.0,0.0,0.0,0.0,0.0,0.0,0.0,0.0,0.0,0.0,0.0,0.0,0.0,0.0,0.0,0.0,0.0,0.0,0.0,0.0,0.0,0.0,0.0,0.0,0.0,0.0,0.0,0.0,0.0,0.0,0.0,0.0,0.0,0.0,0.0,0.0,0.0,0.0,0.0,0.0,0.0,0.0,0.0,0.0,0.0,0.0,0.0,0.0,0.0,0.0,0.0,0.0,0.0,0.0,0.0,0.0,0.0,0.0,0.0,0.0,0.0,0.0,0.0,0.0,0.0,0.0,0.0,0.0,0.0,0.0,0.0,0.0,0.0,0.0,0.0,0.0,0.0,0.0,0.0,0.0,0.0,0.0,0.0,0.0,0.0,0.0,0.0,0.0,0.0,0.0,0.0,0.0,0.0,0.0,0.0,0.0,0.0,0.0,0.0,0.0,0.0,0.0,0.0,0.0,0.0,0.0,0.0,0.0,0.0,0.0,0.0,0.0,0.0,0.0,0.0,0.0,0.0,0.0,0.0,0.0,0.0,0.0,0.0,0.0,0.0,0.0,0.0,0.0,0.0,0.0,0.0,0.0,0.0,0.0,0.0,0.0,0.0,0.0,0.0,0.0,0.0,0.0,0.0,0.0,0.0,0.0,0.0,0.0,0.0,0.0,0.0,0.0,0.0,0.0,0.0,0.0,0.0,0.0,0.0,0.0,0.0,0.0,0.0,0.0,0.0,0.0,0.0,0.0,0.0,0.0,0.0,0.0,0.0,0.0,0.0,0.0,0.0,0.0,0.0,0.0,0.0,0.0,1.4707,0.0,0.0,0.0,0.0,0.0,0.0,0.0,0.0,0.0,0.0,0.0,0.0,0.0,0.0,0.0,0.0,0.0,0.0,0.0,0.0,0.0,0.0,0.0,0.0,0.0,0.0,0.0,0.0,0.0,0.0,0.0,0.0,0.0,0.0,0.0,0.0,0.0,0.0,0.0,0.0,0.0,0.0,0.0,0.0,0.0,0.0,0.0,0.0,0.0,0.0,0.0,0.0,0.0,0.0,0.0,0.0,0.0,0.0,0.0,0.0,0.0,0.0,0.0,0.0,0.0,0.0,0.0,0.0,0.0,0.0,0.0,0.0,0.0,0.0,0.0,0.0,0.0,0.0,0.0,0.0,0.0,0.0,0.0,0.0,0.0,0.0,0.0,0.0,0.0,0.0,0.0,0.0,0.0,0.0,0.0,0.0,0.0,0.0,0.0,0.0,0.0,0.0,0.0,0.0,0.0,0.0,0.0,0.0,0.0,0.0,1.542,1.542,1.542,1.5322,1.5127,0.0,0.0,0.0,0.0,0.0,0.0,0.0,0.0,0.0,0.0,0.0,0.0,0.0,0.0,0.0,0.0,0.0,0.0,0.0,0.0,0.0,0.0,0.0,0.0,0.0,0.0,0.0,0.0,0.0,0.0,0.0,0.0,0.0,0.0,0.0,0.0,0.0,0.0,0.0,0.0,0.0,0.0,0.0,0.0,0.0,0.0,0.0,0.0,0.0,0.0,0.0,0.0,0.0,0.0,0.0,0.0,0.0,0.0,0.0,0.0,0.0,0.0,0.0,0.0,0.0,0.0,0.0,0.0,0.0,0.0,0.0,0.0,0.0,0.0,0.0,0.0,0.0,0.0,0.0,0.0,0.0,0.0,0.0,0.0,0.0,0.0,0.0,0.0,0.0,0.0,0.0,0.0,0.0,0.0,0.0,0.0,0.0,0.0,0.0,0.0,0.0,0.0,0.0,0.0,0.0,0.0,0.0,0.0,0.0,0.0,0.0,0.0,1.5625,1.5586,1.54,0.0,0.0,0.0,0.0,0.0,0.0,0.0,0.0,0.0,0.0,0.0,0.0,0.0,0.0,0.0,0.0,0.0,0.0,0.0,0.0,0.0,0.0,0.0,0.0,0.0,0.0,0.0,0.0,0.0,0.0,0.0,0.0,0.0,0.0,0.0,0.0,0.0,0.0,0.0,0.0,0.0,0.0,0.0,0.0,0.0,0.0,0.0,0.0,0.0,0.0,0.0,0.0,0.0,0.0,0.0,0.0,0.0,0.0,0.0,0.0,0.0,0.0,0.0,0.0,0.0,0.0,0.0,0.0,0.0,0.0,0.0,0.0,0.0,0.0,0.0,0.0,0.0,0.0,0.0,0.0,0.0,0.0,0.0,0.0,0.0,0.0,0.0,0.0,0.0,0.0,0.0,0.0,0.0,0.0,0.0,0.0,0.0,0.0,0.0,0.0,0.0,0.0,0.0,0.0,0.0,0.0,0.0,0.0,0.0,0.0,1.6036,1.6046,1.6396,0.0,1.5449,0.0,0.0,0.0,0.0,0.0,0.0,0.0,0.0,0.0,0.0,0.0,0.0,0.0,0.0,0.0,0.0,0.0,0.0,0.0,0.0,0.0,0.0,0.0,0.0,0.0,0.0,0.0,0.0,0.0,0.0,0.0,0.0,0.0,0.0,0.0,0.0,0.0,0.0,0.0,0.0,0.0,0.0,0.0,0.0,0.0,0.0,0.0,0.0,0.0,0.0,0.0,0.0,0.0,0.0,0.0,0.0,0.0,0.0,0.0,0.0,0.0,0.0,0.0,0.0,0.0,0.0,0.0,0.0,0.0,0.0,0.0,0.0,0.0,0.0,0.0,0.0,0.0,0.0,0.0,0.0,0.0,0.0,0.0,0.0,0.0,0.0,0.0,0.0,0.0,0.0,0.0,0.0,0.0,0.0,0.0,0.0,0.0,0.0,0.0,0.0,0.0,0.0,0.0,0.0,0.0,0.0,0.0,0.0,0.0,0.0,0.0,1.6445,1.6599,1.6404,0.0,0.0,0.0,0.0,0.0,0.0,0.0,0.0,0.0,0.0,0.0,0.0,0.0,0.0,0.0,0.0,0.0,0.0,0.0,0.0,0.0,0.0,0.0,0.0,0.0,0.0,0.0,0.0,0.0,0.0,0.0,0.0,0.0,0.0,0.0,0.0,0.0,0.0,0.0,0.0,0.0,0.0,0.0,0.0,0.0,0.0,0.0,0.0,0.0,0.0,0.0,0.0,0.0,0.0,0.0,0.0,0.0,0.0,0.0,0.0,0.0,0.0,0.0,0.0,0.0,0.0,0.0,0.0,0.0,0.0,0.0,0.0,0.0,0.0,0.0,0.0,0.0,0.0,0.0,0.0,0.0,0.0,0.0,0.0,0.0,0.0,0.0,0.0,0.0,0.0,0.0,0.0,0.0,0.0,0.0,0.0,0.0,0.0,0.0,0.0,0.0,0.0,0.0,0.0,0.0,0.0,0.0,0.0,0.0,0.0,1.6212,0.0,1.7009,1.6941,1.665,1.6175,0.0,0.0,0.0,0.0,0.0,0.0,0.0,0.0,0.0,0.0,0.0,0.0,0.0,0.0,0.0,0.0,0.0,0.0,0.0,0.0,0.0,0.0,0.0,0.0,0.0,0.0,0.0,0.0,0.0,0.0,0.0,0.0,0.0,0.0,0.0,0.0,0.0,0.0,0.0,0.0,0.0,0.0,0.0,0.0,0.0,0.0,0.0,0.0,0.0,0.0,0.0,0.0,0.0,0.0,0.0,0.0,0.0,0.0,0.0,0.0,0.0,0.0,0.0,0.0,0.0,0.0,0.0,0.0,0.0,0.0,0.0,0.0,0.0,0.0,0.0,0.0,0.0,0.0,0.0,0.0,0.0,0.0,0.0,0.0,0.0,0.0,0.0,0.0,0.0,0.0,0.0,0.0,0.0,0.0,0.0,0.0,0.0,0.0,0.0,0.0,0.0,0.0,0.0,0.0,0.0,0.0,0.0,0.0,0.0,1.6475,1.7067,1.7861,1.7559,1.7039,0.0,0.0,0.0,0.0,0.0,0.0,0.0,0.0,0.0,0.0,0.0,0.0,0.0,0.0,0.0,0.0,0.0,0.0,0.0,0.0,0.0,0.0,0.0,0.0,0.0,0.0,0.0,0.0,0.0,0.0,0.0,0.0,0.0,0.0,0.0,0.0,0.0,0.0,0.0,0.0,0.0,0.0,0.0,0.0,0.0,0.0,0.0,0.0,0.0,0.0,0.0,0.0,0.0,0.0,0.0,0.0,0.0,0.0,0.0,0.0,0.0,0.0,0.0,0.0,0.0,0.0,0.0,0.0,0.0,0.0,0.0,0.0,0.0,0.0,0.0,0.0,0.0,0.0,0.0,0.0,0.0,0.0,0.0,0.0,0.0,0.0,0.0,0.0,0.0,0.0,0.0,0.0,0.0,0.0,0.0,0.0,0.0,0.0,0.0,0.0,0.0,0.0,0.0,0.0,0.0,0.0,0.0,0.0,0.0,1.6095,1.6504,1.6907,1.733,1.7192,1.6771,0.0,0.0,0.0,0.0,0.0,0.0,0.0,0.0,0.0,0.0,0.0,0.0,0.0,0.0,0.0,0.0,0.0,0.0,0.0,0.0,0.0,0.0,0.0,0.0,0.0,0.0,0.0,0.0,0.0,0.0,0.0,0.0,0.0,0.0,0.0,0.0,0.0,0.0,0.0,0.0,0.0,0.0,0.0,0.0,0.0,0.0,0.0,0.0,0.0,0.0,0.0,0.0,0.0,0.0,0.0,0.0,0.0,0.0,0.0,0.0,0.0,0.0,0.0,0.0,0.0,0.0,0.0,0.0,0.0,0.0,0.0,0.0,0.0,0.0,0.0,0.0,0.0,0.0,0.0,0.0,0.0,0.0,0.0,0.0,0.0,0.0,0.0,0.0,0.0,0.0,0.0,0.0,0.0,0.0,0.0,0.0,0.0,0.0,0.0,0.0,0.0,0.0,0.0,0.0,0.0,0.0,0.0,0.0,0.0,1.6337,0.0,1.7034,0.0,1.7081,1.6658,0.0,0.0,0.0,0.0,0.0,0.0,0.0,0.0,0.0,0.0,0.0,0.0,0.0,0.0,0.0,0.0,0.0,0.0,0.0,0.0,0.0,0.0,0.0,0.0,0.0,0.0,0.0,0.0,0.0,0.0,0.0,0.0,0.0,0.0,0.0,0.0,0.0,0.0,0.0,0.0,0.0,0.0,0.0,0.0,0.0,0.0,0.0,0.0,0.0,0.0,0.0,0.0,0.0,0.0,0.0,0.0,0.0,0.0,0.0,0.0,0.0,0.0,0.0,0.0,0.0,0.0,0.0,0.0,0.0,0.0,0.0,0.0,0.0,0.0,0.0,0.0,0.0,0.0,0.0,0.0,0.0,0.0,0.0,0.0,0.0,0.0,0.0,0.0,0.0,0.0,0.0,0.0,0.0,0.0,0.0,0.0,0.0,0.0,0.0,0.0,0.0,0.0,0.0,0.0,0.0,0.0,0.0,0.0,1.6086,1.6787,1.7318,1.7606,1.7595,1.7244,1.6719,0.0,0.0,0.0,0.0,0.0,0.0,0.0,0.0,0.0,0.0,0.0,0.0,0.0,0.0,0.0,0.0,0.0,0.0,0.0,0.0,0.0,0.0,0.0,0.0,0.0,0.0,0.0,0.0,0.0,0.0,0.0,0.0,0.0,0.0,0.0,0.0,0.0,0.0,0.0,0.0,0.0,0.0,0.0,0.0,0.0,0.0,0.0,0.0,0.0,0.0,0.0,0.0,0.0,0.0,0.0,0.0,0.0,0.0,0.0,0.0,0.0,0.0,0.0,0.0,0.0,0.0,0.0,0.0,0.0,0.0,0.0,0.0,0.0,0.0,0.0,0.0,0.0,0.0,0.0,0.0,0.0,0.0,0.0,0.0,0.0,0.0,0.0,0.0,0.0,0.0,0.0,0.0,0.0,0.0,0.0,0.0,0.0,0.0,0.0,0.0,0.0,0.0,0.0,0.0,0.0,0.0,0.0,0.0,0.0,1.749,1.7885,1.797,1.7743,1.7731,1.7309,0.0,0.0,0.0,0.0,0.0,0.0,0.0,0.0,0.0,0.0,0.0,0.0,0.0,0.0,0.0,0.0,0.0,0.0,0.0,0.0,0.0,0.0,0.0,0.0,0.0,0.0,0.0,0.0,0.0,0.0,0.0,0.0,0.0,0.0,0.0,0.0,0.0,0.0,0.0,0.0,0.0,0.0,0.0,0.0,0.0,0.0,0.0,0.0,0.0,0.0,0.0,0.0,0.0,0.0,0.0,0.0,0.0,0.0,0.0,0.0,0.0,0.0,0.0,0.0,0.0,0.0,0.0,0.0,0.0,0.0,0.0,0.0,0.0,0.0,0.0,0.0,0.0,0.0,0.0,0.0,0.0,0.0,0.0,0.0,0.0,0.0,0.0,0.0,0.0,0.0,0.0,0.0,0.0,0.0,0.0,0.0,0.0,0.0,0.0,0.0,0.0,0.0,0.0,0.0,0.0,0.0,0.0,0.0,0.0,1.9718,1.9246,1.9,1.9018,1.8677,1.8193,1.7512,0.0,0.0,0.0,0.0,0.0,0.0,0.0,0.0,0.0,0.0,0.0,0.0,0.0,0.0,0.0,0.0,0.0,0.0,0.0,0.0,0.0,0.0,0.0,0.0,0.0,0.0,0.0,0.0,0.0,0.0,0.0,0.0,0.0,0.0,0.0,0.0,0.0,0.0,0.0,0.0,0.0,0.0,0.0,0.0,0.0,0.0,0.0,0.0,0.0,0.0,0.0,0.0,0.0,0.0,0.0,0.0,0.0,0.0,0.0,0.0,0.0,0.0,0.0,0.0,0.0,0.0,0.0,0.0,0.0,0.0,0.0,0.0,0.0,0.0,0.0,0.0,0.0,0.0,0.0,0.0,0.0,0.0,0.0,0.0,0.0,0.0,0.0,0.0,0.0,0.0,0.0,0.0,0.0,0.0,0.0,0.0,0.0,0.0,0.0,0.0,0.0,0.0,0.0,0.0,0.0,0.0,0.0,0.0,2.3145,2.1467,2.0801,2.1134,2.015,1.9389,0.0,0.0,0.0,0.0,0.0,0.0,0.0,0.0,0.0,0.0,0.0,0.0,0.0,0.0,0.0,0.0,0.0,0.0,0.0,0.0,0.0,0.0,0.0,0.0,0.0,0.0,0.0,0.0,0.0,0.0,0.0,0.0,0.0,0.0,0.0,0.0,0.0,0.0,0.0,0.0,0.0,0.0,0.0,0.0,0.0,0.0,0.0,0.0,0.0,0.0,0.0,0.0,0.0,0.0,0.0,0.0,0.0,0.0,0.0,0.0,0.0,0.0,0.0,0.0,0.0,0.0,0.0,0.0,0.0,0.0,0.0,0.0,0.0,0.0,0.0,0.0,0.0,0.0,0.0,0.0,0.0,0.0,0.0,0.0,0.0,0.0,0.0,0.0,0.0,0.0,0.0,0.0,0.0,0.0,0.0,0.0,0.0,0.0,0.0,0.0,0.0,0.0,0.0,0.0,0.0,0.0,0.0,0.0,0.0,2.4911,2.5141,2.4573,2.3201,2.2298,2.1414,0.0,0.0,0.0,0.0,0.0,0.0,0.0,0.0,0.0,0.0,0.0,0.0,0.0,0.0,0.0,0.0,0.0,0.0,0.0,0.0,0.0,0.0,0.0,0.0,0.0,0.0,0.0,0.0,0.0,0.0,0.0,0.0,0.0,0.0,0.0,0.0,0.0,0.0,0.0,0.0,0.0,0.0,0.0,0.0,0.0,0.0,0.0,0.0,0.0,0.0,0.0,0.0,0.0,0.0,0.0,0.0,0.0,0.0,0.0,0.0,0.0,0.0,0.0,0.0,0.0,0.0,0.0,0.0,0.0,0.0,0.0,0.0,0.0,0.0,0.0,0.0,0.0,0.0,0.0,0.0,0.0,0.0,0.0,0.0,0.0,0.0,0.0,0.0,0.0,0.0,0.0,0.0,0.0,0.0,0.0,0.0,0.0,0.0,0.0,0.0,0.0,0.0,0.0,0.0,0.0,0.0,0.0,0.0,2.4984,2.7131,2.8085,2.8101,2.7131,2.4903,2.3128,0.0,0.0,0.0,0.0,0.0,0.0,0.0,0.0,0.0,0.0,0.0,0.0,0.0,0.0,0.0,0.0,0.0,0.0,0.0,0.0,0.0,0.0,0.0,0.0,0.0,0.0,0.0,0.0,0.0,0.0,0.0,0.0,0.0,0.0,0.0,0.0,0.0,0.0,0.0,0.0,0.0,0.0,0.0,0.0,0.0,0.0,0.0,0.0,0.0,0.0,0.0,0.0,0.0,0.0,0.0,0.0,0.0,0.0,0.0,0.0,0.0,0.0,0.0,0.0,0.0,0.0,0.0,0.0,0.0,0.0,0.0,0.0,0.0,0.0,0.0,0.0,0.0,0.0,0.0,0.0,0.0,0.0,0.0,0.0,0.0,0.0,0.0,0.0,0.0,0.0,0.0,0.0,0.0,0.0,0.0,0.0,0.0,0.0,0.0,0.0,0.0,0.0,0.0,0.0,0.0,0.0,0.0,0.0,2.7113,2.9299,3.0356,3.1146,3.1547,2.7623,2.4754,0.0,0.0,0.0,0.0,0.0,0.0,0.0,0.0,0.0,0.0,0.0,0.0,0.0,0.0,0.0,0.0,0.0,0.0,0.0,0.0,0.0,0.0,0.0,0.0,0.0,0.0,0.0,0.0,0.0,0.0,0.0,0.0,0.0,0.0,0.0,0.0,0.0,0.0,0.0,0.0,0.0,0.0,0.0,0.0,0.0,0.0,0.0,0.0,0.0,0.0,0.0,0.0,0.0,0.0,0.0,0.0,0.0,0.0,0.0,0.0,0.0,0.0,0.0,0.0,0.0,0.0,0.0,0.0,0.0,0.0,0.0,0.0,0.0,0.0,0.0,0.0,0.0,0.0,0.0,0.0,0.0,0.0,0.0,0.0,0.0,0.0,0.0,0.0,0.0,0.0,0.0,0.0,0.0,0.0,0.0,0.0,0.0,0.0,0.0,0.0,0.0,0.0,0.0,0.0,0.0,0.0,0.0,0.0,2.7614,3.0085,3.1513,3.2463,3.2819,2.9523,2.685,0.0,0.0,0.0,0.0,0.0,0.0,0.0,0.0,0.0,0.0,0.0,0.0,0.0,0.0,0.0,0.0,0.0,0.0,0.0,0.0,0.0,0.0,0.0,0.0,0.0,0.0,0.0,0.0,0.0,0.0,0.0,0.0,0.0,0.0,0.0,0.0,0.0,0.0,0.0,0.0,0.0,0.0,0.0,0.0,0.0,0.0,0.0,0.0,1.5003,0.0,0.0,0.0,0.0,0.0,0.0,0.0,0.0,0.0,0.0,0.0,0.0,0.0,0.0,0.0,0.0,0.0,0.0,0.0,0.0,0.0,0.0,0.0,0.0,0.0,0.0,0.0,0.0,0.0,0.0,0.0,0.0,0.0,0.0,0.0,0.0,0.0,0.0,0.0,0.0,0.0,0.0,0.0,0.0,0.0,0.0,0.0,0.0,0.0,0.0,0.0,0.0,0.0,0.0,0.0,0.0,0.0,0.0,0.0,2.8821,3.1118,3.2597,3.3609,3.4003,3.1527,2.8906,0.0,0.0,0.0,0.0,0.0,0.0,0.0,0.0,0.0,0.0,0.0,0.0,0.0,0.0,0.0,0.0,0.0,0.0,0.0,0.0,0.0,0.0,0.0,0.0,0.0,0.0,0.0,0.0,0.0,0.0,0.0,0.0,0.0,0.0,0.0,0.0,0.0,0.0,0.0,0.0,0.0,0.0,0.0,0.0,0.0,0.0,0.0,0.0,0.0,0.0,0.0,0.0,0.0,0.0,0.0,0.0,0.0,0.0,0.0,0.0,0.0,0.0,0.0,0.0,0.0,0.0,0.0,0.0,0.0,0.0,0.0,0.0,0.0,0.0,0.0,0.0,0.0,0.0,0.0,0.0,0.0,0.0,0.0,0.0,0.0,0.0,0.0,0.0,0.0,0.0,0.0,0.0,0.0,0.0,0.0,0.0,0.0,0.0,0.0,0.0,0.0,0.0,0.0,0.0,0.0,0.0,0.0,2.7926,3.0,3.2017,3.3408,3.4423,3.497,3.3056,3.0452,2.726,0.0,0.0,0.0,0.0,0.0,0.0,0.0,0.0,0.0,0.0,0.0,0.0,0.0,0.0,0.0,0.0,0.0,0.0,0.0,0.0,0.0,0.0,0.0,0.0,0.0,0.0,0.0,0.0,0.0,0.0,0.0,0.0,0.0,0.0,0.0,0.0,0.0,0.0,1.4367,1.6376,0.0,0.0,0.0,0.0,0.0,0.0,0.0,0.0,1.6249,0.0,0.0,0.0,0.0,0.0,0.0,0.0,0.0,0.0,0.0,0.0,0.0,0.0,0.0,0.0,0.0,0.0,0.0,0.0,0.0,0.0,0.0,0.0,0.0,0.0,0.0,0.0,0.0,0.0,0.0,0.0,0.0,0.0,0.0,0.0,0.0,0.0,0.0,0.0,0.0,0.0,0.0,0.0,0.0,0.0,0.0,0.0,0.0,0.0,0.0,0.0,0.0,0.0,0.0,0.0,0.0,2.5615,2.7592,2.9794,3.2295,3.3638,3.4339,3.432,3.2591,3.0425,2.785,0.0,0.0,0.0,0.0,0.0,0.0,0.0,0.0,0.0,0.0,0.0,0.0,0.0,0.0,0.0,0.0,0.0,0.0,0.0,0.0,0.0,0.0,0.0,0.0,0.0,0.0,0.0,0.0,0.0,0.0,0.0,0.0,0.0,0.0,0.0,0.0,0.0,0.0,0.0,1.7482,1.8361,0.0,0.0,0.0,0.0,0.0,0.0,0.0,0.0,1.6454,0.0,0.0,0.0,0.0,0.0,0.0,0.0,0.0,0.0,0.0,0.0,0.0,0.0,0.0,0.0,0.0,0.0,0.0,0.0,0.0,0.0,0.0,0.0,0.0,0.0,0.0,0.0,0.0,0.0,0.0,0.0,0.0,0.0,0.0,0.0,0.0,0.0,0.0,0.0,0.0,0.0,0.0,0.0,0.0,0.0,0.0,0.0,0.0,0.0,0.0,0.0,0.0,0.0,0.0,0.0,2.5558,2.7616,2.9807,3.2164,3.3443,3.408,3.4029,3.246,3.0475,0.0,0.0,0.0,0.0,0.0,0.0,0.0,0.0,0.0,0.0,0.0,0.0,0.0,0.0,0.0,0.0,0.0,0.0,0.0,0.0,0.0,0.0,0.0,0.0,0.0,0.0,0.0,0.0,0.0,0.0,0.0,0.0,0.0,0.0,0.0,0.0,0.0,0.0,0.0,0.0,1.8216,1.902,1.9375,0.0,0.0,0.0,0.0,0.0,0.0,1.7778,1.7387,0.0,0.0,0.0,0.0,0.0,0.0,0.0,0.0,0.0,0.0,0.0,0.0,0.0,0.0,0.0,0.0,0.0,0.0,0.0,0.0,0.0,0.0,0.0,0.0,0.0,0.0,0.0,0.0,0.0,0.0,0.0,0.0,0.0,0.0,0.0,0.0,0.0,0.0,0.0,0.0,0.0,0.0,0.0,0.0,0.0,0.0,0.0,0.0,0.0,0.0,0.0,0.0,0.0,0.0,0.0,2.5689,2.7749,2.9875,3.2055,3.3224,3.3739,3.3645,3.2222,3.0259,0.0,0.0,0.0,0.0,0.0,0.0,0.0,0.0,0.0,0.0,0.0,0.0,0.0,0.0,0.0,0.0,0.0,0.0,0.0,0.0,0.0,0.0,0.0,0.0,0.0,0.0,0.0,0.0,0.0,0.0,0.0,0.0,0.0,0.0,0.0,0.0,0.0,0.0,0.0,0.0,0.0,1.9884,2.0566,2.0459,0.0,0.0,0.0,0.0,1.9318,1.9177,0.0,0.0,0.0,0.0,0.0,0.0,0.0,0.0,0.0,0.0,0.0,0.0,0.0,0.0,0.0,0.0,0.0,0.0,0.0,0.0,0.0,0.0,0.0,0.0,0.0,0.0,0.0,0.0,0.0,0.0,0.0,0.0,0.0,0.0,0.0,0.0,0.0,0.0,0.0,0.0,0.0,0.0,0.0,0.0,0.0,0.0,0.0,0.0,0.0,0.0,0.0,0.0,0.0,0.0,0.0,0.0,2.6071,2.788,2.9973,3.2283,3.3297,3.347,3.2837,3.1458,2.9464,0.0,0.0,0.0,0.0,0.0,0.0,0.0,0.0,0.0,0.0,0.0,0.0,0.0,0.0,0.0,0.0,0.0,0.0,0.0,0.0,0.0,0.0,0.0,0.0,0.0,0.0,0.0,0.0,0.0,0.0,0.0,0.0,0.0,0.0,0.0,0.0,0.0,0.0,0.0,0.0,0.0,2.0834,2.2141,2.2445,2.2338,0.0,0.0,2.223,2.1696,2.1153,0.0,0.0,0.0,0.0,0.0,0.0,0.0,0.0,0.0,0.0,0.0,0.0,0.0,0.0,0.0,0.0,0.0,0.0,0.0,0.0,0.0,0.0,0.0,0.0,0.0,0.0,0.0,0.0,0.0,0.0,0.0,0.0,0.0,0.0,0.0,0.0,0.0,0.0,0.0,0.0,0.0,0.0,0.0,0.0,0.0,0.0,0.0,0.0,0.0,0.0,0.0,0.0,0.0,0.0,0.0,2.3764,2.6324,2.804,3.009,3.2478,3.3283,3.3561,3.3261,3.1973,3.0002,0.0,0.0,0.0,0.0,0.0,0.0,0.0,0.0,0.0,0.0,0.0,0.0,0.0,0.0,0.0,0.0,0.0,0.0,0.0,0.0,0.0,0.0,0.0,0.0,0.0,0.0,0.0,0.0,0.0,0.0,0.0,0.0,0.0,0.0,0.0,0.0,0.0,0.0,0.0,0.0,0.0,0.0,2.2737,2.3095,0.0,0.0,0.0,2.33,2.3102,0.0,0.0,0.0,0.0,0.0,0.0,0.0,0.0,0.0,0.0,0.0,0.0,0.0,0.0,0.0,0.0,0.0,0.0,0.0,0.0,0.0,0.0,0.0,0.0,0.0,0.0,0.0,0.0,0.0,0.0,0.0,0.0,0.0,0.0,0.0,0.0,0.0,0.0,0.0,0.0,0.0,0.0,0.0,0.0,0.0,0.0,0.0,0.0,0.0,0.0,0.0,0.0,0.0,0.0,0.0,0.0,0.0,2.6804,2.8499,3.0493,3.2777,3.3437,3.3724,3.3706,3.2507,0.0,0.0,0.0,0.0,0.0,0.0,0.0,0.0,0.0,0.0,0.0,0.0,0.0,0.0,0.0,0.0,0.0,0.0,0.0,0.0,0.0,0.0,0.0,0.0,0.0,0.0,0.0,1.2461,0.0,0.0,0.0,0.0,0.0,0.0,0.0,0.0,0.0,0.0,0.0,0.0,0.0,0.0,2.268,2.393,2.4319,2.4586,0.0,0.0,2.4725,2.4829,2.4027,2.3199,0.0,0.0,0.0,0.0,0.0,0.0,0.0,0.0,0.0,0.0,0.0,0.0,0.0,0.0,0.0,0.0,0.0,0.0,0.0,0.0,0.0,0.0,0.0,0.0,0.0,0.0,0.0,0.0,0.0,0.0,0.0,0.0,0.0,0.0,0.0,0.0,0.0,0.0,0.0,0.0,0.0,0.0,0.0,0.0,0.0,0.0,0.0,0.0,0.0,0.0,0.0,0.0,0.0,0.0,0.0,2.7756,2.945,3.1261,3.3178,3.3785,3.3999,3.3853,3.2665,3.0734,0.0,0.0,0.0,0.0,0.0,0.0,0.0,0.0,0.0,0.0,0.0,0.0,0.0,0.0,0.0,0.0,0.0,0.0,0.0,0.0,0.0,0.0,0.0,0.0,0.0,0.0,0.0,0.0,0.0,0.0,0.0,0.0,0.0,0.0,0.0,0.0,0.0,0.0,0.0,0.0,0.0,2.421,2.6524,2.6972,2.7352,0.0,0.0,2.7422,2.7422,2.5861,2.4462,2.3802,0.0,0.0,0.0,0.0,0.0,0.0,0.0,0.0,0.0,0.0,0.0,0.0,0.0,0.0,0.0,0.0,0.0,0.0,0.0,0.0,0.0,0.0,0.0,0.0,0.0,0.0,0.0,0.0,0.0,0.0,0.0,0.0,0.0,0.0,0.0,0.0,0.0,0.0,0.0,0.0,0.0,0.0,0.0,0.0,0.0,0.0,0.0,0.0,0.0,0.0,0.0,0.0,0.0,2.5423,2.8222,3.0121,3.1965,3.3699,3.423,3.4551,3.4697,3.3426,3.1723,0.0,0.0,0.0,0.0,0.0,0.0,0.0,0.0,0.0,0.0,0.0,0.0,0.0,0.0,0.0,0.0,0.0,0.0,0.0,0.0,0.0,0.0,0.0,0.0,0.0,0.0,0.0,0.0,1.5472,1.5383,1.4557,0.0,0.0,0.0,0.0,0.0,0.0,0.0,0.0,0.0,0.0,2.5321,2.7204,2.7945,0.0,0.0,2.8739,2.8473,2.8172,2.7155,2.6036,2.4967,2.3443,0.0,0.0,0.0,0.0,0.0,0.0,0.0,0.0,0.0,0.0,0.0,0.0,0.0,0.0,0.0,0.0,0.0,0.0,0.0,0.0,0.0,0.0,0.0,0.0,0.0,0.0,0.0,0.0,0.0,0.0,0.0,0.0,0.0,0.0,0.0,0.0,0.0,0.0,0.0,0.0,0.0,0.0,0.0,0.0,0.0,0.0,0.0,0.0,0.0,0.0,0.0,0.0,2.5768,2.8688,3.0681,3.2521,3.4288,3.4683,3.4997,3.5264,3.3999,3.2377,0.0,0.0,0.0,0.0,0.0,0.0,0.0,0.0,0.0,0.0,0.0,0.0,0.0,0.0,0.0,0.0,0.0,0.0,0.0,0.0,0.0,0.0,0.0,0.0,0.0,0.0,0.0,0.0,1.6558,1.6277,1.5344,0.0,0.0,0.0,0.0,0.0,0.0,0.0,0.0,0.0,0.0,2.639,2.7986,2.8855,2.9438,2.977,2.965,2.9322,2.8848,2.8029,2.7076,2.5959,0.0,0.0,0.0,0.0,0.0,0.0,0.0,0.0,0.0,0.0,0.0,0.0,0.0,0.0,0.0,0.0,0.0,0.0,0.0,0.0,0.0,0.0,0.0,0.0,0.0,0.0,0.0,0.0,0.0,0.0,2.1342,0.0,0.0,0.0,0.0,0.0,0.0,0.0,0.0,0.0,0.0,0.0,0.0,0.0,0.0,0.0,0.0,0.0,0.0,0.0,0.0,0.0,0.0,2.6067,2.9142,3.1055,3.2916,3.481,3.5067,3.5294,3.5442,3.4218,3.2527,3.0427,0.0,0.0,0.0,0.0,0.0,0.0,0.0,0.0,0.0,0.0,0.0,0.0,0.0,0.0,0.0,0.0,0.0,0.0,0.0,0.0,0.0,0.0,0.0,0.0,0.0,0.0,1.907,1.8422,1.761,0.0,0.0,0.0,0.0,0.0,0.0,0.0,0.0,0.0,0.0,2.5706,2.7545,2.9139,2.9882,3.0534,3.1317,3.0883,3.0283,2.9654,2.8498,2.736,0.0,0.0,0.0,0.0,0.0,0.0,0.0,0.0,0.0,0.0,0.0,0.0,0.0,0.0,0.0,0.0,0.0,0.0,0.0,0.0,0.0,0.0,0.0,0.0,0.0,0.0,0.0,2.5565,2.4778,0.0,0.0,0.0,0.0,0.0,0.0,0.0,0.0,0.0,0.0,0.0,3.0119,3.0141,0.0,0.0,0.0,0.0,0.0,0.0,0.0,0.0,0.0,0.0,0.0,0.0,2.7338,2.9515,3.1904,3.3776,3.5052,3.5279,3.5439,3.5504,3.4622,3.2781,2.9818,0.0,0.0,0.0,0.0,0.0,0.0,0.0,0.0,0.0,0.0,0.0,0.0,0.0,0.0,0.0,0.0,0.0,0.0,0.0,0.0,0.0,0.0,0.0,0.0,0.0,1.9759,0.0,0.0,0.0,0.0,0.0,0.0,0.0,0.0,0.0,0.0,0.0,2.3798,2.5973,2.7214,2.8447,2.9931,3.0677,3.1184,0.0,0.0,0.0,0.0,0.0,0.0,0.0,0.0,0.0,0.0,0.0,0.0,0.0,0.0,2.3068,2.2026,2.1431,2.1052,2.1073,0.0,0.0,0.0,0.0,0.0,0.0,0.0,0.0,0.0,0.0,0.0,0.0,0.0,0.0,2.8947,0.0,2.711,0.0,0.0,0.0,0.0,0.0,0.0,0.0,0.0,3.1442,3.2576,3.3381,3.3316,3.3324,0.0,3.1764,2.9944,0.0,0.0,0.0,0.0,0.0,0.0,0.0,0.0,2.8256,3.029,3.2524,3.4206,3.5249,3.5424,3.5489,3.5489,3.4622,3.2766,2.9873,2.7712,2.5801,0.0,0.0,0.0,0.0,0.0,0.0,0.0,0.0,0.0,0.0,0.0,0.0,0.0,0.0,0.0,0.0,0.0,0.0,0.0,0.0,0.0,0.0,0.0,2.1169,0.0,0.0,0.0,0.0,0.0,0.0,0.0,0.0,0.0,2.3201,2.404,2.5366,2.7214,2.8431,2.9456,3.036,0.0,0.0,0.0,0.0,0.0,0.0,0.0,3.0148,2.9116,2.8883,2.8681,2.8237,2.7739,2.735,2.7314,0.0,0.0,2.4217,2.3547,2.329,2.3312,2.329,2.3304,2.3327,2.3613,2.3916,0.0,0.0,0.0,0.0,0.0,0.0,0.0,0.0,3.3518,3.3231,0.0,3.1262,0.0,0.0,0.0,0.0,0.0,3.0683,0.0,0.0,3.5154,3.6306,3.7193,3.6565,3.6384,3.6447,3.4435,3.3389,3.3105,2.8782,0.0,0.0,0.0,0.0,0.0,0.0,2.8824,3.1387,3.2978,3.4301,3.5442,3.5489,3.5489,3.5474,3.4233,3.2632,3.0687,2.934,2.7754,2.5839,2.4388,0.0,0.0,0.0,0.0,0.0,0.0,0.0,0.0,0.0,0.0,0.0,0.0,0.0,0.0,0.0,0.0,0.0,0.0,0.0,0.0,2.1834,0.0,0.0,0.0,0.0,0.0,0.0,0.0,0.0,0.0,0.0,2.3904,2.5857,2.7497,2.7724,0.0,0.0,0.0,0.0,3.2542,3.2512,3.2542,3.2288,3.1675,3.1032,3.0432,2.9861,0.0,0.0,2.9639,2.9636,2.9564,2.9621,2.949,2.873,2.6044,2.5655,2.5681,2.5681,2.5657,2.5681,2.5681,2.5732,2.5815,3.8495,0.0,0.0,0.0,0.0,3.593,3.6468,3.7048,3.6874,3.6577,3.6069,3.4651,0.0,0.0,0.0,0.0,0.0,0.0,3.4472,3.6259,3.7193,3.8296,3.9442,3.8799,3.8501,3.8527,3.6982,3.5992,3.5484,3.3189,3.0573,2.7784,0.0,0.0,0.0,0.0,3.11,3.2474,3.4006,3.5002,3.5489,3.5489,3.5489,3.5489,3.4651,3.3694,3.2662,3.0911,2.9505,2.8472,2.6697,0.0,0.0,0.0,0.0,0.0,0.0,0.0,0.0,0.0,0.0,0.0,0.0,0.0,0.0,0.0,0.0,0.0,0.0,0.0,2.2221,2.2731,2.2776,0.0,0.0,0.0,0.0,0.0,0.0,0.0,0.0,0.0,2.7744,2.8062,2.8778,0.0,0.0,3.1555,3.2512,3.2976,3.3215,3.3215,0.0,0.0,0.0,3.2766,3.2587,3.2392,3.1988,3.1524,3.1032,3.0567,3.0253,3.0253,2.9879,2.931,2.8611,2.8028,2.7769,2.7754,2.7739,2.7739,2.7769,2.8124,2.8427,4.2408,3.9906,3.8379,3.8085,3.8567,3.8863,3.9481,4.0253,4.0026,3.9702,3.9298,3.8015,3.7102,3.6438,3.5396,0.0,0.0,0.0,3.7342,3.8504,3.9239,4.0023,4.0726,4.0397,4.0068,3.9732,3.8686,3.7868,3.724,3.5824,3.3923,3.1456,0.0,0.0,2.9886,3.1329,3.2537,3.3419,3.4581,3.5294,3.5504,3.5489,3.5489,3.5489,3.51,3.4577,3.3888,3.2228,3.1001,3.0357,2.8188,2.6378,0.0,0.0,0.0,0.0,0.0,0.0,0.0,0.0,0.0,0.0,0.0,1.9067,0.0,0.0,0.0,0.0,2.1442,2.2577,2.3969,2.411,0.0,0.0,0.0,0.0,0.0,0.0,0.0,2.6564,2.7923,2.9157,3.0208,3.0477,3.0896,3.178,3.2123,3.2602,3.3395,0.0,3.3888,3.3873,3.3873,3.3919,3.3888,3.3679,3.3499,3.3499,3.3185,3.2796,3.2363,3.1749,3.1301,3.1225,3.0791,3.0357,3.0357,3.0013,2.9564,2.9101,2.8996,2.8996,2.8996,2.931,2.9621,4.5562,4.4212,4.1137,4.0561,4.1594,4.1669,4.2387,4.3379,4.2851,4.262,4.253,4.1205,4.0247,3.9529,3.8916,0.0,3.8691,3.9918,4.0487,4.0576,4.119,4.1527,4.1549,4.1527,4.1145,4.0531,3.9828,3.917,3.8512,3.7255,3.6327,3.5669,3.2831,3.172,3.2373,3.2735,3.3416,3.4384,3.4931,3.5294,3.5504,3.5489,3.5489,3.5489,3.5489,3.519,3.4593,3.329,3.2288,3.1615,2.9205,2.724,2.5899,0.0,0.0,0.0,0.0,0.0,0.0,0.0,0.0,0.0,0.0,0.0,0.0,0.0,0.0,0.0,2.2857,0.0,2.5546,2.5689,0.0,0.0,0.0,2.6033,2.6701,2.6811,2.735,2.8682,0.0,0.0,3.1645,0.0,3.338,3.2796,3.323,3.3604,3.3649,3.4219,3.4593,3.4593,3.4593,3.4608,3.4578,3.4113,3.3754,3.3664,3.3574,3.3544,3.341,3.2976,3.2617,3.2542,3.2019,3.157,3.1585,3.1466,3.1122,2.9968,2.9801,2.9759,2.9774,2.9834,2.9879,4.6142,4.5696,4.4436,4.3778,4.3658,4.4152,4.4541,4.4811,4.4661,4.4586,4.4511,4.321,4.1998,4.0905,4.0778,4.0666,4.0733,4.0995,4.1452,4.1931,4.2096,4.2387,4.2836,4.2357,4.2096,4.1856,4.0726,4.0098,3.9858,3.8586,3.7853,3.7659,3.6466,3.5478,3.4688,3.4286,3.4688,3.5917,3.5603,3.5439,3.5504,3.5489,3.5489,3.5489,3.5489,3.5429,3.525,3.3963,3.3185,3.2976,3.0971,2.922,2.7949,2.6114,0.0,0.0,0.0,0.0,0.0,0.0,0.0,0.0,0.0,2.1068,2.1347,0.0,2.2252,0.0,2.4298,2.5457,2.6273,2.6387,0.0,0.0,2.7121,2.7365,2.8053,2.8577,2.9385,3.0658,3.1511,3.2482,3.3665,3.4053,3.4414,3.4726,3.4457,3.4427,3.4936,3.5145,3.5265,3.525,3.5235,3.5265,3.522,3.5145,3.4816,3.4354,3.4247,3.4099,3.3589,3.338,3.326,3.323,3.2721,3.2332,3.2243,3.1854,3.1451,3.1107,3.1032,3.1047,3.1047,3.1017,3.1032,4.7025,4.6726,4.6352,4.5978,4.5663,4.5723,4.5918,4.6157,4.5888,4.5753,4.5693,4.462,4.3793,4.3135,4.3135,4.2955,4.2686,4.2686,4.2731,4.2791,4.2791,4.2985,4.3275,4.297,4.2641,4.2381,4.1662,4.0965,4.0382,3.9649,3.8975,3.8392,3.8033,3.7494,3.6791,3.6118,3.6148,3.6881,3.6267,3.5804,3.5504,3.5489,3.5489,3.5489,3.5489,3.5355,3.5087,3.4053,3.3365,3.3051,3.1435,3.0058,2.9071,2.7425,2.5884,0.0,0.0,0.0,0.0,0.0,0.0,0.0,0.0,0.0,0.0,0.0,2.4059,2.5294,2.6318,2.72,2.7884,2.7934,2.8214,2.8828,2.8903,2.925,3.0238,3.0672,3.127,3.2287,3.2991,3.3664,3.4414,3.4741,3.5055,3.5459,3.5175,3.507,3.5415,3.5489,3.5489,3.5489,3.5489,3.5489,3.5489,3.5489,3.537,3.5026,3.4936,3.4801,3.4442,3.4128,3.3933,3.3888,3.3395,3.2961,3.2916,3.2392,3.1959,3.1899,3.1705,3.1525,3.1496,3.1496,3.1496,4.8042,4.7429,4.7429,4.7384,4.7264,4.6696,4.677,4.7264,4.6696,4.6369,4.6292,4.5693,4.5379,4.5289,4.5289,4.4975,4.4451,4.4436,4.4092,4.3424,4.3409,4.3379,4.3305,4.3305,4.303,4.253,4.2425,4.1826,4.0666,4.0487,3.9798,3.8676,3.8556,3.8512,3.8497,3.7958,3.7584,3.7404,3.6881,3.6327,3.5759,3.5669,3.5624,3.5639,3.5549,3.519,3.4502,3.3844,3.3185,3.2512,3.1315,3.0357,2.9714,2.8528,2.7275,0.0,2.5352,0.0,0.0,0.0,0.0,0.0,0.0,0.0,0.0,2.5008,2.589,2.7809,2.8487,2.9146,2.9879,2.9953,3.0208,3.0806,3.0896,3.136,3.2482,3.2706,3.2976,3.3559,3.4203,3.4638,3.4683,3.5145,3.5489,3.5489,3.5474,3.5444,3.5489,3.5489,3.5489,3.5489,3.5489,3.5489,3.5489,3.5489,3.5489,3.5474,3.5444,3.5489,3.5429,3.4981,3.4653,3.4593,3.4099,3.3634,3.3634,3.3021,3.2497,3.2437,3.1944,3.1525,3.1496,3.1496,3.1496,4.873,4.8102,4.8102,4.7803,4.7294,4.7174,4.7189,4.7294,4.7174,4.6815,4.6322,4.6187,4.5813,4.5304,4.5289,4.5214,4.511,4.511,4.4766,4.4122,4.4082,4.3853,4.3319,4.3305,4.3215,4.312,4.2626,4.2276,4.2006,4.092,4.0262,4.0008,3.9484,3.923,3.9215,0.0,0.0,0.0,3.73,3.718,3.7045,3.6567,3.6297,3.6297,3.5789,0.0,3.4502,3.3844,3.32,3.2527,3.1735,0.0,0.0,0.0,0.0,0.0,0.0,0.0,0.0,0.0,0.0,0.0,2.8113,2.7694,2.6393,2.7215,2.8427,2.9804,3.0073,3.0642,3.1839,3.1958,3.2228,3.2841,3.2931,3.3036,3.3305,3.3784,3.4189,3.4309,3.4891,3.5295,3.5295,3.5444,3.5489,3.5489,3.5489,3.5489,3.5489,3.5489,3.5489,3.5489,3.5489,3.5489,3.5489,3.5489,3.5489,3.5489,3.5489,3.5489,3.5474,3.5429,3.5295,3.5265,3.4756,3.4324,3.4277,3.335,3.2572,3.2512,3.1989,3.1496,3.1496,3.1496,3.1496,4.9359,0.0,4.882,4.8581,0.0,4.7923,4.7788,4.7758,4.7444,4.7115,4.6815,4.68,4.6621,4.6277,4.6277,4.6112,4.5798,4.5798,4.5454,4.4811,4.4811,4.4451,4.3783,4.3783,4.3643,4.3275,4.3,4.2671,4.2381,4.1737,4.104,4.0412,4.0053,3.9738,3.9403,3.9388,3.8916,3.7898,3.7883,3.7734,3.7419,3.7105,3.6791,3.6525,0.0,0.0,0.0,0.0,0.0,0.0,0.0,0.0,0.0,0.0,0.0,3.0046,2.9714,2.9535,2.9535,2.952,2.9684,3.0001,3.0657,3.0462,2.9131,2.9953,3.0806,3.142,3.1779,3.2258,3.2901,3.3006,3.326,3.3888,3.3978,3.4098,3.4442,3.4786,3.4981,3.5011,3.5295,3.5489,3.5489,3.5489,3.5489,3.5489,3.5489,3.5489,3.5489,3.5489,3.5489,3.5489,3.5489,3.5489,3.5489,3.5489,3.5489,3.5489,3.5489,3.5489,3.5489,3.5489,3.5489,3.5474,3.5205,3.4996,3.4921,3.4158,3.3515,3.338,3.2691,3.2019,3.1974,3.1735,3.1496,5.0032,4.9494,4.9479,4.9419,4.9269,4.873,4.8401,4.8237,0.0,0.0,0.0,4.7309,4.7309,4.7309,4.7309,4.701,4.6501,4.6486,4.6127,4.5484,4.5469,4.5125,4.4496,4.4377,4.4032,4.3469,4.3349,4.306,4.2575,4.2455,4.1856,4.0831,4.0651,4.0262,3.9634,3.9433,3.914,3.8601,3.8571,3.8317,3.7778,3.7644,3.7285,3.6671,3.6585,3.5896,3.4532,3.4503,3.4204,3.3529,3.2991,3.2691,3.2677,3.2153,3.1854,3.1854,3.1854,3.1854,3.1854,3.1854,3.1914,3.2004,3.2527,3.2557,3.1914,3.2333,3.2736,3.2856,3.335,3.3694,3.3829,3.3858,3.4068,3.4607,3.4651,3.4876,3.54,3.5489,3.5459,3.5489,3.5489,3.5489,3.5489,3.5489,3.5489,3.5489,3.5489,3.5489,3.5489,3.5489,3.5489,3.5489,3.5489,3.5489,3.5489,3.5489,3.5489,3.5489,3.5489,3.5489,3.5489,3.5489,3.5489,3.5489,3.5489,3.5474,3.5444,3.4876,3.4533,3.4488,3.3529,3.2691,3.2632,3.2123,3.169,5.0705,5.0046,5.0061,4.9793,4.9299,4.9224,4.8835,4.8252,4.7593,4.7309,4.7309,4.7309,4.7309,4.7309,4.7309,4.7264,4.7174,4.7174,4.6815,0.0,4.613,4.5828,4.514,4.4586,4.4257,4.4137,4.3574,4.326,4.3095,4.2626,4.2276,4.2066,4.1557,4.0905,4.0277,3.9657,3.9343,3.9239,3.9275,3.923,3.914,3.8556,3.7943,3.73,3.6776,3.5863,3.4563,3.4487,3.4204,3.3529,3.341,3.3365,3.335,3.326,3.3215,3.3215,3.3215,3.323,3.3215,3.3215,3.3469,3.3993,3.4189,3.3918,3.329,3.329,3.3589,3.4128,3.4292,3.4623,3.5115,3.516,3.5175,3.531,3.534,3.5415,3.5489,3.5489,3.5489,3.5489,3.5489,3.5489,3.5489,3.5489,3.5489,3.5489,3.5489,3.5489,3.5489,3.5489,3.5489,3.5489,3.5489,3.5489,3.5504,3.5504,3.5457,3.5489,3.5472,3.5472,3.5457,3.5424,3.5457,3.5504,3.5472,3.5504,3.5504,3.4951,3.4653,3.4548,3.3873,3.338,3.335,3.2826,3.2183,5.1003,5.0734,5.0719,5.0601,5.0301,4.9942,4.9419,4.8865,4.8506,4.7952,4.7324,4.7309,4.7309,4.7309,4.7309,4.7309,4.7309,4.7309,4.716,4.6875,4.686,4.6501,4.5873,4.5502,4.5035,4.4332,4.3977,4.3648,4.329,4.303,4.2716,4.2381,4.1752,4.1235,4.0905,4.0277,3.9948,3.9948,3.9604,3.9388,3.9409,3.911,3.8631,3.7943,3.7659,3.7075,3.6103,3.5744,3.5429,3.5162,3.4444,3.4023,3.4023,3.4023,3.4054,3.4053,3.4382,3.4577,3.4592,3.4921,3.5235,3.5582,3.5878,3.5953,3.5654,3.4981,3.4711,3.5011,3.5026,3.5145,3.5474,3.5489,3.5489,3.5489,3.5489,3.5489,3.5489,3.5489,3.5489,3.5489,3.5489,3.5489,3.5489,3.5489,3.5489,3.5489,3.5489,3.5489,3.5489,3.5489,3.5489,3.5489,3.5489,3.5489,3.5472,3.5407,3.5359,3.5326,3.5246,3.518,3.5195,3.518,3.5213,3.5326,3.5326,3.5407,3.5457,3.5265,3.507,3.4966,3.4518,3.4129,3.3994,3.3499,3.2736,5.1229,5.1229,5.1229,5.1229,5.1169,5.0629,5.0092,4.9508,4.9479,4.8835,4.7833,4.7743,4.7668,4.7519,4.7519,4.7444,4.7324,4.7309,4.7309,4.7309,4.7309,4.704,4.6561,4.6411,4.5726,4.4811,4.4466,4.4047,4.3544,4.3379,4.3075,4.2566,4.1961,4.1647,4.1632,4.095,4.0621,4.0591,4.0127,3.9723,3.9388,3.9388,3.908,3.8452,3.8377,3.8078,3.7434,3.6941,3.6701,3.6641,3.5699,3.5162,3.5145,3.5162,3.5145,3.519,3.5639,3.5938,3.5968,3.6402,3.6686,3.6716,3.7135,3.7404,3.733,3.6522,3.5923,3.5938,3.5953,3.5968,3.5983,3.5968,3.5878,3.5759,3.5729,3.5669,3.5534,3.5489,3.5489,3.5489,3.5489,3.5489,3.5489,3.5489,3.5489,3.5489,3.5489,3.5489,3.5489,3.5489,3.5504,3.5439,3.5439,3.5439,3.5392,3.5228,3.5096,3.5082,3.4902,3.4835,3.4802,3.4802,3.4868,3.5016,3.5096,3.5162,3.5294,3.5329,3.5282,3.5222,3.485,3.4524,3.4349,3.4053,3.329,5.1229,5.1229,5.1229,5.1229,5.1214,5.1139,5.0689,5.0136,5.0106,4.9763,4.9164,4.9134,4.8745,4.8252,4.8192,4.7893,4.7369,4.7309,4.7324,4.7309,4.7309,4.7264,4.713,4.6563,4.6234,4.5948,4.4889,4.4377,4.4197,4.3589,4.3275,4.314,4.2596,4.2306,4.2231,4.1662,4.1332,4.1332,4.1272,4.0621,3.9463,3.9388,3.908,3.8407,3.8392,3.8078,3.7524,3.7345,3.733,3.7315,3.718,3.7105,3.709,3.7105,3.712,3.7075,3.7165,3.724,3.721,3.7285,3.733,3.733,3.7419,3.7479,3.7464,3.7345,3.724,3.7225,3.7225,3.712,3.7225,3.7165,3.6896,3.6447,3.6387,3.6178,3.5714,3.5489,3.5489,3.5489,3.5534,3.5489,3.5489,3.5489,3.5489,3.5489,3.5489,3.5489,3.5504,3.5472,3.5439,3.5294,3.5228,3.5228,3.5195,3.4931,3.4765,3.4683,3.4534,3.4399,3.4366,3.4399,3.4515,3.4501,3.4698,3.475,3.4916,3.4968,3.4968,3.5016,3.4868,3.4738,3.4396,3.4332,3.3857,5.1229,5.1229,5.1229,5.1229,5.1229,5.1229,5.1018,5.0794,5.081,5.0661,5.0451,5.0421,4.9853,4.8895,4.891,4.855,4.7908,4.7893,4.7668,4.7339,4.7309,4.7309,4.7279,4.704,4.6711,4.6279,4.5711,4.5274,4.484,4.4242,4.3678,4.3319,4.3045,4.294,4.2895,4.2282,4.1991,4.1991,4.1579,4.1153,4.0606,4.0187,3.9873,3.9574,3.92,3.8901,3.8586,3.8227,3.7988,3.7958,3.7614,3.7404,3.7404,3.7404,3.7404,3.7404,3.7404,3.7404,3.7419,3.7778,3.7988,3.8003,3.8377,3.8566,3.8601,3.8566,3.8601,3.8512,3.7898,3.7404,3.7419,3.7404,3.73,3.7075,3.703,3.6911,3.6671,3.6282,3.6073,3.6073,3.5744,3.5504,3.5489,3.5489,3.5489,3.5489,3.5489,3.5489,3.5504,3.5392,3.5294,3.5195,3.4949,3.4817,3.4817,3.4481,3.423,3.4128,3.3908,3.3736,3.3597,3.3701,3.3805,3.3874,3.4025,3.4264,3.4582,3.4716,3.4783,3.4783,3.4798,3.4747,3.4777,3.4845,3.4509,5.1229,5.1229,5.1229,5.1229,5.1229,5.1229,5.1229,5.1229,5.1229,5.1229,5.1229,5.1229,5.0705,4.9868,4.9613,4.9164,4.8611,4.8551,4.8192,4.7623,4.7578,4.7489,4.7324,4.7309,4.7055,4.6593,4.6354,4.5948,4.5319,4.484,4.4257,4.3648,4.3559,4.3469,4.326,4.2836,4.2626,4.2581,4.2132,4.1908,4.1833,4.1265,4.0861,4.0651,4.0217,3.9888,3.9679,3.9215,3.8841,3.8676,3.8212,3.7958,3.7958,3.7958,3.7958,3.7958,3.7958,3.7973,3.7958,3.8407,3.8676,3.8706,3.9155,3.9388,3.9388,3.9388,3.9388,3.9284,3.8491,3.8003,3.7958,3.7958,3.7898,3.7719,3.7674,3.7629,3.7389,3.6971,3.6731,3.6686,3.6207,3.5684,3.5549,3.5489,3.5489,3.5489,3.5489,3.5489,3.5472,3.5326,3.5195,3.5063,3.4616,3.4346,3.4366,3.3957,3.3632,3.3374,3.3129,3.2868,3.2739,3.2846,3.2988,3.3058,3.3304,3.3597,3.3942,3.4196,3.4428,3.4496,3.4563,3.4664,3.4876,3.5067,3.5053,5.1229,5.1229,5.1229,5.1229,5.1229,5.1229,5.1229,5.1229,5.1229,5.1229,5.1229,5.1229,5.1184,5.1005,5.0436,4.9823,4.9329,4.9269,4.8865,4.8282,4.8252,4.7908,4.7324,4.7309,4.7279,4.7145,4.6666,4.6037,4.5364,4.5274,4.4915,4.4317,4.4272,4.3932,4.3424,4.3305,4.3245,4.317,4.311,4.314,4.308,4.2551,4.1976,4.1444,4.128,4.092,4.0442,4.0322,4.0038,3.9373,3.9364,3.9334,3.932,3.9334,3.9334,3.9305,3.9269,3.929,3.9224,3.9275,3.9284,3.9313,3.9328,3.9388,3.9388,3.9388,3.9388,3.9388,3.9239,3.9149,3.9149,3.9044,3.8916,3.8422,3.8362,3.8078,3.7554,3.7494,3.7375,3.7285,3.6821,3.6282,3.5669,3.5489,3.5564,3.5564,3.5534,3.5489,3.5457,3.5326,3.5082,3.4716,3.4298,3.3825,3.3796,3.3325,3.2881,3.2632,3.2381,3.2078,3.2019,3.1982,3.2092,3.2237,3.2525,3.2846,3.3248,3.3542,3.3764,3.3951,3.4176,3.438,3.4683,3.4983,3.5077,5.1229,5.1229,5.1229,5.1229,5.1229,5.1229,5.1229,5.1229,5.1229,5.1229,5.1229,5.1229,5.1229,5.1152,5.0928,5.0465,4.9927,4.9883,4.9538,4.897,4.8955,4.8566,4.7982,4.7938,4.7683,4.7309,4.707,4.6606,4.6022,4.5948,4.5603,4.505,4.496,4.4616,4.4077,4.3958,4.3723,4.3349,4.3305,4.3305,4.329,4.3105,4.2865,4.2611,4.1803,4.1317,4.104,4.104,4.092,4.0696,4.0666,4.0681,4.0681,4.0666,4.0472,4.0098,4.0053,3.9858,3.9499,3.9388,3.9388,3.9388,3.9388,3.9433,3.9388,3.9388,3.9388,3.9403,3.9388,3.9388,3.9388,3.9388,3.932,3.9125,3.9035,3.8931,3.8676,3.8332,3.8048,3.7943,3.7479,3.6971,3.6671,3.6387,3.6148,3.6088,3.5789,3.5579,3.5439,3.5228,3.4979,3.4664,3.4108,3.3472,3.2903,3.2547,3.2128,3.1909,3.1666,3.1371,3.1222,3.131,3.1458,3.1408,3.169,3.2214,3.261,3.3072,3.3262,3.3695,3.3902,3.4025,3.438,3.4616,3.4916,5.1229,5.1229,5.1229,5.1229,5.1229,5.1229,5.1229,5.1229,5.1229,5.1229,5.1229,5.1229,5.1229,5.1229,5.1229,5.099,5.0524,5.051,5.0212,4.9613,4.9583,4.9239,4.8656,4.8371,4.8057,4.7638,4.7384,4.707,4.6653,4.6636,4.6277,4.5663,4.5618,4.5289,4.4736,4.4631,4.4302,4.3778,4.3618,4.3544,4.3349,4.3305,4.3305,4.3185,4.2462,4.1908,4.1767,4.1737,4.1617,4.1414,4.1422,4.1422,4.1422,4.1422,4.1227,4.0786,4.0726,4.0531,4.0127,4.0053,4.0068,4.0053,4.0068,4.0053,4.0053,4.0038,3.9963,3.9813,3.9738,3.9657,3.9433,3.9388,3.9388,3.9388,3.9388,3.9388,3.9373,3.9005,3.8646,3.8362,3.8003,3.7659,3.7404,3.7015,3.6821,3.6791,3.6357,3.6133,3.6085,3.5644,3.5226,3.4893,3.4154,3.3312,3.2561,3.1996,3.1593,3.131,3.111,3.0785,3.0647,3.0723,3.0761,3.0685,3.0973,3.1532,3.2032,3.2489,3.2931,3.3403,3.3507,3.3528,3.3874,3.4196,3.4501,5.1229,5.1229,5.1229,5.1229,5.1229,5.1229,5.1229,5.1229,5.1229,5.1229,5.1229,5.1229,5.1229,5.1229,5.1229,5.1199,5.1139,5.1109,5.0764,5.024,5.0211,4.9898,4.9254,4.8745,4.8371,4.8177,4.7638,4.7324,4.7234,4.7189,4.689,4.6384,4.6279,4.5978,4.5304,4.5289,4.4975,4.4451,4.4317,4.4032,4.3424,4.3469,4.3454,4.3379,4.326,4.297,4.2425,4.241,4.2156,4.1594,4.1519,4.1429,4.1549,4.1564,4.1444,4.1414,4.1384,4.1369,4.1347,4.1272,4.1197,4.116,4.1332,4.1212,4.1115,4.1197,4.0965,4.0516,4.0382,4.0202,3.9657,3.9508,3.9463,3.9388,3.9388,3.9388,3.9424,3.9409,3.917,3.8631,3.8407,3.8138,3.7659,3.7464,3.7434,3.7404,3.727,3.715,3.7026,3.6563,3.6035,3.5394,3.4536,3.3522,3.2504,3.1532,3.1136,3.0773,3.0571,3.0343,3.0267,3.0318,3.0343,3.0305,3.0685,3.1235,3.1753,3.2178,3.2431,3.2753,3.2846,3.3023,3.3374,3.3736,3.4162,5.1229,5.1229,5.1229,5.1229,5.1229,5.1229,5.1229,5.1229,5.1229,5.1229,5.1229,5.1229,5.1229,5.1229,5.1229,5.1229,5.1229,5.1214,5.1094,5.0883,5.0885,5.0556,5.0002,4.9672,4.9149,4.8386,4.8087,4.7743,4.7399,4.7324,4.7174,4.704,4.701,4.6651,4.6022,4.5992,4.5663,4.508,4.499,4.487,4.4691,4.4661,4.4466,4.4062,4.4003,4.3663,4.309,4.303,4.2925,4.2701,4.2731,4.2731,4.2716,4.2731,4.2521,4.2156,4.2081,4.1856,4.1482,4.1452,4.1467,4.1452,4.1452,4.1422,4.1422,4.1467,4.1377,4.11,4.107,4.0988,4.0756,4.0337,3.9963,3.9484,3.9388,3.9388,3.9388,3.9388,3.9313,3.917,3.9095,3.8975,3.8736,3.8452,3.8093,3.8048,3.7764,3.7494,3.7385,3.7193,3.6739,3.6213,3.5059,3.3931,3.2919,3.191,3.1166,3.0661,3.0305,3.0113,3.0011,2.9972,2.9972,3.0113,3.0495,3.0911,3.1421,3.1753,3.1936,3.2119,3.2264,3.2538,3.2881,3.3234,3.3597,5.1229,5.1229,5.1229,5.1229,5.1229,5.1229,5.1229,5.1229,5.1229,5.1229,5.1229,5.1229,5.1229,5.1229,5.1229,5.1229,5.1229,5.1229,5.1229,5.1229,5.1229,5.0975,5.0539,5.0285,4.9703,4.8835,4.8641,4.8446,4.8027,4.7788,4.7668,4.7653,4.7429,4.7115,4.6726,4.6623,4.6367,4.5783,4.5678,4.5559,4.5334,4.5289,4.511,4.4736,4.4691,4.4466,4.4092,4.4022,4.3783,4.3409,4.3305,4.3305,4.3305,4.326,4.3095,4.2836,4.274,4.2536,4.2147,4.2177,4.2102,4.2117,4.2117,4.2117,4.2117,4.2102,4.2043,4.1826,4.1782,4.1677,4.1354,4.104,4.0561,4.0217,3.9694,3.9433,3.9388,3.9388,3.9388,3.9343,3.9358,3.9388,3.9269,3.9125,3.8781,3.8706,3.8422,3.8167,3.8073,3.7888,3.7469,3.689,3.5905,3.4701,3.3505,3.2404,3.1273,3.0649,3.0126,2.9972,2.9856,2.9869,2.9869,2.9998,3.0305,3.0571,3.1011,3.1136,3.1323,3.1471,3.1656,3.1863,3.2164,3.2489,3.2881,5.1229,5.1229,5.1229,5.1229,5.1229,5.1229,5.1229,5.1229,5.1229,5.1229,5.1229,5.1229,5.1229,5.1229,5.1229,5.1229,5.1229,5.1229,5.1229,5.1229,5.1229,5.1154,5.105,5.0584,5.0032,4.9419,4.9314,4.9299,4.906,4.8566,4.8341,4.8297,4.7758,4.7384,4.7339,4.7339,4.695,4.6441,4.6367,4.6082,4.5559,4.5499,4.5424,4.5364,4.5349,4.5274,4.511,4.5065,4.4586,4.3559,4.3439,4.3409,4.3319,4.3305,4.3275,4.32,4.326,4.323,4.3245,4.308,4.311,4.308,4.308,4.329,4.311,4.3021,4.2895,4.2476,4.2455,4.2231,4.1743,4.1474,4.1437,4.1205,4.0247,3.9612,3.9499,3.9448,3.9388,3.9388,3.9388,3.9388,3.9388,3.9328,3.9313,3.9298,3.926,3.9134,3.9044,3.8629,3.8228,3.7525,3.6686,3.5577,3.4404,3.2981,3.1925,3.1281,3.0571,3.0072,2.9829,2.9792,2.983,2.9972,3.0113,3.0343,3.0495,3.0685,3.0849,3.0986,3.1123,3.1198,3.1445,3.18,3.2273,5.1229,5.1229,5.1229,5.1229,5.1229,5.1229,5.1229,5.1229,5.1259,5.1319,5.1259,5.1229,5.1304,5.1229,5.1259,5.1229,5.1304,5.1274,5.1229,5.1229,5.1229,5.1229,5.1214,5.105,5.0616,5.0062,4.9957,4.9733,4.9329,4.9164,4.9045,4.903,4.8371,4.8027,4.7982,4.7578,4.7249,4.707,4.704,4.695,4.677,4.6711,4.6531,4.6082,4.6052,4.5813,4.5379,4.5289,4.493,4.4167,4.4062,4.3808,4.3424,4.3379,4.3424,4.3409,4.3334,4.3319,4.3319,4.3305,4.3305,4.3305,4.3305,4.3305,4.3305,4.3305,4.32,4.3075,4.3075,4.3,4.2746,4.2372,4.1991,4.1369,4.0711,4.0187,4.0083,3.9723,3.9388,3.9388,3.9418,3.9433,3.9388,3.9388,3.9388,3.9388,3.9388,3.9388,3.9298,3.9254,3.8796,3.831,3.7484,3.6436,3.5245,3.3754,3.2685,3.2005,3.1237,3.027,3.0018,2.9792,2.9792,2.9869,2.9998,3.019,3.0254,3.0368,3.0482,3.0571,3.0609,3.071,3.0898,3.1222,3.174,5.1229,5.1229,5.1229,5.1379,5.1618,5.1633,5.1783,5.2022,5.2037,5.2037,5.2037,5.2037,5.2052,5.2037,5.2052,5.2052,5.2052,5.2052,5.2067,5.1992,5.1783,5.1513,5.1304,5.1214,5.1005,5.0659,5.0599,5.0466,5.0107,4.9823,4.9688,4.9553,4.9015,4.8701,4.87,4.8057,4.7713,4.7653,4.7489,4.7309,4.7309,4.7309,4.713,4.6785,4.6741,4.6501,4.6187,4.6142,4.5723,4.496,4.4706,4.4541,4.4212,4.4152,4.4112,4.4097,4.3913,4.3708,4.3633,4.3469,4.3305,4.3305,4.3305,4.3305,4.3305,4.3305,4.3305,4.3275,4.3305,4.3305,4.323,4.297,4.2626,4.2267,4.1609,4.1168,4.0861,4.0516,4.0142,3.9948,3.9828,3.9694,3.9499,3.9403,3.9388,3.9388,3.9388,3.9388,3.9373,3.9388,3.925,3.8671,3.806,3.7043,3.5847,3.4409,3.3067,3.2446,3.1745,3.0786,3.0244,2.993,2.9842,2.9893,2.992,2.996,3.0037,3.0075,3.0088,3.0164,3.0152,3.0228,3.0495,3.0748,3.1222,5.1229,5.1229,5.1289,5.1663,5.2094,5.2229,5.2542,5.3021,5.3006,5.3069,5.3054,5.3129,5.298,5.3174,5.292,5.3099,5.3099,5.2965,5.3039,5.286,5.2546,5.2067,5.1663,5.1319,5.1199,5.1124,5.1199,5.1154,5.09,5.048,5.0315,5.0182,4.9688,4.9449,4.9284,4.8716,4.8431,4.8297,4.7967,4.7758,4.7698,4.7623,4.7489,4.7429,4.7219,4.7204,4.7145,4.713,4.6696,4.5559,4.5439,4.5319,4.5274,4.5244,4.5229,4.5095,4.4676,4.4421,4.4347,4.3917,4.3604,4.3663,4.3633,4.3499,4.3633,4.3618,4.3514,4.3514,4.3364,4.3305,4.329,4.326,4.3185,4.2991,4.2656,4.2231,4.1728,4.1459,4.1145,4.0621,4.0502,4.0187,3.9768,3.9514,3.9463,3.9388,3.9388,3.9388,3.9388,3.9388,3.9177,3.8826,3.8192,3.7566,3.6354,3.508,3.3768,3.2717,3.2059,3.126,3.057,3.0218,3.003,2.9981,2.9995,2.9932,2.9856,2.9856,2.9869,2.9869,2.9972,3.0011,3.0088,3.0381,3.0785,5.1229,5.1259,5.1783,5.1924,5.1988,5.2464,5.2777,5.294,5.2926,5.3113,5.3204,5.3204,5.3234,5.3219,5.3343,5.3174,5.3294,5.3343,5.3174,5.3159,5.3084,5.292,5.2501,5.1828,5.1289,5.1274,5.1244,5.1229,5.1139,5.1018,5.0958,5.0885,5.0361,5.0001,4.9942,4.9404,4.9105,4.9075,4.891,4.879,4.8611,4.8282,4.8072,4.8042,4.7608,4.7339,4.7309,4.7309,4.716,4.683,4.6381,4.5903,4.5544,4.5409,4.5424,4.5394,4.5259,4.5095,4.5035,4.49,4.4855,4.4736,4.4691,4.487,4.4825,4.4347,4.4152,4.4003,4.3618,4.3454,4.3364,4.3319,4.3305,4.323,4.3125,4.3015,4.2776,4.2013,4.1474,4.1235,4.1145,4.0935,4.0307,4.0202,3.9993,3.9553,3.9448,3.9418,3.9433,3.9478,3.92,3.8892,3.8294,3.7643,3.6623,3.5342,3.4083,3.3101,3.2422,3.1989,3.1286,3.0708,3.0583,3.0319,3.0043,2.9955,2.9854,2.9779,2.983,2.9779,2.9779,2.9856,2.9934,3.0164,3.0419,5.1073,5.1242,5.1789,5.2092,5.2367,5.2842,5.3222,5.3509,5.3683,5.3833,5.3918,5.4067,5.4117,5.4117,5.4132,5.4147,5.4132,5.4132,5.4132,5.4072,5.3862,5.3668,5.3488,5.268,5.2022,5.1723,5.1349,5.1244,5.1229,5.1229,5.1184,5.1214,5.0794,5.0674,5.0554,5.0047,4.9748,4.9628,4.9404,4.9299,4.9224,4.9,4.879,4.8626,4.8132,4.7773,4.7788,4.7444,4.7339,4.7219,4.6965,4.6593,4.6322,4.6217,4.6232,4.6217,4.5903,4.5813,4.5753,4.5484,4.5244,4.5319,4.5289,4.5289,4.5259,4.4945,4.4811,4.4706,4.4466,4.4142,4.3783,4.3409,4.3349,4.3305,4.3305,4.3305,4.317,4.2701,4.2147,4.1968,4.1886,4.1489,4.1145,4.092,4.0786,4.0487,4.0472,4.0412,3.9905,3.9853,3.9357,3.8974,3.8396,3.7682,3.6794,3.5588,3.4243,3.3434,3.2895,3.2621,3.2277,3.1712,3.1223,3.0846,3.0444,3.0068,2.9942,2.9867,2.9817,2.9779,2.9779,2.9779,2.9895,3.0164,3.0381,5.0976,5.1329,5.1747,5.2303,5.2793,5.3257,5.3634,5.4127,5.4502,5.4522,5.4839,5.5093,5.4985,5.5134,5.5089,5.5164,5.5134,5.5104,5.4955,5.491,5.4536,5.4371,5.4162,5.3608,5.3025,5.2456,5.1798,5.1483,5.1409,5.1259,5.1229,5.1167,5.1214,5.1109,5.102,5.0674,5.0345,5.0316,4.9987,4.9793,4.9658,4.9538,4.9374,4.912,4.8805,4.8446,4.8356,4.8042,4.7683,4.7593,4.7519,4.7459,4.7429,4.7324,4.7309,4.7234,4.6711,4.6501,4.6396,4.6052,4.5738,4.5589,4.5633,4.5648,4.5678,4.5574,4.5469,4.5394,4.5214,4.4945,4.4496,4.4097,4.3693,4.3529,4.3469,4.3394,4.3305,4.3305,4.2955,4.2656,4.2476,4.2207,4.1818,4.1572,4.1474,4.1414,4.1399,4.1227,4.0688,4.0144,3.9587,3.8935,3.8353,3.7289,3.6336,3.5453,3.4124,3.3661,3.3182,3.3041,3.296,3.2528,3.1913,3.1286,3.0846,3.0495,3.0218,3.0143,3.0055,2.9892,2.9779,2.9818,2.9972,3.0152,3.0432,5.0973,5.1776,5.2367,5.2723,5.2938,5.3339,5.3541,5.3643,5.3971,5.4348,5.4788,5.5093,5.5194,5.5194,5.5194,5.5194,5.5194,5.5194,5.5194,5.5194,5.4985,5.494,5.479,5.4341,5.3937,5.3563,5.274,5.2142,5.1902,5.1528,5.1483,5.1304,5.1334,5.1349,5.1304,5.1094,5.102,5.093,5.0765,5.069,5.0601,5.0287,4.9883,4.9554,4.9284,4.9164,4.9134,4.9,4.894,4.8895,4.8416,4.8177,4.8012,4.7653,4.7384,4.7264,4.716,4.701,4.698,4.698,4.6935,4.698,4.6845,4.686,4.677,4.6471,4.6202,4.6007,4.5678,4.5259,4.5155,4.487,4.4646,4.4347,4.4082,4.3902,4.3514,4.3364,4.3305,4.309,4.303,4.294,4.2506,4.2124,4.2034,4.1814,4.1608,4.1421,4.1041,4.0377,3.9698,3.899,3.8261,3.7041,3.579,3.4922,3.3966,3.367,3.333,3.3129,3.3061,3.3018,3.2591,3.1976,3.1436,3.106,3.0796,3.0545,3.0396,3.0335,3.0121,2.9919,3.024,3.0561,3.0623,5.0452,5.1454,5.2137,5.252,5.2755,5.3135,5.3266,5.3357,5.371,5.4126,5.4553,5.4976,5.5194,5.5194,5.5194,5.5194,5.5194,5.5194,5.5194,5.5194,5.5194,5.5194,5.5194,5.482,5.476,5.4461,5.3728,5.2995,5.271,5.2441,5.2172,5.2261,5.2232,5.2082,5.1798,5.1738,5.1528,5.1364,5.1244,5.1229,5.1229,5.0808,5.0541,5.0316,4.9927,4.9778,4.9718,4.9419,4.9299,4.9224,4.9,4.8865,4.8611,4.8207,4.7683,4.7429,4.7324,4.7309,4.7309,4.7309,4.7264,4.7279,4.7309,4.7309,4.7249,4.701,4.68,4.6666,4.6262,4.5828,4.5828,4.5559,4.5155,4.493,4.4811,4.4511,4.4022,4.3828,4.3648,4.3454,4.326,4.314,4.3006,4.2712,4.2568,4.2263,4.1918,4.1593,4.1278,4.0514,3.9725,3.8821,3.7938,3.6684,3.5491,3.4653,3.3933,3.3611,3.3356,3.321,3.3124,3.3068,3.3006,3.2679,3.2177,3.165,3.1286,3.1009,3.0901,3.0869,3.0936,3.0926,3.0906,3.0971,3.1199,4.9808,5.1023,5.1583,5.2086,5.2515,5.2876,5.3001,5.3174,5.3658,5.406,5.4355,5.4911,5.5194,5.5194,5.5194,5.5194,5.5194,5.5194,5.5194,5.5194,5.5194,5.5194,5.5194,5.5194,5.5134,5.4985,5.464,5.4042,5.3458,5.3114,5.3129,5.301,5.3114,5.2965,5.2501,5.2396,5.1977,5.1618,5.1409,5.1379,5.1259,5.1229,5.1229,5.1214,5.0659,5.0375,5.0345,5.0077,4.9838,4.9748,4.9598,4.9464,4.9359,4.8835,4.8252,4.7788,4.7489,4.7324,4.7309,4.7309,4.7309,4.7309,4.7309,4.7309,4.7309,4.7264,4.7249,4.7204,4.689,4.6516,4.6456,4.6067,4.5723,4.5514,4.5469,4.5274,4.4766,4.4436,4.4167,4.3928,4.3589,4.3364,4.3245,4.2967,4.2748,4.2429,4.2081,4.1578,4.1184,4.0392,3.9555,3.8585,3.7524,3.6262,3.5215,3.4484,3.3875,3.3539,3.3326,3.3124,3.3124,3.3124,3.3061,3.2955,3.2754,3.2252,3.1905,3.1593,3.1539,3.1597,3.186,3.196,3.1863,3.2121,3.249,4.9184,5.0872,5.1148,5.1817,5.253,5.2677,5.2734,5.2826,5.3553,5.4045,5.4355,5.4911,5.5194,5.5194,5.5194,5.5194,5.5194,5.5194,5.5194,5.5194,5.5194,5.5194,5.5194,5.5194,5.5194,5.5179,5.5074,5.47,5.4147,5.3578,5.3309,5.3339,5.3399,5.3144,5.3114,5.3069,5.271,5.2202,5.2082,5.1828,5.1364,5.1289,5.1289,5.1199,5.1109,5.1005,5.099,5.0795,5.0795,5.078,5.0361,5.0152,5.0032,4.9523,4.9209,4.8716,4.8087,4.7309,4.7384,4.7429,4.7339,4.7339,4.7309,4.7309,4.7309,4.7309,4.7309,4.7309,4.7174,4.71,4.707,4.704,4.6741,4.6426,4.6172,4.5828,4.5364,4.517,4.4885,4.4392,4.4092,4.3708,4.3429,4.315,4.2886,4.2592,4.217,4.1601,4.0929,4.0041,3.9071,3.7954,3.7342,3.6158,3.5318,3.455,3.4125,3.3647,3.3391,3.3262,3.3262,3.3275,3.3124,3.3048,3.288,3.2742,3.234,3.2164,3.2165,3.236,3.2684,3.2787,3.283,3.3206,3.3718,4.7608,4.9837,5.0114,5.1007,5.2096,5.2167,5.2397,5.2787,5.3237,5.38,5.4318,5.4758,5.5042,5.5143,5.5194,5.5194,5.5194,5.5194,5.5194,5.5194,5.5194,5.5194,5.5194,5.5194,5.5194,5.5194,5.5179,5.5089,5.467,5.4506,5.4326,5.4266,5.4251,5.4147,5.3817,5.3758,5.3354,5.2935,5.271,5.2411,5.1962,5.1753,5.1603,5.1259,5.1244,5.1244,5.1229,5.1229,5.1229,5.1184,5.087,5.0749,5.0646,5.0227,4.9808,4.9718,4.897,4.8312,4.7952,4.7878,4.7698,4.7399,4.7339,4.7309,4.7309,4.7309,4.7309,4.7309,4.7309,4.7309,4.7309,4.7309,4.716,4.695,4.677,4.6441,4.6067,4.5933,4.5648,4.5095,4.453,4.4191,4.3767,4.3197,4.2751,4.217,4.159,4.0887,4.0116,3.9264,3.8246,3.7091,3.6655,3.6176,3.5517,3.4819,3.4692,3.4237,3.3827,3.3646,3.3508,3.342,3.3375,3.3212,3.3031,3.288,3.2692,3.2815,3.2873,3.3183,3.353,3.3753,3.3979,3.446,3.4927,4.5909,4.8328,4.8881,4.9976,5.1471,5.1609,5.195,5.2451,5.2919,5.3486,5.4075,5.4568,5.4941,5.5093,5.5143,5.5194,5.5194,5.5194,5.5194,5.5194,5.5194,5.5194,5.5194,5.5194,5.5194,5.5194,5.5194,5.5149,5.5164,5.5104,5.5044,5.5194,5.4985,5.4865,5.4581,5.4401,5.4117,5.3503,5.3219,5.2875,5.2531,5.2441,5.2052,5.1693,5.1454,5.1347,5.1244,5.1229,5.1229,5.1214,5.1184,5.1124,5.105,5.075,5.045,5.0391,4.9927,4.9479,4.9,4.8656,4.8297,4.7938,4.7578,4.7653,4.7593,4.7474,4.7309,4.7309,4.7309,4.7309,4.7309,4.7309,4.7264,4.7234,4.7219,4.695,4.6711,4.6531,4.6277,4.5783,4.5248,4.4821,4.424,4.3389,4.2682,4.1912,4.1085,4.0185,3.9339,3.849,3.7723,3.6735,3.6618,3.627,3.5653,3.5153,3.5037,3.4828,3.4406,3.4148,3.4048,3.3872,3.3734,3.3533,3.3294,3.3106,3.2968,3.3318,3.3586,3.3801,3.4129,3.4835,3.5286,3.5687,3.6117,4.4558,4.6265,4.7424,4.8953,5.0628,5.1141,5.1485,5.1896,5.2691,5.3184,5.3605,5.4363,5.4686,5.4854,5.5042,5.5143,5.5194,5.5194,5.5194,5.5194,5.5194,5.5194,5.5194,5.5194,5.5194,5.5194,5.5194,5.5194,5.5194,5.5194,5.5194,5.5194,5.5194,5.5164,5.5059,5.4925,5.47,5.4132,5.3728,5.3369,5.3174,5.3054,5.2785,5.2276,5.2082,5.1872,5.1289,5.1319,5.1259,5.1259,5.1229,5.1229,5.1184,5.1079,5.0975,5.0915,5.087,5.0451,5.0017,4.9479,4.9239,4.9,4.8611,4.8222,4.8207,4.7668,4.7429,4.7444,4.7504,4.7384,4.7354,4.7309,4.7309,4.7309,4.7309,4.7219,4.707,4.71,4.6815,4.6396,4.595,4.5448,4.4768,4.3929,4.2771,4.1965,4.0215,3.9251,3.8459,3.7684,3.7268,3.673,3.6709,3.6333,3.5756,3.5512,3.5508,3.5352,3.4979,3.4796,3.4663,3.4449,3.4123,3.3947,3.3734,3.3483,3.3275,3.3457,3.3722,3.4202,3.4705,3.5292,3.6129,3.6747,3.7166,4.4066,4.5482,4.5982,4.7485,4.9656,4.9856,5.0432,5.1224,5.1609,5.2247,5.2957,5.3658,5.4075,5.4348,5.4737,5.4941,5.4991,5.5158,5.5194,5.5194,5.5194,5.5194,5.5194,5.5194,5.5194,5.5194,5.5194,5.5194,5.5194,5.5194,5.5194,5.5194,5.5194,5.5194,5.5194,5.5194,5.5014,5.4865,5.4506,5.4266,5.3847,5.3788,5.3488,5.2875,5.28,5.2456,5.1947,5.1843,5.1588,5.1349,5.1259,5.1229,5.1229,5.1229,5.1229,5.1229,5.1229,5.1065,5.0749,5.0212,4.9733,4.9314,4.906,4.8895,4.888,4.8596,4.8267,4.8117,4.7908,4.7848,4.7384,4.7324,4.7309,4.7309,4.7339,4.7369,4.7309,4.7309,4.7249,4.6785,4.6399,4.597,4.5245,4.4479,4.3212,4.1924,4.0052,3.8427,3.7762,3.7155,3.6815,3.6628,3.6581,3.6534,3.604,3.6024,3.6058,3.5806,3.5483,3.5361,3.5236,3.4776,3.4487,3.4324,3.4173,3.3922,3.3721,3.3584,3.376,3.4102,3.4825,3.5602,3.6545,3.7567,3.7984,4.3891,4.4908,4.5168,4.6566,4.8558,4.8784,4.9415,5.0278,5.0432,5.11,5.2139,5.2769,5.3314,5.3748,5.4348,5.4737,5.4839,5.5042,5.5194,5.5194,5.5194,5.5194,5.5194,5.5194,5.5194,5.5194,5.5194,5.5194,5.5194,5.5194,5.5194,5.5194,5.5194,5.5194,5.5194,5.5194,5.5194,5.5194,5.5149,5.5029,5.4521,5.4476,5.4177,5.3608,5.3488,5.3144,5.2591,5.2261,5.1932,5.1618,5.1394,5.1244,5.1229,5.1229,5.1229,5.1229,5.1229,5.1229,5.1079,5.081,5.0331,5.0062,4.9673,4.9598,4.9523,4.9404,4.888,4.8656,4.8566,4.8371,4.7848,4.8042,4.7878,4.7908,4.7773,4.7743,4.7414,4.7309,4.7309,4.716,4.6832,4.6508,4.5709,4.4807,4.3207,4.1789,3.9952,3.851,3.7795,3.7164,3.6593,3.6452,3.6452,3.6405,3.6392,3.6361,3.6341,3.6235,3.5974,3.5923,3.5688,3.5265,3.4969,3.4881,3.468,3.4387,3.4192,3.4111,3.3984,3.3946,3.4825,3.5777,3.6769,3.7749,3.8315,4.4104,4.4681,4.5208,4.634,4.7723,4.7971,4.8495,4.9186,4.9472,5.0026,5.0989,5.1785,5.2502,5.3102,5.3838,5.4385,5.4773,5.5027,5.5194,5.5194,5.5194,5.5194,5.5194,5.5194,5.5194,5.5194,5.5194,5.5194,5.5194,5.5194,5.5194,5.5194,5.5194,5.5194,5.5194,5.5194,5.5194,5.5194,5.5194,5.5134,5.5074,5.5014,5.4655,5.4341,5.4177,5.3847,5.3264,5.28,5.2501,5.2202,5.1633,5.1424,5.1379,5.1259,5.1229,5.1229,5.1229,5.1229,5.1199,5.1169,5.102,5.0855,5.0406,5.0227,5.0046,4.9778,4.9419,4.9299,4.9239,4.9254,4.9179,4.912,4.8671,4.8446,4.8312,4.8072,4.7773,4.7534,4.7578,4.7369,4.7266,4.7031,4.6226,4.5124,4.3339,4.1613,3.9788,3.8668,3.8011,3.7315,3.6729,3.665,3.665,3.6546,3.6593,3.6675,3.6637,3.6521,3.6389,3.631,3.6251,3.6015,3.5755,3.5533,3.5219,3.4881,3.4788,3.4663,3.4426,3.429,3.5071,3.599,3.7003,3.7801,3.8292,4.4116,4.4669,4.5246,4.5977,4.6802,4.7138,4.7586,4.8159,4.8508,4.9028,4.9756,5.0461,5.1362,5.2247,5.3314,5.3993,5.4473,5.5027,5.5194,5.5194,5.5194,5.5194,5.5194,5.5194,5.5194,5.5194,5.5194,5.5194,5.5194,5.5194,5.5194,5.5194,5.5194,5.5194,5.5194,5.5194,5.5194,5.5194,5.5194,5.5194,5.5194,5.5179,5.5074,5.482,5.4805,5.4491,5.3907,5.3503,5.3219,5.283,5.2217,5.1887,5.1753,5.1618,5.1274,5.1244,5.1182,5.1229,5.1229,5.1214,5.1214,5.1078,5.0973,5.0764,5.081,5.072,5.0376,5.0017,4.9927,4.9748,4.9359,4.9314,4.9075,4.906,4.891,4.861,4.8282,4.8087,4.7952,4.7519,4.7266,4.6946,4.63,4.5574,4.3984,4.2414,4.0729,3.9429,3.8601,3.7759,3.7094,3.7061,3.7042,3.6861,3.6828,3.6994,3.6922,3.6769,3.6628,3.6483,3.6461,3.6499,3.6364,3.6049,3.5764,3.5433,3.5349,3.5221,3.4724,3.4744,3.5451,3.5886,3.652,3.7327,3.7967,4.4292,4.4706,4.5447,4.5974,4.6288,4.6554,4.6959,4.7409,4.7703,4.823,4.8855,4.9459,5.0363,5.154,5.2623,5.3576,5.4149,5.4773,5.5194,5.5194,5.5194,5.5194,5.5194,5.5194,5.5194,5.5194,5.5194,5.5194,5.5194,5.5194,5.5194,5.5194,5.5194,5.5194,5.5194,5.5194,5.5194,5.5194,5.5194,5.5194,5.5194,5.5194,5.5194,5.5149,5.5104,5.494,5.461,5.4311,5.4027,5.3458,5.298,5.2561,5.2351,5.1992,5.1603,5.1558,5.1304,5.1274,5.1229,5.1229,5.1229,5.1199,5.1229,5.1229,5.1229,5.1094,5.0883,5.0644,5.0524,5.0346,5.0002,4.9868,4.9778,4.9778,4.9508,4.9224,4.879,4.8596,4.8222,4.7773,4.7296,4.6873,4.6447,4.5687,4.4741,4.3266,4.1785,4.0531,3.9264,3.8426,3.7766,3.7855,3.7791,3.7689,3.7552,3.7477,3.7312,3.7028,3.6956,3.6909,3.6769,3.6781,3.6687,3.6628,3.6421,3.6193,3.6008,3.5758,3.5455,3.5388,3.5703,3.6002,3.6194,3.6931,3.7834,4.4606,4.4782,4.5824,4.6263,4.6313,4.6313,4.6494,4.6793,4.7053,4.756,4.8185,4.874,4.97,5.0934,5.2085,5.3049,5.3904,5.4568,5.4941,5.5143,5.5194,5.5194,5.5194,5.5194,5.5194,5.5194,5.5194,5.5194,5.5194,5.5194,5.5194,5.5194,5.5194,5.5194,5.5194,5.5194,5.5194,5.5194,5.5194,5.5194,5.5194,5.5194,5.5194,5.5194,5.5164,5.5149,5.4895,5.464,5.4401,5.4012,5.3593,5.3339,5.301,5.2591,5.2351,5.2067,5.1648,5.1439,5.1364,5.1379,5.1229,5.1229,5.1229,5.1229,5.1229,5.1229,5.1124,5.1079,5.1005,5.1079,5.1035,5.0885,5.0735,5.0556,5.0255,4.9868,4.9344,4.8955,4.8551,4.8087,4.7563,4.7108,4.6653,4.5986,4.5247,4.3948,4.2541,4.1355,4.0164,3.9208,3.8789,3.8952,3.8847,3.8634,3.8514,3.8471,3.8057,3.7854,3.7631,3.7526,3.7294,3.7062,3.6968,3.6968,3.7062,3.6934,3.6708,3.6583,3.6483,3.6428,3.6437,3.6447,3.6716,3.7249,3.8022,4.4267,4.4694,4.5422,4.5949,4.6288,4.6313,4.6386,4.6421,4.6541,4.684,4.7257,4.7821,4.8957,5.0307,5.1471,5.2648,5.3696,5.4466,5.489,5.5093,5.5143,5.5194,5.5194,5.5194,5.5194,5.5194,5.5194,5.5194,5.5194,5.5194,5.5194,5.5194,5.5194,5.5194,5.5194,5.5194,5.5194,5.5194,5.5194,5.5134,5.5134,5.5104,5.5089,5.5029,5.4999,5.5014,5.497,5.491,5.4775,5.4745,5.4236,5.3937,5.3862,5.3309,5.289,5.283,5.2351,5.1932,5.1843,5.1483,5.1274,5.1289,5.1244,5.1229,5.1229,5.1229,5.1229,5.1229,5.1229,5.1229,5.1229,5.1154,5.1094,5.0898,5.0689,5.0466,4.9987,4.9628,4.9179,4.8401,4.7878,4.7403,4.6919,4.6314,4.552,4.442,4.3279,4.2137,4.1094,4.0117,3.9871,4.0047,4.0065,3.9913,3.9918,3.987,3.9234,3.8695,3.8573,3.8214,3.7769,3.7492,3.7307,3.7307,3.7492,3.7446,3.7328,3.7279,3.7409,3.7282,3.7228,3.7179,3.7285,3.7852,3.8484,4.4129,4.4669,4.5246,4.5811,4.625,4.6313,4.6313,4.6313,4.6313,4.6494,4.6853,4.7481,4.8437,4.9686,5.0865,5.2071,5.3328,5.3933,5.4466,5.4941,5.5042,5.5093,5.5143,5.5194,5.5194,5.5194,5.5194,5.5194,5.5194,5.5194,5.5194,5.5194,5.5194,5.5194,5.5194,5.5194,5.5194,5.5194,5.5164,5.5029,5.4925,5.482,5.467,5.4491,5.4446,5.4566,5.479,5.4805,5.491,5.5134,5.47,5.461,5.4491,5.3982,5.3354,5.3204,5.286,5.2606,5.2501,5.1977,5.1723,5.1528,5.1379,5.1229,5.1229,5.1229,5.1229,5.1229,5.1229,5.1229,5.1229,5.1229,5.1214,5.1199,5.1109,5.1035,5.0705,5.033,4.9658,4.882,4.8237,4.7746,4.7185,4.6624,4.5837,4.4805,4.3871,4.295,4.2008,4.112,4.1035,4.1236,4.1327,4.128,4.1288,4.1297,4.0773,4.0203,3.9843,3.9388,3.8554,3.8089,3.8031,3.7939,3.7907,3.7907,3.7998,3.8245,3.8389,3.8301,3.8405,3.8696,3.8669,3.8588,3.9249,4.4079,4.4681,4.5296,4.5861,4.6276,4.6313,4.6313,4.6313,4.6313,4.6481,4.6853,4.7409,4.8146,4.9116,5.0264,5.143,5.2516,5.3275,5.4089,5.4737,5.4839,5.4941,5.5143,5.5194,5.5194,5.5194,5.5194,5.5194,5.5194,5.5194,5.5194,5.5194,5.5194,5.5194,5.5194,5.5194,5.5194,5.5194,5.5104,5.4955,5.4461,5.4177,5.3907,5.3399,5.3384,5.3518,5.3967,5.4236,5.4401,5.4805,5.5059,5.497,5.4895,5.4625,5.3997,5.3638,5.3414,5.3294,5.3099,5.265,5.2366,5.2067,5.1693,5.1513,5.1483,5.1274,5.1229,5.1229,5.1229,5.1229,5.1229,5.1229,5.1229,5.1229,5.1184,5.1139,5.1005,5.0554,4.9987,4.9254,4.882,4.8313,4.7747,4.7155,4.64,4.5347,4.4401,4.3553,4.2881,4.2048,4.2106,4.2393,4.263,4.2726,4.3048,4.2923,4.2425,4.1908,4.136,4.0584,3.9771,3.9227,3.8832,3.8607,3.8349,3.8607,3.8742,3.9011,3.922,3.9434,3.9688,4.0275,4.0238,3.9856,4.0155,4.374,4.4719,4.5698,4.62,4.6301,4.6313,4.6313,4.6313,4.6313,4.6373,4.6541,4.7053,4.7677,4.8495,4.9656,5.0767,5.1799,5.2623,5.3576,5.4282,5.4568,5.4839,5.5143,5.5194,5.5194,5.5194,5.5194,5.5194,5.5194,5.5194,5.5194,5.5194,5.5194,5.5194,5.5194,5.5194,5.5194,5.5194,5.5149,5.485,5.4311,5.4117,5.3892,5.3369,5.3174,5.3129,5.3414,5.3458,5.3503,5.3683,5.4206,5.4625,5.5119,5.4985,5.488,5.4655,5.4192,5.4012,5.3773,5.3384,5.3025,5.2755,5.2426,5.2127,5.1828,5.1454,5.1197,5.1244,5.1229,5.1229,5.1229,5.1229,5.1229,5.1229,5.1229,5.1229,5.1229,5.075,5.0227,4.9838,4.9389,4.8895,4.8358,4.7614,4.6858,4.5978,4.5046,4.4233,4.3743,4.3095,4.3143,4.3436,4.3923,4.4192,4.4502,4.4468,4.3904,4.3427,4.2907,4.2012,4.0977,4.0141,3.9406,3.9007,3.8819,3.9011,3.9234,3.9557,3.9865,4.0229,4.0659,4.1142,4.1479,4.1227,4.1531,4.3476,4.4367,4.5472,4.6087,4.6288,4.6313,4.6313,4.6313,4.6313,4.6313,4.6373,4.6827,4.7277,4.7795,4.8913,4.9926,5.0962,5.1839,5.2769,5.3591,5.423,5.4619,5.4875,5.5143,5.5194,5.5194,5.5194,5.5194,5.5194,5.5194,5.5194,5.5194,5.5194,5.5194,5.5194,5.5194,5.5194,5.5194,5.5194,5.4835,5.4251,5.3937,5.3443,5.2935,5.2546,5.2546,5.2725,5.2785,5.295,5.3264,5.3907,5.4281,5.4745,5.497,5.5134,5.5059,5.4835,5.464,5.4446,5.4102,5.3653,5.3443,5.3025,5.268,5.2127,5.1753,5.1483,5.1439,5.1259,5.1229,5.1229,5.1229,5.1229,5.1229,5.1229,5.1229,5.1214,5.1005,5.075,5.0631,5.0167,4.9657,4.9029,4.8179,4.742,4.663,4.5714,4.4847,4.4369,4.404,4.4134,4.4369,4.4833,4.5324,4.5636,4.561,4.5361,4.4894,4.4327,4.3125,4.1972,4.0861,4.0025,3.9553,3.927,3.9322,3.9601,3.9878,4.0516,4.0972,4.1409,4.1883,4.2172,4.2363,4.2452,4.335,4.4028,4.5045,4.5811,4.6276,4.6313,4.6313,4.6313,4.6386,4.6373,4.6434,4.6686,4.6947,4.7409,4.8101,4.8944,4.9899,5.0782,5.1839,5.2837,5.3524,5.4126,5.4656,5.4976,5.5093,5.5194,5.5194,5.5194,5.5194,5.5194,5.5194,5.5194,5.5194,5.5194,5.5194,5.5194,5.5194,5.5194,5.5119,5.488,5.4296,5.3638,5.3039,5.2351,5.1738,5.1663,5.1962,5.2172,5.2441,5.283,5.3369,5.3907,5.4326,5.4715,5.5029,5.5059,5.5134,5.5059,5.4985,5.4625,5.4416,5.4162,5.3638,5.3129,5.2606,5.2142,5.1872,5.1603,5.1409,5.1229,5.1229,5.1229,5.1229,5.1229,5.1229,5.1229,5.1199,5.1137,5.1169,5.1154,5.0764,5.03,4.9642,4.8775,4.8043,4.725,4.643,4.5625,4.4982,4.4815,4.4801,4.5078,4.5489,4.6016,4.6477,4.6476,4.624,4.5991,4.5317,4.411,4.2937,4.1878,4.0866,3.997,3.9789,3.9611,3.9714,3.9996,4.0716,4.1381,4.1883,4.2172,4.2444,4.2648,4.289,4.3564,4.4518,4.5208,4.5799,4.6263,4.6313,4.6313,4.6313,4.6554,4.6673,4.6673,4.6746,4.6866,4.6913,4.7586,4.8262,4.8886,4.9843,5.0906,5.1894,5.2822,5.3629,5.4333,5.4824,5.4991,5.5143,5.5194,5.5194,5.5194,5.5194,5.5194,5.5194,5.5194,5.5194,5.5194,5.5194,5.5194,5.5194,5.5194,5.5044,5.4895,5.4206,5.3294,5.265,5.2112,5.1768,5.1573,5.1424,5.1468,5.1738,5.2321,5.3174,5.3803,5.4296,5.467,5.4999,5.5089,5.5194,5.5059,5.497,5.482,5.479,5.4311,5.3937,5.3339,5.2606,5.2291,5.1932,5.1678,5.1289,5.1229,5.1229,5.1229,5.1229,5.1229,5.1229,5.1214,5.1214,5.1199,5.1199,5.1094,5.0629,5.0211,4.9491,4.8937,4.8127,4.7175,4.637,4.5585,4.5513,4.5396,4.573,4.6105,4.6447,4.6785,4.696,4.6855,4.668,4.6211,4.4937,4.3829,4.2909,4.1923,4.0666,4.0001,3.9721,3.9891,4.0131,4.0544,4.1199,4.1939,4.2418,4.2688,4.289,4.305]}]]